[[{"header":{"parameterUnit":"m.s-1","parameterCategory":1,"la1":30.6,"la2":29.2853,"lo1":-89.7004,"lo2":-87.6739,"dy":0.0162,"dx":0.0183,"nx":112,"ny":82,"refTime":"2023-05-09T00:00:00:Z","depth":0,"parameterNumber":2,"parameterNumberName":"U-component_of_WINDS"},"data":[0.0,0.0,0.0,0.0,0.0,0.0,0.0,0.0,0.0,0.0,0.0,0.0,0.0,0.0,0.0,0.0,0.0,0.0,0.0,0.0,0.0,0.0,0.0,0.0,0.0,0.0,0.0,0.0,0.0,0.0,0.0,0.0,0.0,0.0,0.0,0.0,0.0,0.0,0.0,0.0,0.0,0.0,0.0,0.0,0.0,0.0,0.0,0.0,0.0,0.0,0.0,0.0,0.0,0.0,0.0,0.0,0.0,0.0,0.0,0.0,0.0,0.0,0.0,0.0,0.0,0.0,0.0,0.0,0.0,0.0,0.0,0.0,0.0,0.0,0.0,0.0,0.0,0.0,0.0,0.0,0.0,0.0,0.0,0.0,0.0,0.0,0.0,0.0,0.0,0.0,-3.2782,-3.3493,-3.3771,-3.3242,-3.1646,-3.1382,-3.0961,-3.0152,0.0,0.0,0.0,0.0,0.0,0.0,0.0,0.0,0.0,0.0,0.0,0.0,0.0,0.0,0.0,0.0,0.0,0.0,0.0,0.0,0.0,0.0,0.0,0.0,0.0,0.0,0.0,0.0,0.0,0.0,0.0,0.0,0.0,0.0,0.0,0.0,0.0,0.0,0.0,0.0,0.0,0.0,0.0,0.0,0.0,0.0,0.0,0.0,0.0,0.0,0.0,0.0,0.0,0.0,0.0,0.0,0.0,0.0,0.0,0.0,0.0,0.0,0.0,0.0,0.0,0.0,0.0,0.0,0.0,0.0,0.0,0.0,0.0,0.0,0.0,0.0,0.0,0.0,0.0,0.0,0.0,0.0,0.0,0.0,0.0,0.0,0.0,0.0,0.0,0.0,0.0,0.0,0.0,0.0,0.0,0.0,0.0,0.0,0.0,0.0,0.0,0.0,0.0,0.0,-3.3875,-3.5096,-3.4377,-3.3426,-3.2485,-3.1722,-3.0961,-3.0152,0.0,0.0,0.0,0.0,0.0,0.0,0.0,0.0,0.0,0.0,0.0,0.0,0.0,0.0,0.0,0.0,0.0,0.0,0.0,0.0,0.0,0.0,0.0,0.0,0.0,0.0,0.0,0.0,0.0,0.0,0.0,0.0,0.0,0.0,0.0,0.0,0.0,0.0,0.0,0.0,0.0,0.0,0.0,0.0,0.0,0.0,0.0,0.0,0.0,0.0,0.0,0.0,0.0,0.0,0.0,0.0,0.0,0.0,0.0,0.0,0.0,0.0,0.0,0.0,0.0,0.0,0.0,0.0,0.0,0.0,0.0,0.0,0.0,0.0,0.0,0.0,0.0,0.0,0.0,0.0,0.0,0.0,0.0,0.0,0.0,0.0,0.0,0.0,0.0,0.0,0.0,0.0,0.0,0.0,0.0,0.0,0.0,0.0,0.0,0.0,0.0,0.0,0.0,-3.3273,-3.3617,-3.4667,-3.4193,-3.3451,-3.2571,-3.212,-3.175,-3.1426,-3.0964,0.0,0.0,0.0,0.0,0.0,0.0,0.0,0.0,0.0,0.0,0.0,0.0,0.0,0.0,0.0,0.0,0.0,0.0,0.0,0.0,0.0,0.0,0.0,0.0,0.0,0.0,0.0,0.0,0.0,0.0,0.0,0.0,0.0,0.0,0.0,0.0,0.0,0.0,0.0,0.0,0.0,0.0,0.0,0.0,0.0,0.0,0.0,0.0,0.0,0.0,0.0,0.0,0.0,0.0,0.0,0.0,0.0,0.0,0.0,0.0,0.0,0.0,0.0,0.0,0.0,0.0,0.0,0.0,0.0,0.0,0.0,0.0,0.0,0.0,0.0,0.0,0.0,0.0,0.0,0.0,0.0,0.0,0.0,0.0,0.0,0.0,0.0,0.0,0.0,0.0,0.0,0.0,0.0,0.0,0.0,0.0,0.0,0.0,0.0,0.0,0.0,0.0,-3.4101,-3.3883,-3.4612,-3.4438,-3.3847,-3.2813,-3.273,-3.2663,-3.2514,-3.1701,0.0,0.0,0.0,0.0,0.0,0.0,0.0,0.0,0.0,0.0,0.0,0.0,0.0,0.0,0.0,0.0,0.0,0.0,0.0,0.0,0.0,0.0,0.0,0.0,0.0,0.0,0.0,0.0,0.0,0.0,0.0,0.0,0.0,0.0,0.0,0.0,0.0,0.0,0.0,0.0,0.0,0.0,0.0,0.0,0.0,0.0,0.0,0.0,0.0,0.0,0.0,0.0,0.0,0.0,0.0,0.0,0.0,0.0,0.0,0.0,0.0,0.0,0.0,0.0,0.0,0.0,0.0,0.0,0.0,0.0,0.0,0.0,0.0,0.0,0.0,0.0,0.0,0.0,0.0,0.0,0.0,0.0,0.0,0.0,0.0,0.0,0.0,0.0,0.0,0.0,0.0,0.0,0.0,0.0,0.0,0.0,0.0,0.0,0.0,0.0,0.0,0.0,-3.57,-3.5885,-3.6363,-3.5963,-3.5136,-3.3806,-3.3701,-3.3359,-3.2552,-3.1735,0.0,0.0,0.0,0.0,0.0,0.0,0.0,0.0,0.0,0.0,0.0,0.0,0.0,0.0,0.0,0.0,0.0,0.0,0.0,0.0,0.0,0.0,0.0,0.0,0.0,0.0,0.0,0.0,0.0,0.0,0.0,0.0,0.0,0.0,0.0,0.0,0.0,0.0,0.0,0.0,0.0,0.0,0.0,0.0,0.0,0.0,0.0,0.0,0.0,0.0,0.0,0.0,0.0,0.0,0.0,0.0,0.0,0.0,0.0,0.0,0.0,0.0,0.0,0.0,0.0,0.0,0.0,0.0,0.0,0.0,0.0,0.0,0.0,0.0,0.0,0.0,0.0,0.0,0.0,0.0,0.0,0.0,0.0,0.0,0.0,0.0,0.0,0.0,0.0,0.0,0.0,0.0,0.0,0.0,0.0,0.0,0.0,0.0,0.0,0.0,0.0,0.0,-3.3698,-3.3942,-3.5162,-3.5336,-3.5018,-3.4183,-3.4647,-3.4703,-3.4036,0.0,0.0,0.0,0.0,0.0,0.0,0.0,0.0,0.0,0.0,0.0,0.0,0.0,0.0,0.0,0.0,0.0,0.0,0.0,0.0,0.0,0.0,0.0,0.0,0.0,0.0,0.0,0.0,0.0,0.0,0.0,0.0,0.0,0.0,0.0,0.0,0.0,0.0,0.0,0.0,0.0,0.0,0.0,0.0,0.0,0.0,0.0,0.0,0.0,0.0,0.0,0.0,0.0,0.0,0.0,0.0,0.0,0.0,0.0,0.0,0.0,0.0,0.0,0.0,0.0,0.0,0.0,0.0,0.0,0.0,0.0,0.0,0.0,0.0,0.0,0.0,0.0,0.0,0.0,0.0,0.0,0.0,0.0,0.0,0.0,0.0,0.0,0.0,0.0,0.0,0.0,0.0,0.0,0.0,0.0,0.0,0.0,0.0,0.0,0.0,0.0,0.0,-3.2699,-3.2952,-3.3409,-3.4407,-3.4743,-3.4686,-3.4166,-3.471,-3.4934,-3.4599,0.0,0.0,0.0,0.0,0.0,0.0,0.0,0.0,0.0,0.0,0.0,0.0,0.0,0.0,0.0,0.0,0.0,0.0,0.0,0.0,0.0,0.0,0.0,0.0,0.0,0.0,0.0,0.0,0.0,0.0,0.0,0.0,0.0,0.0,0.0,0.0,0.0,0.0,0.0,0.0,0.0,0.0,0.0,0.0,0.0,0.0,0.0,0.0,0.0,0.0,0.0,0.0,0.0,0.0,0.0,0.0,0.0,0.0,0.0,0.0,0.0,0.0,0.0,0.0,0.0,0.0,0.0,0.0,0.0,0.0,0.0,0.0,0.0,0.0,0.0,0.0,0.0,0.0,0.0,0.0,0.0,0.0,0.0,0.0,0.0,0.0,0.0,0.0,0.0,0.0,0.0,0.0,0.0,0.0,0.0,0.0,0.0,0.0,0.0,0.0,0.0,0.0,-3.2422,-3.4071,-3.5086,-3.4521,-3.448,-3.4269,-3.3738,-3.3692,-3.3763,0.0,0.0,0.0,0.0,0.0,0.0,0.0,0.0,0.0,0.0,0.0,0.0,0.0,0.0,0.0,0.0,0.0,0.0,0.0,0.0,0.0,0.0,0.0,0.0,0.0,0.0,0.0,0.0,0.0,0.0,0.0,0.0,0.0,0.0,0.0,0.0,0.0,0.0,0.0,0.0,0.0,0.0,0.0,0.0,0.0,0.0,0.0,0.0,0.0,0.0,0.0,0.0,0.0,0.0,0.0,0.0,0.0,0.0,0.0,0.0,0.0,0.0,0.0,0.0,0.0,0.0,0.0,0.0,0.0,0.0,0.0,0.0,0.0,0.0,0.0,0.0,0.0,0.0,0.0,0.0,0.0,0.0,0.0,0.0,0.0,0.0,0.0,0.0,0.0,0.0,0.0,0.0,0.0,0.0,0.0,0.0,0.0,0.0,0.0,0.0,0.0,0.0,0.0,-3.0594,-3.2301,-3.3476,-3.3129,-3.377,-3.3991,-3.3469,-3.3978,-3.4206,-3.3917,0.0,0.0,0.0,0.0,0.0,0.0,0.0,0.0,0.0,0.0,0.0,0.0,0.0,0.0,0.0,0.0,0.0,0.0,0.0,0.0,0.0,0.0,0.0,0.0,0.0,0.0,0.0,0.0,0.0,0.0,0.0,0.0,0.0,0.0,0.0,0.0,0.0,0.0,0.0,0.0,0.0,0.0,0.0,0.0,0.0,0.0,0.0,0.0,0.0,0.0,0.0,0.0,0.0,0.0,0.0,0.0,0.0,0.0,0.0,0.0,0.0,0.0,0.0,0.0,0.0,0.0,0.0,0.0,0.0,0.0,0.0,0.0,0.0,0.0,0.0,0.0,0.0,0.0,0.0,0.0,0.0,0.0,0.0,0.0,0.0,0.0,0.0,0.0,0.0,0.0,0.0,0.0,0.0,0.0,0.0,0.0,0.0,0.0,0.0,0.0,0.0,0.0,-3.0162,-3.1794,-3.2932,-3.2703,-3.3231,-3.3453,-3.3055,-3.351,-3.3716,-3.3518,0.0,0.0,0.0,0.0,0.0,0.0,0.0,0.0,0.0,0.0,0.0,0.0,0.0,0.0,0.0,0.0,0.0,0.0,0.0,0.0,0.0,0.0,0.0,0.0,0.0,0.0,0.0,0.0,0.0,0.0,0.0,0.0,0.0,0.0,0.0,0.0,0.0,0.0,0.0,0.0,0.0,0.0,0.0,0.0,0.0,0.0,0.0,0.0,0.0,0.0,0.0,0.0,0.0,0.0,0.0,0.0,0.0,0.0,0.0,0.0,0.0,0.0,0.0,0.0,0.0,0.0,0.0,0.0,0.0,0.0,0.0,0.0,0.0,0.0,0.0,0.0,0.0,0.0,0.0,0.0,0.0,0.0,0.0,0.0,0.0,0.0,0.0,0.0,0.0,0.0,0.0,0.0,0.0,0.0,0.0,0.0,0.0,0.0,0.0,0.0,0.0,0.0,-3.0708,-3.2186,-3.3181,-3.2969,-3.2959,-3.2869,-3.2702,-3.2683,-3.2766,-3.2927,0.0,0.0,0.0,0.0,0.0,0.0,0.0,0.0,0.0,0.0,0.0,0.0,0.0,0.0,0.0,0.0,0.0,0.0,0.0,0.0,0.0,0.0,0.0,0.0,0.0,0.0,0.0,0.0,0.0,0.0,0.0,0.0,0.0,0.0,0.0,0.0,0.0,0.0,0.0,0.0,0.0,0.0,0.0,0.0,0.0,0.0,0.0,0.0,0.0,0.0,0.0,0.0,0.0,0.0,0.0,0.0,0.0,0.0,0.0,0.0,-3.4251,-3.4015,0.0,0.0,0.0,0.0,0.0,0.0,0.0,0.0,0.0,0.0,0.0,0.0,0.0,0.0,0.0,0.0,0.0,0.0,0.0,0.0,0.0,0.0,0.0,0.0,0.0,0.0,0.0,0.0,0.0,0.0,0.0,0.0,0.0,0.0,0.0,0.0,0.0,0.0,0.0,0.0,-3.08,-3.2445,-3.3555,-3.3318,-3.3339,-3.3354,-3.3319,-3.3373,-3.3308,-3.3142,-3.2369,0.0,0.0,0.0,0.0,0.0,0.0,0.0,0.0,0.0,0.0,0.0,0.0,0.0,0.0,0.0,0.0,0.0,0.0,0.0,0.0,0.0,0.0,0.0,0.0,0.0,0.0,0.0,0.0,0.0,0.0,0.0,0.0,0.0,0.0,0.0,0.0,0.0,0.0,0.0,0.0,0.0,0.0,0.0,0.0,0.0,0.0,0.0,0.0,0.0,0.0,0.0,0.0,0.0,0.0,0.0,0.0,0.0,0.0,0.0,-3.3743,-3.3996,0.0,0.0,0.0,0.0,0.0,0.0,0.0,0.0,0.0,0.0,0.0,0.0,0.0,0.0,0.0,0.0,0.0,0.0,0.0,0.0,0.0,0.0,0.0,0.0,0.0,0.0,0.0,0.0,0.0,0.0,0.0,0.0,0.0,0.0,0.0,0.0,0.0,0.0,0.0,0.0,-3.1473,-3.2984,-3.3925,-3.3611,-3.3636,-3.3613,-3.3512,-3.3594,-3.3585,-3.3446,-3.2812,0.0,0.0,0.0,0.0,0.0,0.0,0.0,0.0,0.0,0.0,0.0,0.0,0.0,0.0,0.0,0.0,0.0,0.0,0.0,0.0,0.0,0.0,0.0,0.0,0.0,0.0,0.0,0.0,0.0,0.0,0.0,0.0,0.0,0.0,0.0,0.0,0.0,0.0,0.0,0.0,0.0,0.0,0.0,0.0,0.0,0.0,0.0,0.0,0.0,0.0,0.0,0.0,0.0,-3.1891,-3.1881,-3.161,-3.1696,-3.2064,-3.2622,-3.3351,-3.4039,-3.4509,-3.3562,0.0,0.0,0.0,0.0,0.0,0.0,0.0,0.0,0.0,0.0,0.0,0.0,0.0,0.0,0.0,0.0,0.0,0.0,0.0,0.0,0.0,0.0,0.0,0.0,-2.8188,-2.9142,-2.9551,0.0,0.0,0.0,0.0,0.0,0.0,0.0,0.0,0.0,0.0,0.0,-3.2192,-3.3397,-3.408,-3.3879,-3.3859,-3.38,-3.3647,-3.3761,-3.3815,-3.3799,-3.33,-3.2968,0.0,0.0,0.0,0.0,0.0,0.0,0.0,0.0,0.0,0.0,0.0,0.0,0.0,0.0,0.0,0.0,0.0,0.0,0.0,0.0,0.0,0.0,0.0,0.0,0.0,0.0,0.0,0.0,0.0,0.0,0.0,0.0,-2.9975,-3.0669,0.0,0.0,0.0,0.0,0.0,0.0,0.0,0.0,0.0,0.0,0.0,0.0,0.0,-3.1858,-3.1575,-3.1521,-3.137,-3.1113,-3.1763,-3.2058,-3.2022,-3.2492,-3.2765,-3.2835,-3.2772,0.0,-3.2996,-3.3035,0.0,0.0,0.0,0.0,0.0,0.0,0.0,0.0,0.0,0.0,0.0,0.0,0.0,0.0,0.0,0.0,0.0,0.0,0.0,0.0,0.0,0.0,-2.8667,-2.864,-2.891,-2.9153,0.0,-2.9102,-2.9193,-2.9201,-2.9253,0.0,0.0,0.0,0.0,0.0,0.0,0.0,-3.2407,-3.3173,-3.3713,-3.403,-3.4063,-3.4105,-3.4202,-3.4306,-3.4333,-3.4162,-3.4158,-3.4053,-3.3753,-3.2209,0.0,0.0,0.0,0.0,0.0,0.0,0.0,0.0,0.0,0.0,0.0,0.0,0.0,0.0,0.0,0.0,0.0,0.0,0.0,0.0,0.0,0.0,0.0,0.0,0.0,0.0,0.0,0.0,0.0,-2.8068,-2.8665,-2.9801,-2.9336,-2.8973,0.0,0.0,0.0,0.0,0.0,0.0,0.0,0.0,0.0,-3.2632,-3.2236,-3.2199,-3.2695,-3.2191,-3.2055,-3.2292,-3.2508,-3.2629,-3.2629,-3.2715,-3.2791,-3.2777,-3.2678,-3.2404,-3.2042,-3.2263,-3.2236,-3.1972,0.0,0.0,0.0,0.0,-3.1613,-3.165,-3.1419,-3.1234,-3.1041,-3.0842,0.0,0.0,0.0,0.0,0.0,0.0,0.0,0.0,0.0,0.0,-2.7565,-2.7552,-2.7894,-2.822,-2.8141,-2.8467,-2.8845,0.0,-2.9166,-2.9082,-2.8767,0.0,0.0,0.0,0.0,-3.0898,-3.1711,-3.234,-3.2772,-3.296,-3.2906,-3.3013,-3.3413,-3.3594,-3.3756,-3.4029,-3.3832,-3.3659,-3.3506,-3.2088,-3.1258,0.0,0.0,0.0,0.0,0.0,0.0,0.0,0.0,0.0,0.0,0.0,0.0,0.0,0.0,0.0,0.0,0.0,0.0,0.0,0.0,0.0,0.0,0.0,0.0,0.0,0.0,0.0,0.0,-2.7551,-2.7736,-2.89,-2.8556,-2.8321,0.0,0.0,0.0,0.0,0.0,0.0,-3.1779,-3.1855,-3.2296,-3.3254,-3.2674,-3.2675,-3.3431,-3.2836,-3.2733,-3.3067,-3.2962,-3.2922,-3.2922,-3.2685,-3.2619,-3.2619,-3.2566,-3.2201,-3.1682,-3.1806,-3.1775,-3.1654,-3.1286,-3.1343,-3.1608,-3.1385,-3.1389,-3.15,-3.1227,-3.098,-3.0751,-3.0618,-3.0222,-2.9729,-2.9335,0.0,0.0,0.0,0.0,-2.663,-2.6687,-2.6594,-2.6475,-2.6386,-2.6782,-2.7162,-2.7162,-2.7584,-2.8148,0.0,-2.8954,-2.8856,-2.8302,0.0,0.0,0.0,0.0,-3.0436,-3.1116,-3.1599,-3.1931,-3.2028,-3.1959,-3.2114,-3.2637,-3.2756,-3.3039,-3.3559,-3.3276,-3.307,-3.307,-3.1934,-3.1336,-3.1406,0.0,0.0,0.0,0.0,0.0,0.0,0.0,0.0,0.0,0.0,0.0,0.0,0.0,0.0,0.0,0.0,0.0,0.0,0.0,0.0,0.0,0.0,0.0,0.0,0.0,0.0,0.0,0.0,0.0,-2.8479,-2.8459,0.0,0.0,0.0,0.0,-2.9826,-2.9977,-3.0954,-3.3197,-3.3303,-3.3479,-3.384,-3.3648,-3.3352,-3.3027,-3.3001,-3.2778,-3.2433,-3.2619,-3.2725,-3.2685,-3.25,-3.2433,-3.238,-3.2207,-3.2102,-3.2064,-3.1876,-3.1501,-3.1067,-3.1216,-3.1349,-3.1439,-3.1734,-3.173,-3.1583,-3.1581,-3.1539,-3.1372,-3.0231,-2.8972,-2.7921,-2.7905,-2.7456,0.0,0.0,-2.6858,-2.6465,-2.6654,-2.6313,-2.5943,-2.5933,-2.6084,-2.627,-2.627,-2.6429,-2.6979,0.0,-2.8675,-2.8754,-2.8514,0.0,-2.8966,-2.9464,-2.961,-3.0032,-3.107,-3.1232,-3.1421,-3.1862,-3.1903,-3.2015,-3.229,-3.2345,-3.2454,-3.2725,-3.2721,-3.2732,-3.2732,-3.1796,-3.1413,-3.1675,-3.083,0.0,0.0,0.0,0.0,0.0,0.0,0.0,0.0,0.0,0.0,0.0,0.0,0.0,0.0,0.0,0.0,0.0,0.0,0.0,0.0,0.0,0.0,0.0,0.0,0.0,0.0,0.0,0.0,-2.7686,-2.7854,0.0,-2.8416,-2.8529,-2.9018,-3.0099,-3.014,-3.0838,-3.2483,-3.2842,-3.3183,-3.35,-3.3713,-3.3833,-3.3906,-3.3565,-3.3484,-3.3673,-3.3755,-3.3783,-3.3796,-3.3714,-3.3673,-3.3673,-3.3619,-3.3288,-3.2857,-3.2784,-3.2345,-3.1679,-3.1199,-3.1151,-3.1225,-3.0723,-3.0546,-3.0572,-3.0481,-3.0457,-3.0381,-2.9923,-2.9479,-2.9088,-2.9088,-2.861,-2.8084,-2.8236,-2.7812,-2.7365,-2.7541,-2.7454,-2.7217,-2.6701,-2.6662,-2.6576,-2.6124,-2.6049,-2.6269,-2.6739,-2.7367,-2.7773,-2.7561,-2.7832,-2.8062,-2.7958,-2.8481,-2.9125,-2.978,-3.0038,-3.0267,-3.0539,-3.048,-3.0629,-3.1101,-3.1159,-3.1405,-3.2031,-3.1686,-3.1539,-3.1651,-3.099,-3.0632,-3.0737,-3.0502,-2.997,0.0,0.0,0.0,0.0,0.0,0.0,0.0,0.0,0.0,0.0,0.0,0.0,0.0,0.0,0.0,0.0,0.0,0.0,0.0,0.0,0.0,0.0,0.0,0.0,0.0,-2.5633,-2.6219,-2.6925,-2.7283,-2.7658,-2.8086,-2.8421,-2.9089,-3.0167,-3.0199,-3.0804,-3.2179,-3.2542,-3.279,-3.2943,-3.3135,-3.3315,-3.3547,-3.3119,-3.3077,-3.3335,-3.3335,-3.328,-3.3182,-3.328,-3.3335,-3.3335,-3.342,-3.3187,-3.2718,-3.2718,-3.242,-3.1879,-3.1538,-3.1302,-3.1163,-3.0649,-3.0343,-3.0126,-3.0037,-2.9895,-2.9753,-2.9456,-2.9378,-2.9378,-2.9378,-2.9001,-2.8705,-2.91,-2.87,-2.8188,-2.8349,-2.8247,-2.7972,-2.7488,-2.7365,-2.7229,-2.6739,-2.6445,-2.6239,-2.6181,-2.6591,-2.6928,-2.6902,-2.7229,-2.7328,-2.6958,-2.7691,-2.829,-2.8398,-2.8739,-2.904,-2.9121,-2.9184,-2.9435,-2.9872,-2.9961,-3.0292,-3.1102,-3.0581,-3.0413,-3.0751,-3.0233,-2.994,-2.994,-2.9776,-2.9223,-2.8236,0.0,0.0,0.0,0.0,0.0,0.0,0.0,0.0,0.0,0.0,0.0,0.0,0.0,0.0,0.0,0.0,0.0,0.0,0.0,0.0,0.0,0.0,0.0,-2.5894,-2.6057,-2.6243,-2.6254,-2.691,-2.7173,-2.6693,-2.7097,-2.8099,-2.9936,-3.0059,-3.0795,-3.242,-3.2531,-3.2414,-3.2221,-3.1991,-3.1904,-3.1904,-3.1697,-3.1488,-3.1223,-3.1223,-3.1066,-3.0819,-3.1066,-3.1223,-3.1223,-3.1488,-3.1621,-3.1621,-3.1621,-3.1621,-3.1656,-3.2155,-3.1872,-3.1252,-3.1643,-3.119,-3.0381,-3.033,-3.0075,-2.9585,-2.8752,-2.8462,-2.8462,-2.8462,-2.8462,-2.8621,-2.9495,-2.9301,-2.8837,-2.8837,-2.8437,-2.8074,-2.8061,-2.8012,-2.8049,-2.8,-2.7454,-2.6889,-2.6698,-2.6399,-2.6295,-2.6607,-2.6824,-2.6881,-2.6707,-2.7308,0.0,-2.7042,-2.7465,-2.7776,-2.7782,-2.8168,-2.8542,-2.873,-2.88,-2.9201,-2.9976,-2.948,-2.9423,-2.9991,-2.9601,-2.9346,-2.9346,-2.8619,-2.8258,-2.8258,0.0,0.0,0.0,0.0,0.0,0.0,0.0,0.0,0.0,0.0,0.0,0.0,0.0,0.0,0.0,0.0,0.0,0.0,0.0,0.0,0.0,-2.6632,-2.679,-2.6603,-2.6831,-2.7097,-2.7458,-2.7687,-2.7927,-2.8145,-2.8322,-2.8728,-2.9614,-2.9352,-2.9488,-3.0294,-3.0687,-3.0732,-3.0508,-3.1255,-3.1621,-3.1456,-3.1545,-3.1577,-3.1488,-3.1488,-3.1432,-3.1388,-3.1444,-3.1488,-3.1488,-3.1577,-3.1621,-3.1621,-3.1621,-3.1621,-3.156,-3.1144,-3.1129,-3.1398,-3.1107,-3.062,-2.9965,-2.8901,-2.8371,-2.8091,-2.7839,-2.7637,-2.7476,-2.7476,-2.7476,-2.7516,-2.7758,-2.7733,-2.7587,-2.7587,-2.7481,-2.7242,-2.6698,-2.6578,-2.6434,-2.5908,-2.5635,-2.5505,-2.5581,-2.6054,-2.625,-2.5786,-2.5721,-2.5812,-2.5906,-2.6417,0.0,-2.6776,-2.7259,-2.7459,-2.7169,-2.7264,-2.736,-2.7437,-2.7435,-2.771,-2.8322,-2.8201,-2.8265,-2.857,-2.8452,-2.8389,-2.8389,-2.7719,-2.7364,0.0,0.0,0.0,0.0,0.0,0.0,0.0,0.0,0.0,0.0,0.0,0.0,0.0,0.0,0.0,0.0,0.0,0.0,0.0,0.0,0.0,0.0,-2.6201,-2.6685,-2.7279,-2.7477,-2.7796,-2.8276,-2.8342,-2.8451,-2.8771,-2.8803,-2.8896,-2.9209,-2.8932,-2.8932,-2.9209,-2.9474,-2.9543,-2.9371,-3.0079,-3.0351,-3.0272,-3.0351,-3.0384,-3.026,-3.026,-3.0204,-3.0102,-3.0204,-3.026,-3.0249,-3.0396,-3.0429,-3.0429,-3.0429,-3.0429,0.0,0.0,0.0,0.0,0.0,-2.9808,-2.9249,-2.8397,-2.7906,-2.7557,-2.711,-2.6835,-2.67,-2.6577,-2.6577,-2.6648,-2.6987,-2.711,-2.711,-2.711,-2.711,-2.703,-2.6691,-2.6623,-2.6502,-2.6086,-2.5752,-2.5526,-2.5515,-2.5707,0.0,-2.5201,-2.5564,-2.5717,-2.5222,-2.5656,-2.603,-2.5931,-2.6366,-2.6616,-2.6386,-2.656,-2.6679,-2.6679,-2.672,0.0,0.0,0.0,-2.7275,-2.7497,-2.7497,0.0,0.0,0.0,-2.659,-2.6824,-2.5924,0.0,0.0,-2.6633,-2.7017,0.0,0.0,0.0,0.0,0.0,0.0,0.0,0.0,0.0,0.0,0.0,0.0,0.0,0.0,0.0,0.0,-2.5338,-2.6286,-2.7594,-2.7822,-2.8093,-2.8749,-2.8803,-2.8803,-2.8803,-2.8803,-2.8803,-2.8803,-2.8803,-2.8803,-2.8803,-2.8803,0.0,0.0,0.0,-2.8803,-2.8803,-2.8803,-2.8664,-2.8441,-2.8441,-2.8337,-2.8092,-2.8337,-2.8441,-2.8441,-2.871,-2.8803,-2.8803,-2.8803,-2.8803,-2.8978,-3.0744,-3.1025,-3.03,-2.957,-2.897,-2.8502,-2.8319,0.0,0.0,-2.6434,-2.6113,-2.606,-2.5799,-2.5704,-2.5872,-2.6618,-2.6823,-2.6823,-2.6823,-2.6823,-2.6864,-2.711,-2.7139,-2.718,-2.718,-2.6685,-2.6148,-2.5925,-2.5446,-2.5004,-2.492,-2.5843,-2.6177,-2.4753,-2.5192,-2.5488,-2.4921,-2.5259,-2.5537,-2.5498,0.0,0.0,-2.6224,-2.6271,-2.6582,-2.7198,-2.6712,-2.6505,-2.6681,-2.6681,-2.6764,-2.6854,-2.6054,-2.5908,-2.6467,-2.5511,-2.5313,-2.5822,-2.608,-2.675,0.0,0.0,0.0,0.0,0.0,0.0,0.0,0.0,0.0,0.0,0.0,0.0,0.0,0.0,0.0,-2.5159,-2.5966,-2.6547,-2.6484,-2.6662,-2.7353,-2.8885,-2.8896,-2.8803,-2.8803,-2.8803,-2.8803,-2.8803,-2.8803,-2.8803,-2.8803,-2.8803,-2.8803,-2.8803,-2.8803,-2.8803,-2.8803,-2.8803,-2.8757,-2.871,0.0,0.0,-2.8664,-2.871,-2.871,-2.871,-2.8757,-2.8803,-2.8803,-2.8803,-2.8803,-2.8885,-3.0034,-3.0371,-3.0188,-2.9658,-2.9138,-2.8502,-2.737,-2.6543,-2.601,-2.5759,-2.5591,-2.5359,-2.5147,-2.5062,0.0,-2.5031,-2.4988,-2.4988,-2.4988,-2.4988,-2.5031,-2.5073,-2.5062,-2.5147,-2.5359,-2.5284,-2.5177,-2.5135,-2.5561,-2.5694,-2.4873,-2.5608,-2.5972,-2.4967,-2.5556,-2.5814,-2.515,-2.5125,-2.5133,-2.4978,-2.5064,-2.5098,-2.5098,-2.5124,-2.5283,-2.572,-2.5763,-2.5852,-2.6083,-2.6083,-2.6071,-2.6093,-2.5632,-2.5437,-2.5534,-2.4933,-2.5077,-2.5949,-2.6016,-2.6363,0.0,0.0,0.0,0.0,0.0,0.0,0.0,0.0,0.0,0.0,0.0,-2.2877,-2.3788,0.0,-2.4221,-2.4312,-2.4898,-2.5382,-2.5674,-2.5819,-2.635,-2.7647,-2.7694,-2.7647,-2.7647,-2.7552,-2.7447,-2.7447,-2.7778,-2.8013,-2.8013,-2.8502,-2.8803,-2.8803,-2.8803,-2.8803,-2.8803,-2.8803,-2.8803,-2.8803,-2.8803,-2.8803,-2.8803,-2.8803,-2.8803,-2.8803,-2.8803,-2.8803,-2.8803,-2.8803,-2.8803,-2.885,-2.9336,-2.9509,-2.9475,-2.924,-2.8791,-2.8198,-2.7173,-2.6444,-2.5883,-2.5508,-2.5295,-2.52,-2.5073,-2.5031,-2.4988,-2.4786,-2.47,-2.4658,-2.454,-2.4583,-2.47,-2.47,-2.4786,-2.4871,-2.4903,-2.4903,-2.4903,-2.4903,-2.5232,-2.541,-2.5017,-2.5662,-2.5916,-2.5044,-2.5288,-2.5348,-2.4755,-2.4892,-2.4868,-2.4584,-2.4748,-2.4852,-2.4852,-2.4667,-2.4539,-2.4455,-2.4527,-2.4635,-2.4754,-2.4754,-2.4635,-2.4468,-2.424,-2.4011,-2.3818,-2.3635,-2.3957,-2.4697,-2.481,-2.5344,0.0,0.0,0.0,0.0,0.0,0.0,0.0,-2.1407,-2.1751,-2.2594,-2.2189,-2.2046,-2.3247,-2.3228,-2.309,-2.3352,-2.3655,-2.4143,-2.4913,-2.505,-2.5353,-2.5974,-2.6312,-2.6504,-2.6504,-2.6302,-2.6196,-2.6196,-2.6665,-2.6999,-2.6999,-2.7778,-2.8222,-2.8222,-2.8222,-2.8222,-2.8222,-2.8222,-2.8222,-2.8222,-2.8222,-2.8222,-2.8222,-2.8222,-2.8315,-2.8502,-2.8502,-2.8502,-2.8456,-2.8269,-2.8222,-2.8222,-2.8222,-2.8222,-2.8269,-2.8653,-2.8451,-2.7925,-2.7256,-2.6747,-2.6249,-2.5487,-2.5285,-2.5285,-2.52,-2.52,-2.5158,-2.4946,-2.4903,-2.4828,-2.4583,-2.4658,-2.4828,-2.4903,-2.5031,-2.5115,-2.4988,-2.4946,-2.4946,-2.4903,-2.4903,-2.4946,-2.5115,-2.5569,-2.5714,-2.4992,-2.4979,-2.4903,-2.4459,-2.4675,-2.4715,-2.4334,-2.4669,-2.4815,-2.4676,-2.4342,-2.3958,-2.3431,-2.3398,-2.3434,-2.346,-2.346,-2.3302,-2.2984,-2.2909,-2.2675,-2.2291,-2.2527,-2.2882,-2.3404,-2.3536,-2.4284,-2.2164,-2.2722,-2.314,-2.2462,-2.275,-2.3084,0.0,-2.2745,-2.2967,-2.326,-2.321,-2.3237,-2.3367,-2.3583,-2.3601,-2.3447,-2.3805,-2.4102,-2.3994,-2.4143,-2.4341,-2.444,-2.5693,-2.6504,-2.6504,-2.6446,-2.6456,-2.6456,-2.6292,-2.6244,-2.6244,-2.6089,-2.6041,-2.6041,-2.6041,-2.6041,-2.6041,-2.6041,-2.6041,-2.6041,-2.6041,-2.6041,-2.6041,-2.6041,-2.6522,-2.7379,-2.7379,-2.7379,-2.7332,-2.6426,-2.6041,-2.6041,-2.6041,-2.6041,-2.6282,-2.8128,-2.8451,-2.7925,-2.7435,-2.6966,-2.6465,-2.5763,-2.5559,-2.5517,-2.5285,-2.52,-2.5158,-2.4946,-2.4903,-2.4828,-2.4583,-2.454,-2.4615,-2.4818,-2.4903,-2.4988,-2.5115,-2.5158,-2.5115,-2.4946,-2.4903,-2.4903,-2.4946,-2.4988,-2.4988,-2.4925,-2.5344,-2.5461,-2.4729,-2.4667,-2.4607,-2.433,-2.4669,-2.4604,-2.3804,-2.3689,-2.3411,-2.2734,-2.2702,-2.2802,-2.2966,-2.2966,-2.2966,-2.2918,-2.2579,-2.2366,-2.2291,-2.2559,-2.2964,-2.3465,-2.3278,-2.3684,-2.1844,-2.2355,-2.2666,-2.3148,-2.3598,-2.368,-2.2987,-2.3062,-2.3414,-2.3565,-2.3506,-2.3456,-2.3596,-2.3596,-2.3497,-2.3197,-2.3506,-2.3646,-2.3347,-2.3696,-2.3954,-2.3954,-2.4677,-2.5157,-2.5157,-2.5011,-2.4913,-2.4913,-2.5236,-2.5421,-2.5421,-2.5906,-2.6157,-2.6157,-2.6157,-2.6099,-2.5945,-2.5945,-2.5848,-2.5703,-2.5703,-2.5703,-2.5703,-2.5703,-2.5935,-2.632,-2.632,-2.632,-2.6272,-2.5896,-2.5703,-2.5703,-2.5703,-2.5703,-2.58,-2.6665,-2.6839,-2.666,-2.6643,-2.633,-2.5813,-2.5373,-2.4995,-2.468,-2.3963,-2.3747,-2.3833,-2.4145,-2.4241,-2.4327,-2.4647,-2.4924,-2.4967,-2.4272,-2.4305,-2.4327,-2.3714,-2.3574,-2.3714,-2.4155,-2.4241,-2.4413,-2.4988,-2.4988,-2.4946,-2.5073,-2.5062,-2.4767,-2.4075,-2.399,-2.3813,-2.3308,-2.3401,-2.3164,-2.2294,-2.2193,-2.1959,-2.1482,-2.1451,-2.1479,-2.1545,-2.1545,-2.142,-2.1153,-2.0981,-2.0788,-2.0556,-2.0897,-2.1375,-2.2011,-2.2116,-2.25,-2.1318,-2.1872,-2.2191,-2.3524,-2.4016,-2.4013,-2.3331,-2.3371,-2.3648,-2.389,-2.3755,-2.3646,-2.3805,-2.3646,-2.3397,-2.3147,-2.3247,-2.3347,-2.3147,-2.3447,-2.3705,-2.3705,-2.3954,-2.4102,-2.4102,-2.4003,-2.3895,-2.3895,-2.4322,-2.4609,-2.4609,-2.5236,-2.5635,-2.5635,-2.5635,-2.5528,-2.5382,-2.5275,-2.5129,-2.4924,-2.4875,-2.4826,-2.4826,-2.511,-2.5266,-2.5266,-2.5266,-2.5266,-2.5266,-2.4973,-2.4826,-2.4826,-2.4826,-2.4826,-2.4826,-2.4826,-2.5217,-2.5692,-2.5792,-2.549,-2.4937,-2.457,-2.4129,-2.3584,-2.2921,-2.2736,-2.2833,-2.327,-2.34,-2.3531,-2.3973,-2.437,-2.438,-2.3527,-2.356,-2.3584,-2.2702,-2.2438,-2.257,-2.3183,-2.3313,-2.3531,-2.4317,-2.4498,-2.4637,-2.4807,-2.4572,-2.4245,-2.3832,-2.3592,-2.3279,-2.289,-2.2568,-2.2134,-2.1385,-2.1149,-2.0817,-2.0274,-2.0245,-2.0245,-2.0245,-2.0245,-2.0089,-1.9745,-1.9736,-1.9578,-1.9301,-1.9764,-2.0342,-2.0992,-2.1182,-2.1546,-2.0598,-2.1341,-2.2087,-2.3244,-2.3693,-2.3886,-2.4134,-2.3985,-2.3886,-2.4152,-2.4202,-2.4102,-2.3854,-2.3795,-2.3696,-2.3447,-2.3397,-2.3397,-2.3406,-2.3397,-2.3397,-2.3397,-2.3655,-2.3795,-2.3795,-2.4053,-2.4202,-2.4202,-2.3954,-2.3845,-2.3845,-2.3596,-2.3497,-2.3497,-2.3497,-2.3497,-2.3497,-2.3247,-2.3097,-2.3097,-2.2846,-2.2695,-2.2745,-2.371,-2.4137,-2.4137,-2.4137,-2.4137,-2.4088,-2.3079,-2.2695,-2.2695,-2.2695,-2.2695,-2.2695,-2.2695,-2.3958,-2.5634,-2.5118,-2.4539,-2.3975,-2.3479,-2.2923,-2.2482,-2.2711,-2.2799,-2.2755,-2.2526,-2.2438,-2.2394,-2.2164,-2.2076,-2.2217,-2.2711,-2.2843,-2.2843,-2.2799,-2.258,-2.235,-2.2076,-2.2031,-2.2164,-2.2438,-2.3226,-2.3844,-2.3844,-2.4046,-2.4282,-2.4433,-2.3724,-2.3325,-2.3727,-2.2846,-2.204,-2.1629,-2.1008,-2.0266,-1.9408,-1.9341,-1.9341,-1.9341,-1.9341,-1.9341,-1.9301,-1.9301,-1.9301,-1.9301,-1.9975,-2.0589,-2.1191,-2.0872,-2.11,-1.9045,-1.9525,-2.0108,-2.147,-2.182,-2.2114,-2.2878,-2.2987,-2.3188,-2.4053,-2.3785,-2.3456,-2.3349,-2.3202,-2.2957,-2.2711,-2.293,-2.3046,-2.2896,-2.2996,-2.3147,-2.3147,-2.3347,-2.3546,-2.3546,-2.3954,-2.4202,-2.4202,-2.4102,-2.4053,-2.4053,-2.4003,-2.3954,-2.3954,-2.3954,-2.3854,-2.3655,-2.3596,-2.3347,-2.2996,-2.2896,-2.2946,-2.3147,-2.3488,-2.3529,-2.3379,-2.3379,-2.3279,-2.3079,-2.2745,-2.2594,-2.2594,-2.2594,-2.2594,-2.2594,-2.2594,-2.3029,-2.3692,-2.4186,-2.3878,-2.3187,-2.3103,-2.2554,-2.1784,-2.1078,-2.0862,-2.0988,-2.1516,-2.1587,-2.1578,-2.2129,-2.234,-2.234,-2.1739,-2.1828,-2.1917,-2.1257,-2.1078,-2.1123,-2.1526,-2.1615,-2.1784,-2.2306,-2.2658,-2.2702,-2.2208,-2.2482,-2.2668,-2.2403,-2.1982,-2.1676,-2.1546,-2.1779,-2.161,-2.08,-2.0539,-2.0074,-1.9369,-1.9301,-1.9301,-1.9301,-1.9301,-1.9301,-1.9301,-1.8727,-1.8447,-1.8447,-1.8085,-1.8345,-1.9127,-1.9213,-1.9606,-1.8335,-1.8649,-1.9137,-2.0542,-2.0885,-2.1089,-2.1759,-2.1912,-2.2165,-2.2878,-2.2565,-2.21,-2.2002,-2.2207,-2.2212,-2.179,-2.2386,-2.2845,-2.2637,-2.2687,-2.2789,-2.2979,-2.3147,-2.3297,-2.3397,-2.3805,-2.4053,-2.4053,-2.4053,-2.4102,-2.4202,-2.4202,-2.4202,-2.4202,-2.4202,-2.4102,-2.3954,-2.3854,-2.3596,-2.3147,-2.3147,-2.3247,-2.3397,-2.3397,-2.3297,-2.3147,-2.3147,-2.3046,-2.2896,-2.2795,-2.2745,-2.2745,-2.2644,-2.2594,-2.2594,-2.2594,-2.2594,-2.2695,-2.332,-2.3041,-2.2384,-2.2431,-2.1901,-2.112,-2.0281,-2.0019,-2.0155,-2.0682,-2.0709,-2.0754,-2.1248,-2.1561,-2.1507,-2.0772,-2.0907,-2.1033,-2.0428,-2.0201,-2.0292,-2.0781,-2.0871,-2.0997,-2.1427,-2.1606,-2.1561,-2.1338,-2.1051,-2.0863,-2.0917,-2.0791,-2.0622,-2.0377,-2.0676,-2.0551,-1.9725,-1.9454,-1.9041,-1.8425,-1.8367,-1.8367,-1.8367,-1.8367,-1.8367,-1.8367,-1.7836,-1.7553,-1.7545,-1.6976,-1.7223,-1.8224,-1.8043,-1.8431,-1.829,-1.8716,-1.9051,-2.0389,-2.0731,-2.0731,-2.0783,-2.0834,-2.0826,-2.0861,-2.0626,-2.0271,-2.0014,-2.0917,-2.1457,-2.0822,-2.1836,-2.2748,-2.2748,-2.2495,-2.2536,-2.2953,-2.2996,-2.3097,-2.3347,-2.3596,-2.3755,-2.3755,-2.3805,-2.3954,-2.4202,-2.4202,-2.4202,-2.4202,-2.4152,-2.4152,-2.4202,-2.3954,-2.3696,-2.3447,-2.3456,-2.3456,-2.3447,-2.3447,-2.3447,-2.3397,-2.3397,-2.3397,-2.3397,-2.3147,-2.2996,-2.2996,-2.2745,-2.2644,-2.2594,-2.2594,-2.2594,-2.2594,-2.2594,-2.2154,-2.1592,-2.1462,-2.1031,-2.05,-2.0383,-2.0309,-2.0246,-1.9973,-1.9928,-1.9845,-1.9671,-1.9762,-1.9882,-1.9882,-2.011,-2.0292,-2.0292,-2.011,-1.9928,-1.9928,-1.9928,-1.9928,-1.9928,-2.011,-2.0419,-2.1069,-1.9786,-1.9063,-2.0014,-2.0141,-2.0141,-2.0141,-1.9664,-1.9134,-1.8584,-1.793,-1.7321,-1.6787,-1.6706,-1.6698,-1.6698,-1.6698,-1.6698,-1.6698,-1.6657,-1.6617,-1.6617,-1.6576,-1.7181,-1.8302,-1.7355,-1.7586,-1.751,-1.7767,-1.8005,-1.8335,-1.8461,-1.8662,-1.9435,-1.9642,-1.9774,-2.0392,-2.0202,-1.9868,-1.9614,-2.0465,-2.121,-2.1029,-2.2256,-2.3196,-2.3196,-2.3146,-2.3132,-2.3288,-2.3097,-2.3046,-2.3097,-2.2996,-2.2996,-2.3197,-2.3755,-2.4152,-2.4202,-2.4003,-2.3904,-2.3904,-2.3705,-2.3696,-2.3904,-2.3845,-2.3854,-2.4003,-2.3795,-2.3805,-2.4003,-2.4003,-2.3904,-2.3696,-2.3696,-2.3596,-2.3397,-2.3347,-2.3297,-2.3297,-2.3197,-2.3046,-2.2896,-2.2896,-2.2745,-2.2594,-2.2594,-2.2304,-2.188,-2.1876,-2.1357,-2.0802,-2.0754,-2.0523,-2.0292,-2.0201,-2.0065,-1.9891,-1.9845,-1.9845,-1.9882,-1.9882,-2.011,-2.0292,-2.0292,-2.0246,-2.0201,-2.0201,-2.0201,-2.0201,-2.0201,-1.9654,-1.9234,-1.9409,-1.8434,-1.8056,-1.9018,-1.9155,-1.9155,-1.9155,-1.9657,-1.9726,-1.915,-1.8558,-1.7981,-1.7329,-1.6924,-1.6698,-1.6698,-1.6698,-1.6698,-1.6698,-1.6041,-1.5718,-1.5718,-1.5068,-1.522,-1.6124,-1.605,-1.6538,-1.7353,-1.7514,-1.7582,-1.7582,-1.7582,-1.7759,-1.8188,-1.8309,-1.8423,-1.8706,-1.8474,-1.8241,-1.8056,-1.9068,-2.0031,-2.0301,-2.1676,-2.2932,-2.3386,-2.3336,-2.335,-2.3529,-2.3347,-2.3197,-2.3347,-2.3197,-2.3197,-2.3347,-2.3546,-2.3805,-2.4003,-2.3904,-2.3845,-2.3954,-2.3854,-2.3755,-2.3805,-2.3904,-2.4003,-2.4003,-2.4003,-2.4053,-2.4202,-2.4202,-2.4102,-2.4003,-2.4003,-2.3895,-2.3755,-2.3596,-2.3596,-2.3546,-2.3456,-2.3297,-2.3197,-2.3197,-2.3097,-2.2946,-2.2795,-2.2607,-2.2408,-2.2105,-2.1713,-2.1311,-2.0985,-2.072,-2.0514,-2.0343,-2.0201,-2.0065,-1.9928,-1.9973,-2.0065,-1.9936,-2.011,-2.0292,-2.0292,-2.0292,-2.0292,-2.0292,-2.0292,-2.0292,-2.0292,-1.9471,-1.8781,-1.8781,-1.7939,-1.7505,-1.8056,-1.8149,-1.8149,-1.8149,-1.8603,-1.869,-1.8131,-1.7793,-1.7291,-1.6548,-1.6209,-1.5993,-1.5842,-1.5752,-1.567,-1.567,-1.5103,-1.4824,-1.4824,-1.4584,-1.4806,-1.5479,-1.5849,-1.6454,-1.7515,-1.7582,-1.7582,-1.7582,-1.7582,-1.7508,-1.7266,-1.7199,-1.7105,-1.672,-1.6446,-1.6308,-1.6219,-1.7407,-1.8589,-1.924,-2.0825,-2.2351,-2.3367,-2.3389,-2.3497,-2.389,-2.3686,-2.3609,-2.3805,-2.3755,-2.3755,-2.3755,-2.3297,-2.3197,-2.3705,-2.3696,-2.3805,-2.4053,-2.4102,-2.4053,-2.3805,-2.4053,-2.4102,-2.3854,-2.4102,-2.4202,-2.4202,-2.4202,-2.4202,-2.4202,-2.4202,-2.4202,-2.4202,-2.3954,-2.3845,-2.3854,-2.3596,-2.3497,-2.3447,-2.3447,-2.3447,-2.3356,-2.3147,-2.3046,-2.2944,-2.2275,-2.2038,-2.1876,-2.1225,-2.0994,-2.0874,-2.0531,-2.0446,-2.0392,-2.0171,-2.0254,-2.0392,-2.0163,-2.0263,-2.0446,-2.0446,-2.0403,-2.0352,-2.03,-2.0292,-2.0292,-2.0201,-1.9425,-1.8781,-1.8735,-1.7893,-1.7279,-1.7279,-1.7279,-1.7279,-1.7279,-1.7279,-1.7123,-1.6631,-1.6528,-1.6173,-1.54,-1.5245,-1.5084,-1.4769,-1.4545,-1.444,-1.444,-1.4286,-1.4186,-1.4269,-1.4726,-1.5246,-1.5824,-1.628,-1.6803,-1.7569,-1.7582,-1.7582,-1.7582,-1.7582,-1.7508,-1.7266,-1.7199,-1.7045,-1.646,-1.6306,-1.6199,-1.5952,-1.7259,-1.8498,-1.8847,-2.0871,-2.2697,-2.3471,-2.4146,-2.4542,-2.4615,-2.4412,-2.4125,-2.3832,-2.3596,-2.3456,-2.3456,-2.3197,-2.3147,-2.3447,-2.3247,-2.3147,-2.3197,-2.3646,-2.3854,-2.3805,-2.4053,-2.4202,-2.4152,-2.4202,-2.4202,-2.4202,-2.4202,-2.4202,-2.4202,-2.4202,0.0,-2.4202,-2.4152,-2.4152,-2.4152,-2.4102,-2.3954,-2.3746,-2.3746,-2.3596,-2.3397,-2.3347,-2.3347,-2.3238,-2.2676,-2.2244,-2.197,-2.1841,-2.1576,-2.1302,-2.1234,-2.1216,-2.1216,-2.1169,-2.1169,-2.1216,-2.1169,-2.1169,-2.1216,-2.1216,-2.0985,-2.0686,-2.0352,-2.0292,-2.0201,-1.9783,-1.9188,-1.8689,-1.8272,-1.7707,-1.7279,-1.7279,-1.7279,-1.7279,-1.7279,-1.7279,-1.7257,-1.7159,-1.6742,-1.6457,-1.6297,-1.5622,-1.5175,-1.5126,-1.4824,-1.465,-1.465,-1.4608,-1.474,-1.4997,-1.5088,-1.5585,-1.6375,-1.6478,-1.6803,-1.7582,-1.7582,-1.7582,-1.7582,-1.7582,-1.7468,-1.7021,-1.6921,-1.6754,-1.6166,-1.6046,-1.6046,-1.6059,-1.6848,-1.7789,-1.8651,-2.0594,-2.2311,-2.3193,-2.438,-2.5087,-2.5087,-2.4802,-2.455,-2.435,-2.4031,-2.3755,-2.3596,-2.3506,-2.3447,-2.3596,-2.3596,-2.3596,-2.3596,-2.3755,-2.3746,-2.3596,-2.3705,-2.3696,-2.3596,-2.3854,-2.4003,-2.4003,-2.4152,-2.4202,-2.4202,-2.4202,-2.4202,-2.4202,-2.4202,-2.4202,-2.4202,-2.4202,-2.4102,-2.4003,-2.4003,-2.3954,-2.3805,-2.3646,-2.3605,-2.3546,-2.3147,-2.2774,-2.2492,-2.2253,-2.1965,-2.167,-2.1465,-2.1413,-2.1413,-2.1413,-2.1413,-2.1413,-2.1413,-2.1413,-2.1413,-2.1413,-2.1276,-2.1045,-2.0668,-2.0591,-2.0394,-1.9725,-1.9142,-1.8643,-1.8179,-1.766,-1.7279,-1.7279,-1.7279,-1.7279,-1.7279,-1.7279,-1.7279,-1.7279,-1.7054,-1.6856,-1.6735,-1.6341,-1.6007,-1.5842,-1.5561,-1.5397,-1.5397,-1.526,-1.5294,-1.5448,-1.5742,-1.6071,-1.6507,-1.6803,-1.7047,-1.7562,-1.7582,-1.7582,-1.7582,-1.7582,-1.7428,-1.684,-1.6707,-1.654,-1.5904,-1.5784,-1.5919,-1.6219,-1.6513,-1.7116,-1.8339,-1.9946,-2.1466,-2.281,-2.4149,-2.5181,-2.5482,-2.5142,-2.4876,-2.4794,-2.445,-2.4102,-2.3904,-2.3904,-2.3854,-2.3705,-2.3954,-2.4102,-2.4102,-2.3954,-2.3805,-2.3546,-2.3546,-2.3456,-2.3247,-2.3655,-2.3845,-2.3895,-2.4053,-2.4102,-2.4102,-2.4202,-2.4152,-2.4102,-2.4202,-2.4202,-2.4202,-2.4202,-2.4202,-2.4202,-2.4202,-2.4202,-2.4152,-2.3954,-2.3904,-2.3845,-2.3646,-2.3347,-2.3044,-2.2696,-2.2461,-2.2195,-2.1836,-2.175,-2.175,-2.1653,-2.1653,-2.1653,-2.1653,-2.1653,-2.1627,-2.155,-2.1533,-2.143,-2.1062,-2.0879,-2.0492,-1.9673,-1.9052,-1.8504,-1.7986,-1.7567,-1.7279,-1.7279,-1.7279,-1.7279,-1.7279,-1.7279,-1.7279,-1.7279,-1.7279,-1.7223,-1.702,-1.6939,-1.6695,-1.6165,-1.5871,-1.5658,-1.5435,-1.525,-1.5328,-1.5621,-1.6053,-1.6391,-1.6699,-1.7123,-1.7185,-1.7508,-1.7582,-1.7582,-1.7582,-1.7582,-1.7428,-1.684,-1.6707,-1.654,-1.5904,-1.5784,-1.5919,-1.6219,-1.6513,-1.6938,-1.7605,-1.867,-2.0159,-2.2274,-2.3285,-2.4404,-2.5804,-2.5607,-2.5179,-2.4812,-2.445,-2.4202,-2.4152,-2.4152,-2.3954,-2.3447,-2.3696,-2.3854,-2.3854,-2.4053,-2.4152,-2.4152,-2.4152,-2.4102,-2.4102,-2.3895,-2.3954,-2.4152,-2.3954,-2.3854,-2.3845,-2.4102,-2.4053,0.0,-2.4102,-2.4202,-2.4202,-2.4202,-2.4202,-2.4202,-2.4202,-2.4202,-2.4202,-2.4152,-2.4152,-2.4152,-2.4152,-2.3805,-2.3347,-2.3311,-2.3302,-2.3194,-2.295,-2.2841,-2.2791,-2.2541,-2.2491,-2.2491,-2.2491,-2.2491,-2.2405,-2.2013,-2.1944,-2.1824,-2.143,-2.071,-1.9989,-1.9532,-1.8707,-1.7986,-1.7466,-1.7326,-1.7279,-1.7279,-1.7279,-1.7279,-1.7279,-1.7279,-1.7279,-1.7279,-1.7279,-1.7271,-1.7235,-1.7011,-1.6464,-1.5455,-1.5102,-1.4462,-1.3562,-1.351,-1.4138,-1.5363,-1.539,-1.6061,-1.7242,-1.7271,-1.6803,-1.7554,-1.7582,-1.7582,-1.7582,-1.7507,-1.7266,-1.68,-1.6573,-1.6326,-1.5912,-1.5784,-1.5972,-1.6446,-1.6627,-1.6901,-1.7488,-1.8713,-1.9849,-2.0726,-2.2107,-2.3216,-2.38,-2.3541,-2.3527,-2.4026,-2.2929,-2.2467,-2.3138,-2.3795,-2.4102,-2.3895,-2.4003,-2.4053,-2.4053,-2.4003,-2.3954,-2.3954,-2.3805,-2.3705,-2.3705,-2.3746,-2.3854,-2.3954,-2.4003,-2.3954,-2.3805,-2.3895,-2.3805,0.0,-2.3854,-2.3854,-2.3746,-2.4053,-2.4102,-2.4003,-2.4152,-2.4202,-2.4202,-2.4202,-2.4202,-2.4202,-2.4202,-2.4053,-2.3845,-2.3705,-2.3555,-2.3397,-2.3247,-2.3097,-2.2996,-2.3046,-2.2946,-2.2846,-2.2846,-2.2695,-2.256,-2.2414,-2.2071,-2.1703,-2.1327,-2.0696,-1.9925,-1.9082,-1.8618,-1.8135,-1.7402,-1.7279,-1.7084,-1.6466,-1.6419,-1.6183,-1.5555,-1.656,-1.7279,-1.7279,-1.6904,-1.6615,-1.6615,-1.6128,-1.5638,-1.5209,-1.5025,-1.4725,-1.4344,-1.4298,-1.4528,-1.507,-1.507,-1.5322,-1.5878,-1.5878,-1.5633,-1.7375,-1.7515,-1.7582,-1.7582,-1.742,-1.7125,-1.6774,-1.648,-1.6186,-1.5892,-1.5784,-1.5985,-1.6486,-1.6647,-1.6867,-1.7427,-1.8422,-1.9276,-1.9735,-2.0902,-2.1845,-2.2338,-2.2027,-2.2118,-2.2986,-2.1856,-2.1407,-2.2434,-2.3238,-2.3845,-2.4202,-2.4202,-2.4202,-2.4202,-2.4003,-2.3904,-2.3904,-2.3746,-2.3646,-2.3646,-2.3755,-2.3854,-2.3904,-2.4053,-2.4003,-2.3805,-2.3805,-2.3696,0.0,-2.3705,-2.3755,-2.3655,-2.3954,-2.3954,-2.3795,-2.3904,-2.4003,-2.4102,-2.4102,-2.4152,-2.4202,-2.4202,-2.3954,-2.3646,-2.3497,-2.3288,-2.3147,-2.3046,-2.2837,-2.2745,-2.3247,-2.3247,-2.2996,-2.2577,-2.2325,-2.2072,-2.1599,-2.114,-2.0711,-2.0299,-1.9663,-1.895,-1.8047,-1.7635,-1.7193,-1.6586,-1.6427,-1.6177,-1.546,-1.5365,-1.508,-1.4364,-1.5561,-1.6454,-1.6504,-1.606,-1.5873,-1.5921,-1.5409,-1.4986,-1.4745,-1.4607,-1.4423,-1.4129,-1.4044,-1.418,-1.448,-1.448,-1.463,-1.4978,-1.4978,-1.4772,-1.7125,-1.7414,-1.7582,-1.7582,-1.742,-1.7125,-1.6774,-1.648,-1.6186,-1.5892,-1.5784,-1.5919,-1.6219,-1.6513,-1.6807,-1.7159,-1.7447,-1.8151,-1.9599,-1.981,-2.0415,-2.1894,-2.1722,-2.1634,-2.187,-2.1539,-2.1614,-2.2451,-2.2526,-2.3038,-2.4152,-2.4202,-2.4202,-2.4202,-2.4202,-2.4202,-2.4202,-2.4202,-2.4202,-2.4202,-2.3954,-2.3954,-2.4202,-2.3904,-2.3805,-2.3805,-2.3805,-2.3805,0.0,-2.3805,-2.3954,-2.4152,-2.3904,-2.3805,-2.3755,-2.3506,-2.3596,-2.3805,-2.3805,-2.4003,-2.4202,-2.4202,-2.3438,-2.2526,-2.2526,-2.2526,-2.2476,-2.2182,-2.1928,-2.1979,-2.3097,-2.3397,-2.3038,-2.165,-2.1336,-2.0869,-1.9206,-1.8842,-1.8627,-1.8046,-1.723,-1.6562,-1.6292,-1.5356,-1.4629,-1.4623,-1.4443,-1.4316,-1.4316,-1.4316,-1.4316,-1.4316,-1.4316,-1.4425,-1.4599,-1.4807,-1.5052,-1.5311,-1.5121,-1.4684,-1.3954,-1.3653,-1.3039,-1.2029,-1.2034,-1.2511,-1.3516,-1.3516,-1.4046,-1.5112,-1.5112,-1.4479,-1.6767,-1.6914,-1.6981,-1.6981,-1.676,-1.6576,-1.6433,-1.6179,-1.5945,-1.5798,-1.5784,-1.5919,-1.6219,-1.6513,-1.68,-1.7152,-1.7447,-1.7767,-1.8225,-1.8657,-1.907,-1.9559,-2.0167,-2.0204,-1.9301,-2.0309,-2.079,-2.0261,-2.165,-2.2677,-2.3038,-2.3795,-2.4202,-2.4202,-2.4202,-2.4202,-2.4202,-2.4202,-2.4202,-2.4202,-2.4102,-2.4102,-2.4202,-2.4102,-2.3954,-2.3805,-2.3805,-2.3696,-2.3546,-2.3705,-2.3297,-2.2535,-2.2787,-2.2367,-2.1658,-2.2476,-2.2837,-2.3038,-2.3795,-2.4152,-2.4202,-2.4202,-2.3438,-2.2476,-2.2476,-2.2013,-2.1353,-2.1097,-2.1097,-2.1353,-2.2274,-2.1971,-2.1505,-2.1759,-2.1148,-2.0225,-1.928,-1.8805,-1.8328,-1.7745,-1.6944,-1.6304,-1.6006,-1.5472,-1.5038,-1.4683,-1.4557,-1.4187,-1.3329,-1.321,-1.292,-1.2252,-1.2299,-1.2947,-1.4262,-1.4057,-1.4008,-1.4319,-1.3903,-1.3605,-1.3616,-1.3332,-1.2986,-1.2688,-1.2486,-1.2582,-1.288,-1.288,-1.3161,-1.3674,-1.3674,-1.3552,-1.6466,-1.662,-1.6707,-1.6707,-1.6486,-1.6321,-1.6321,-1.6046,-1.5784,-1.5784,-1.5784,-1.5838,-1.6072,-1.6433,-1.6767,-1.7005,-1.7321,-1.7622,-1.7742,-1.8083,-1.8323,-1.8323,-1.8899,-1.893,-1.795,-1.9055,-1.9628,-1.9235,-2.0467,-2.1446,-2.1861,-2.2568,-2.2929,-2.2929,-2.3746,-2.4202,-2.4202,-2.4202,-2.4202,-2.4202,-2.4202,-2.4202,-2.4202,-2.4202,-2.4102,-2.3954,-2.3854,-2.3755,0.0,-2.3297,-2.2686,-2.1979,-2.1818,-2.1251,-2.0585,-2.1302,-2.1658,-2.1912,-2.3029,-2.3238,-2.3029,-2.3438,-2.2518,-2.1183,-2.0775,-2.0467,-2.021,-2.0063,-2.0115,-2.0467,-2.1404,-2.1148,-2.0688,-2.0834,-2.0225,-1.9294,-1.808,-1.7555,-1.7081,-1.6227,-1.5654,-1.5239,-1.4913,-1.4646,-1.4372,-1.4067,-1.3763,-1.3292,-1.2501,-1.226,-1.1868,-1.1292,-1.1316,-1.188,-1.3033,-1.294,-1.2936,-1.3294,-1.3027,-1.3008,-1.3321,-1.327,-1.3213,-1.3213,-1.2919,-1.2771,-1.2771,-1.2688,-1.2811,-1.3034,-1.3013,-1.313,0.0,-1.644,-1.6647,-1.6647,-1.644,-1.6239,-1.6239,-1.6025,0.0,-1.5784,-1.5784,-1.5784,-1.5784,-1.6313,-1.6707,-1.6707,-1.7201,-1.7689,-1.7949,-1.8009,-1.8015,-1.7995,-1.7995,-1.7869,-1.7609,-1.7842,-1.8257,-1.9042,-1.9176,-1.9642,-2.0723,-2.0885,-2.0885,-2.0885,-2.287,-2.3994,-2.4102,-2.4102,-2.4102,-2.4202,-2.4202,-2.4202,-2.4202,-2.4102,-2.4102,0.0,-2.3746,-2.3795,-2.3954,-2.2577,-2.2123,-2.2114,-2.0893,-2.038,-2.0277,-2.0078,-2.0174,-2.0585,-2.1666,-2.1505,-2.1038,-2.1962,-2.0877,-1.902,-1.7943,-1.8304,-1.9072,-1.9072,-1.9072,-1.9332,-2.0467,-2.0723,-2.0364,-1.9131,-1.8774,-1.814,-1.5986,-1.5506,-1.519,-1.3964,-1.3699,-1.3645,-1.3369,-1.3138,-1.3044,-1.3024,-1.2422,-1.1957,-1.1927,-1.1543,-1.1262,-1.1247,-1.1247,-1.1247,-1.1247,-1.1567,-1.1902,-1.2267,-1.2483,-1.2756,-1.309,-1.3332,-1.3486,-1.3502,-1.3254,-1.313,-1.313,-1.2899,-1.2904,-1.3136,-1.3041,-1.3164,-1.5912,0.0,-1.6032,-1.6032,-1.5985,-1.5932,0.0,-1.5879,-1.5784,-1.5784,-1.5784,-1.5784,-1.5784,-1.6313,-1.6707,-1.6707,-1.7201,-1.7689,-1.7949,-1.8243,-1.8303,-1.8015,-1.7995,-1.7869,-1.7609,-1.7649,-1.7761,-1.795,-1.8767,-1.9332,-1.9591,-2.0423,-2.0885,-2.0885,-2.1395,-2.2064,-2.2887,-2.2878,-2.3338,-2.4202,-2.4202,-2.4202,-2.4152,-2.3288,-2.3388,-2.4093,-2.2367,-2.2064,-2.2828,-2.1658,-2.0731,-1.9952,-1.9642,-1.8975,-1.8356,-1.9131,-1.9435,-1.9642,-2.0783,-2.1038,-2.0783,-2.0158,-1.9642,-1.902,-1.7943,-1.7786,-1.7996,-1.7996,-1.7996,-1.8251,-1.9332,-1.8975,-1.8513,-1.8975,-1.8461,-1.7523,-1.6099,-1.5832,-1.5464,-1.4299,-1.3862,-1.3699,-1.3645,-1.3383,-1.3173,-1.2997,-1.2833,-1.2595,-1.2264,-1.2129,-1.1979,-1.1849,-1.1834,-1.1834,-1.1834,-1.1635,-1.1687,-1.1996,-1.225,-1.2672,-1.331,-1.3257,-1.3349,-1.3739,-1.3507,-1.3389,-1.3389,-1.3147,-1.3152,-1.3389,-1.3204,-1.3314,-1.5784,-1.5784,-1.5784,-1.5784,-1.5784,-1.5784,-1.5784,-1.5784,-1.5784,-1.5784,-1.5784,-1.5784,-1.5784,-1.642,-1.6867,-1.6727,-1.7435,-1.8056,-1.8223,-1.827,-1.8175,-1.8009,-1.7869,-1.7769,-1.7602,-1.7582,-1.7582,-1.7582,-1.8146,-1.8454,-1.8454,-1.9027,-1.9391,-1.9391,-1.9391,-2.0158,-2.1759,-2.1759,-2.2064,-2.2669,-2.2669,-2.2669,-2.2669,-2.2064,-2.2114,-2.2619,-2.1446,-2.1242,-2.1658,-2.057,-1.9746,-1.9176,-1.8662,-1.8101,-1.7687,-1.8251,-1.8454,-1.861,-1.9746,-2.0107,-1.9952,-1.8819,-1.8454,-1.8356,-1.7786,-1.7582,-1.7582,-1.7582,-1.7582,-1.7733,-1.8304,-1.8048,-1.774,-1.8356,-1.7832,-1.6942,-1.6099,-1.5678,-1.5256,-1.4353,-1.4029,-1.3916,-1.3916,-1.3807,-1.3658,-1.3581,-1.336,-1.3095,-1.2859,-1.2496,-1.2279,-1.2152,-1.2041,-1.198,-1.198,-1.1845,-1.1771,-1.1915,-1.2269,-1.2644,-1.307,-1.3224,-1.338,-1.3658,-1.3427,-1.3362,-1.348,-1.3227,-1.3287,-1.3631,-1.3389,-1.347,-1.5784,-1.5865,-1.5838,-1.5791,-1.5784,-1.5784,-1.5784,-1.5784,-1.5784,-1.5784,-1.5784,-1.5798,-1.5885,-1.6547,-1.7065,-1.6807,-1.7742,-1.849,-1.849,-1.827,-1.8029,-1.7935,-1.7742,-1.7562,-1.7522,-1.7555,-1.7582,-1.7582,-1.7582,-1.7582,-1.7582,-1.7582,-1.7582,-1.7582,-1.7582,-1.8513,-2.0372,-2.057,-2.0731,-2.0885,-2.0885,-2.0885,-2.0885,-2.0723,-2.0731,-2.0885,-2.0526,0.0,-2.057,-1.9435,-1.8975,-1.8871,-1.7943,-1.7582,-1.7582,-1.7582,-1.7582,-1.7733,-1.8662,-1.8975,-1.8819,-1.7891,-1.7582,-1.7582,-1.7582,-1.7582,-1.7582,-1.7582,-1.7582,-1.7582,-1.7582,-1.7582,-1.7582,-1.7582,-1.7153,-1.6577,-1.5998,-1.541,-1.4826,-1.4299,-1.4196,-1.4196,-1.4196,-1.4196,-1.4196,-1.4196,-1.38,-1.3493,-1.3451,-1.291,-1.2496,-1.243,-1.229,-1.2163,-1.2127,-1.2127,-1.2127,-1.2127,-1.24,-1.2618,-1.2699,-1.3244,-1.348,-1.348,-1.327,-1.3265,-1.348,-1.3227,-1.3313,-1.3706,-1.3475,-1.3491,-1.5784,-1.6012,-1.6146,-1.5892,-1.5784,-1.5784,-1.5784,-1.5784,-1.5784,-1.5784,-1.5784,-1.5905,-1.6159,-1.652,-1.684,-1.7099,-1.7876,-1.849,-1.849,-1.845,-1.823,-1.7716,-1.7609,-1.7482,-1.7293,-1.7494,-1.7582,-1.7582,-1.7582,-1.7582,-1.7582,-1.7582,-1.7582,-1.7582,-1.7582,-1.7733,-1.8101,-1.9027,-1.9952,-2.0885,-2.0885,-2.0885,-2.0885,-1.9901,-2.0004,-2.0783,0.0,-1.861,-1.9383,-1.8304,-1.7838,-1.7838,-1.7687,-1.7582,-1.7582,-1.7582,-1.7582,-1.7635,-1.7793,-1.7838,-1.7838,-1.7635,-1.7582,-1.7582,-1.7582,-1.7582,-1.7582,-1.7582,-1.7582,-1.7582,-1.7582,-1.7582,-1.7582,-1.7582,-1.7153,-1.6577,-1.5998,-1.541,-1.4826,-1.4299,-1.4196,-1.4196,-1.4196,-1.4196,-1.4196,-1.4196,-1.4105,-1.4008,-1.3794,-1.365,-1.3401,-1.3002,-1.2977,-1.2876,-1.2683,-1.2667,-1.2667,-1.2667,-1.2304,-1.2309,-1.2694,-1.3244,-1.348,-1.348,-1.3443,-1.3443,-1.348,-1.3227,-1.3141,-1.3206,-1.298,-1.3045,-1.5784,-1.5925,-1.6039,-1.6059,-1.6186,-1.6306,-1.6306,-1.6306,-1.6259,-1.6099,-1.6072,-1.6112,-1.6246,-1.6774,-1.7382,-1.8009,-1.819,-1.825,-1.825,-1.811,-1.7896,-1.7615,-1.7582,-1.7528,-1.7447,-1.7554,-1.7582,-1.7582,-1.7582,-1.7582,-1.7582,-1.7582,-1.7582,-1.7582,-1.7582,-1.7582,-1.7582,-1.8101,-1.861,-1.9131,-1.9131,-1.9131,-1.9079,-1.8558,-1.861,-1.9079,0.0,-1.7891,-1.8304,-1.7786,-1.7582,-1.7582,-1.7582,-1.7582,-1.7582,-1.7582,-1.7582,-1.7582,-1.7582,-1.7582,-1.7582,-1.7582,-1.7582,-1.7582,-1.7582,-1.7582,-1.7582,-1.7582,-1.7582,-1.7582,-1.7582,-1.7582,-1.7582,-1.7582,-1.6895,-1.6205,-1.5945,-1.5202,-1.4509,-1.4245,-1.4196,-1.4196,-1.4196,-1.4196,-1.4196,-1.4196,-1.4196,-1.4153,-1.4035,-1.3906,-1.3733,-1.3513,-1.3378,-1.3206,-1.2969,-1.2947,-1.2943,-1.2818,-1.257,-1.2515,-1.2768,-1.2979,-1.3147,-1.3276,-1.3157,-1.3267,-1.348,-1.3227,-1.3173,-1.3303,-1.306,-1.3007,-1.5784,-1.5879,-1.5985,-1.6219,-1.6386,-1.654,-1.6673,-1.6653,-1.656,-1.6406,-1.6373,-1.6373,-1.6373,-1.6981,-1.7729,-1.8484,-1.8235,-1.8015,-1.8089,-1.7883,-1.7689,-1.7689,-1.7622,-1.7582,-1.7582,-1.7582,-1.7582,-1.7582,-1.7582,-1.7582,-1.7582,-1.7582,-1.7582,-1.7582,-1.7582,-1.7582,-1.7582,-1.7582,-1.7582,-1.7582,-1.7582,-1.7582,-1.7582,-1.7582,-1.7582,-1.7582,-1.7582,-1.7582,-1.7582,-1.7582,-1.7582,-1.7582,-1.7582,-1.7582,-1.7582,-1.7582,-1.7582,-1.7582,-1.7582,-1.7582,-1.7582,-1.7582,-1.7582,-1.7582,-1.7582,-1.7582,-1.7582,-1.7582,-1.7582,-1.7582,-1.7582,-1.7582,-1.7582,-1.7424,-1.663,-1.5838,-1.5731,-1.488,-1.4196,-1.4196,-1.4196,-1.4196,-1.4196,-1.4196,-1.4196,-1.4196,-1.4196,-1.4196,-1.4196,-1.4029,-1.3884,-1.3825,-1.3663,-1.3432,-1.313,-1.3104,-1.3007,-1.2824,-1.2813,-1.2813,-1.2813,-1.2813,-1.2894,-1.3023,-1.2899,-1.2991,-1.3359,-1.3114,-1.3125,-1.3308,-1.3114,-1.3023,-1.5784,-1.6032,-1.6246,-1.6266,-1.6079,-1.6032,-1.658,-1.65,-1.6373,-1.662,-1.6673,-1.6673,-1.6673,-1.7005,-1.734,-1.7622,-1.7889,-1.8089,-1.8424,-1.8203,-1.7962,-1.7962,-1.7756,-1.7582,-1.7582,-1.7582,-1.7582,-1.7582,-1.7582,-1.7582,-1.7582,-1.7582,-1.7582,-1.7582,-1.7582,-1.7582,-1.7582,-1.7582,-1.7582,-1.7582,-1.7582,-1.7582,-1.7582,-1.7582,-1.7582,-1.7582,-1.7582,-1.7582,-1.7582,-1.7582,-1.7582,-1.7582,-1.7582,-1.7582,-1.7582,-1.7582,-1.7582,-1.7582,-1.7582,-1.7582,-1.7582,-1.7582,-1.7582,-1.7582,-1.7582,-1.7582,-1.7582,-1.7582,-1.7582,-1.7582,-1.7582,-1.7582,-1.7477,-1.6889,-1.6311,-1.5731,-1.5196,-1.4617,-1.4196,-1.4196,-1.4196,-1.4196,-1.4196,-1.4196,-1.4196,-1.4196,-1.4196,-1.4196,-1.4196,-1.418,-1.4078,-1.3846,-1.3803,-1.361,-1.3147,-1.3104,-1.3007,-1.2824,-1.2813,-1.2813,-1.2813,-1.2813,-1.2818,-1.2835,-1.2818,-1.2829,-1.2862,-1.2845,-1.2845,-1.2862,-1.2845,-1.2835,-1.5784,-1.6046,-1.6321,-1.6321,-1.6186,-1.6259,-1.6847,-1.6945,-1.6851,-1.672,-1.6854,-1.7032,-1.7032,-1.7382,-1.7682,-1.7595,-1.7842,-1.7969,-1.7936,-1.7829,-1.7756,-1.7756,-1.7655,-1.7582,-1.7582,-1.7582,-1.7582,-1.7582,-1.7582,-1.7582,-1.7582,-1.7582,-1.7582,-1.7582,-1.7582,-1.7582,-1.7582,-1.7582,-1.7582,-1.7582,-1.7582,-1.7582,-1.7582,-1.7582,-1.7582,-1.7582,-1.7582,-1.7582,-1.7582,-1.7582,-1.7582,-1.7582,-1.7582,-1.7582,-1.7582,-1.7582,-1.7582,-1.7582,-1.7582,-1.7582,-1.7582,-1.7582,-1.7582,-1.7529,-1.7153,-1.7054,-1.6942,-1.663,-1.6524,-1.6683,-1.7424,-1.7582,-1.7477,-1.6836,-1.6311,-1.5731,-1.5148,-1.4563,-1.4196,-1.4196,-1.4196,-1.4196,-1.4196,-1.4196,-1.4196,-1.4196,-1.4196,-1.4196,-1.4196,-1.4196,-1.4159,-1.4062,-1.3911,-1.3744,-1.3566,-1.3421,-1.3233,-1.299,-1.2894,-1.2813,-1.2813,-1.2813,-1.2813,-1.2813,-1.291,-1.3007,-1.3007,-1.3007,-1.3007,-1.3001,-1.2861,-1.2813,-1.5972,-1.6119,-1.6342,-1.6386,-1.6339,-1.6476,-1.7065,-1.7125,-1.7058,-1.6987,-1.7119,-1.7199,-1.7199,-1.7488,-1.7695,-1.7482,-1.7702,-1.7822,-1.7609,-1.7582,-1.7582,-1.7582,-1.7582,-1.7582,-1.7582,-1.7582,-1.7582,-1.7582,-1.7582,-1.7582,-1.7582,-1.7582,-1.7582,-1.7582,-1.7582,-1.7582,-1.7582,-1.7582,-1.7582,-1.7582,-1.7582,-1.7582,-1.7582,-1.7582,-1.7582,-1.7582,-1.7582,-1.7582,-1.7582,-1.7582,-1.7582,-1.7582,-1.7582,-1.7582,-1.7582,-1.7582,-1.7582,-1.7582,-1.7582,-1.7582,-1.7582,-1.7582,-1.7582,-1.7477,-1.6889,-1.6677,-1.6571,-1.6045,-1.5891,-1.6105,-1.6842,-1.7213,-1.71,-1.6365,-1.6045,-1.5678,-1.4934,-1.4455,-1.4196,-1.4196,-1.4196,-1.4196,-1.4196,-1.4196,-1.4196,-1.4196,-1.4196,-1.4196,-1.4196,-1.4196,-1.4196,-1.4196,-1.404,-1.3906,-1.3825,-1.368,-1.3486,-1.3238,-1.3126,-1.297,-1.2818,-1.2813,-1.2813,-1.2813,-1.3001,-1.3098,-1.3098,-1.3195,-1.3249,-1.3195,-1.3104,-1.3007,-1.6321,-1.6321,-1.6395,-1.6627,-1.6486,-1.6482,-1.7065,-1.6921,-1.6881,-1.7462,-1.7407,-1.7199,-1.7199,-1.7206,-1.7206,-1.7199,-1.7447,-1.7582,-1.7582,-1.7582,-1.7582,-1.7582,-1.7582,-1.7582,-1.7582,-1.7582,-1.7582,-1.7582,-1.7582,-1.7582,-1.7582,-1.7582,-1.7582,-1.7582,-1.7582,-1.7582,-1.7582,-1.7582,-1.7582,-1.7582,-1.7582,-1.7582,-1.7582,-1.7582,-1.7582,-1.7582,-1.7582,-1.7582,-1.7582,-1.7582,-1.7582,-1.7582,-1.7582,-1.7582,-1.7582,-1.7582,-1.7582,-1.7582,-1.7582,-1.7582,-1.7582,-1.7582,-1.7582,-1.7477,-1.6889,-1.6677,-1.6577,-1.6045,-1.5891,-1.5891,-1.5891,-1.6258,-1.6418,-1.525,-1.5464,-1.5571,-1.4461,-1.4196,-1.4196,-1.4196,-1.4196,-1.4196,-1.4196,-1.4196,-1.4196,-1.4196,-1.4196,-1.4196,-1.4196,-1.4196,-1.4196,-1.4191,-1.4191,-1.4094,-1.3788,-1.3772,-1.367,-1.3497,-1.3486,-1.3265,-1.2835,-1.2818,-1.2818,-1.2813,-1.3007,-1.3104,-1.3104,-1.3352,-1.3497,-1.3497,-1.3497,-1.3448,-1.5965,-1.6259,-1.6553,-1.6433,-1.6697,-1.6775,-1.6111,-1.6497,-1.7179,-1.7502,-1.7407,-1.7199,-1.7199,-1.7367,-1.744,-1.7233,-1.7447,-1.7582,-1.7582,-1.7582,-1.7582,-1.7582,-1.7582,-1.7582,-1.7582,-1.7582,-1.7582,-1.7582,-1.7582,-1.7582,-1.7582,-1.7582,-1.7582,-1.7582,-1.7582,-1.7582,-1.7582,-1.7582,-1.7582,-1.7582,-1.7582,-1.7582,-1.7582,-1.7582,-1.7582,-1.7582,-1.7582,-1.7582,-1.7582,-1.7582,-1.7483,-1.7331,-1.7536,-1.7483,-1.7331,-1.7529,-1.7582,-1.7582,-1.7582,-1.7582,-1.7582,-1.7582,-1.7582,-1.7424,-1.6418,-1.6152,-1.5939,-1.4993,-1.4724,-1.4724,-1.4724,-1.5095,-1.541,-1.5089,-1.5143,-1.5095,-1.4353,-1.4196,-1.4196,-1.4196,-1.4196,-1.4196,-1.4196,-1.4196,-1.4196,-1.4196,-1.4196,-1.4196,-1.4196,-1.4196,-1.3856,-1.3029,-1.2916,-1.2561,-1.1684,-1.1625,-1.1863,-1.2465,-1.2503,-1.2673,-1.3023,-1.3173,-1.3184,-1.3007,-1.3429,-1.3769,-1.3959,-1.3148,-1.2946,-1.3137,-1.2076,-1.1543,-1.6293,-1.6173,-1.6054,-1.6112,-1.5985,-1.5649,-1.5013,-1.5462,-1.6141,-1.6791,-1.68,-1.684,-1.7269,-1.7514,-1.7522,-1.7407,-1.7468,-1.7582,-1.7582,-1.7582,-1.7582,-1.7582,-1.7582,-1.7582,-1.7582,-1.7582,-1.7582,-1.7582,-1.7582,-1.7582,-1.7582,-1.7582,-1.7582,-1.7582,-1.7582,-1.7582,-1.7582,-1.7582,-1.7582,-1.7582,-1.7582,-1.7582,-1.7582,-1.7582,-1.7582,-1.7582,-1.7582,-1.7582,-1.7582,-1.7582,-1.7483,-1.7378,-1.7529,-1.7483,-1.7378,-1.7529,-1.7582,-1.7582,-1.7582,-1.7687,-1.7747,-1.7635,-1.7687,-1.7536,-1.6258,-1.5891,-1.5678,-1.4515,-1.4196,-1.4196,-1.4196,-1.4461,-1.4671,-1.4671,-1.4826,-1.4826,-1.4299,-1.4196,-1.4196,-1.4196,-1.4196,-1.4196,-1.4196,-1.4196,-1.4196,-1.4196,-1.4196,-1.4196,-1.4196,-1.3802,-1.3197,-1.2472,-1.1982,-1.1463,-1.0828,-1.0722,-1.0982,-1.1603,-1.1654,-1.1967,-1.2713,-1.2766,-1.273,-1.2542,-1.2511,-1.2628,-1.2931,-1.2314,-1.2155,-1.2407,-1.1535,-1.1059,-1.6819,-1.603,-1.5119,-1.5599,-1.4648,-1.3662,-1.3874,-1.3863,-1.4137,-1.5482,-1.5755,-1.6074,-1.7094,-1.7364,-1.7477,-1.7477,-1.7529,-1.7582,-1.7582,-1.7582,-1.7582,-1.7582,-1.7582,-1.7582,-1.7582,-1.7582,-1.7582,-1.7582,-1.7582,-1.7582,-1.7582,-1.7582,-1.7582,-1.7582,-1.7582,-1.7582,-1.7582,-1.7582,-1.7582,-1.7582,-1.7582,-1.7582,-1.7582,-1.7582,-1.7582,-1.7582,-1.7582,-1.7582,-1.7582,-1.7582,-1.7582,-1.7582,-1.7582,-1.7582,-1.7582,-1.7582,-1.7635,-1.7635,-1.7635,-1.7799,-1.8016,-1.774,-1.7852,-1.7753,-1.6365,-1.5939,-1.5678,-1.4509,-1.4191,-1.4245,-1.4196,-1.4191,-1.4245,-1.4196,-1.4563,-1.4773,-1.4299,-1.4196,-1.4196,-1.4196,-1.4196,-1.4196,-1.4196,-1.4196,-1.4196,-1.4196,-1.4099,-1.4061,-1.4061,-1.3019,-1.2251,-1.2142,-1.1211,-1.0564,-1.0502,-1.0514,-1.0576,-1.0839,-1.0851,-1.1224,-1.206,-1.1801,-1.1694,-1.1765,-1.0824,-1.0515,-1.0828,-1.1019,-1.1218,-1.1473,-1.1374,-1.1365,-1.5369,-1.5208,-1.5144,-1.4361,-1.3433,-1.268,-1.2729,-1.2096,-1.1987,-1.4083,-1.4513,-1.4567,-1.4835,-1.5642,-1.6287,-1.6287,-1.7041,-1.7582,-1.7582,-1.7582,-1.7582,-1.7582,-1.7582,-1.7582,-1.7582,-1.7582,-1.7582,-1.7582,-1.7582,-1.7582,-1.7582,-1.7582,-1.7582,-1.7582,-1.7582,-1.7582,-1.7582,-1.7582,-1.7582,-1.7582,-1.7582,-1.7582,-1.7582,-1.7582,-1.7582,-1.7582,-1.7582,-1.7582,-1.7582,-1.7582,-1.7483,-1.7331,-1.7536,-1.7483,-1.7331,-1.7536,-1.7747,-1.7911,-1.7911,-1.8115,-1.8325,-1.8265,-1.8265,-1.8055,-1.6617,-1.6193,-1.5933,-1.4563,-1.4347,-1.445,-1.4245,-1.4347,-1.445,-1.4245,-1.4299,-1.4353,-1.4191,-1.4196,-1.4196,-1.4196,-1.4196,-1.4196,-1.4196,-1.4196,-1.4196,-1.4196,-1.3457,-1.295,-1.295,-1.1958,-1.0968,-1.006,-0.972,-0.9222,-0.8283,-0.8229,-0.864,-0.9589,-0.9647,-1.0133,-1.12,-1.1178,-1.1454,-1.2084,-1.119,-1.0871,-1.119,-1.0455,-1.0229,-1.05,-0.9806,-0.9417,-1.5056,-1.4339,-1.3414,-1.2472,-1.1909,-1.161,-1.161,-1.1122,-1.1017,-1.2254,-1.2901,-1.3437,-1.4024,-1.462,-1.5049,-1.5049,-1.6021,-1.6776,-1.6776,-1.7259,-1.7582,-1.7582,-1.7582,-1.7582,-1.7582,-1.7582,-1.7582,-1.7582,-1.7582,-1.7582,-1.7582,-1.7582,-1.7582,-1.7582,-1.7582,-1.7582,-1.7582,-1.7582,-1.7582,-1.7582,-1.7582,-1.7582,-1.7582,-1.7582,-1.7582,-1.7582,-1.7582,-1.7582,-1.7582,-1.7582,-1.7536,-1.7437,-1.7536,-1.7529,-1.7437,-1.7536,-1.7747,-1.8016,-1.8016,-1.8279,-1.8593,-1.8422,-1.8534,-1.8377,-1.6942,-1.6405,-1.6086,-1.4934,-1.4611,-1.4552,-1.445,-1.4611,-1.4713,-1.4299,-1.4196,-1.4196,-1.4196,-1.4196,-1.4196,-1.4196,-1.4196,-1.4196,-1.4196,-1.4196,-1.4012,-1.3506,-1.2945,-1.2432,-1.1898,-1.0857,-0.9936,-0.9361,-0.8784,-0.8236,-0.7659,-0.7606,-0.7864,-0.8566,-0.8631,-0.913,-1.0226,-0.9766,-0.9953,-1.0767,-0.9774,-0.9379,-0.9634,-0.923,-0.9158,-0.9357,-0.904,-0.8841,-1.4895,-1.3278,-1.133,-1.0824,-1.0692,-1.0692,-1.0692,-1.0692,-1.0692,-1.0692,-1.1446,-1.2413,-1.3329,-1.3652,-1.3814,-1.3814,-1.4835,-1.5589,-1.5589,-1.6399,-1.7094,-1.7259,-1.7312,-1.7364,-1.7582,-1.7582,-1.7582,-1.7582,-1.7582,-1.7582,-1.7582,-1.7582,-1.7582,-1.7582,-1.7582,-1.7582,-1.7582,-1.7582,-1.7582,-1.7582,-1.7582,-1.7582,-1.7582,-1.7582,-1.7582,-1.7582,-1.7582,-1.7582,-1.7582,-1.7582,-1.7582,-1.7582,-1.7582,-1.7582,-1.7582,-1.7582,-1.7747,-1.8016,-1.8069,-1.8443,-1.8817,-1.8534,-1.8593,-1.8548,-1.7054,-1.6465,-1.614,-1.525,-1.4874,-1.4713,-1.4654,-1.4713,-1.4659,-1.4299,-1.4137,-1.4078,-1.4191,-1.4196,-1.4191,-1.4245,-1.4299,-1.4299,-1.4078,-1.4024,-1.3702,-1.2603,-1.2265,-1.1833,-1.0959,-0.986,-0.9132,-0.9132,-0.827,-0.7677,-0.7782,-0.7849,-0.784,-0.7955,-0.7961,-0.8406,-0.9278,-0.8484,-0.8437,-0.9153,-0.8081,-0.7616,-0.7798,-0.8043,-0.8245,-0.8468,-0.8725,-0.8881,-1.3563,-1.1977,-1.0605,-1.0698,-1.0692,-1.0692,-1.0692,-1.0692,-1.0692,-1.0692,-1.0798,-1.0962,-1.1122,-1.1987,-1.263,-1.263,-1.3599,-1.4347,-1.4347,-1.4454,-1.4942,-1.6021,-1.6127,-1.6505,-1.7477,-1.7582,-1.7582,-1.7582,-1.7582,-1.7582,-1.7582,-1.7582,-1.7582,-1.7582,-1.7582,-1.7582,-1.7582,-1.7582,-1.7582,-1.7582,-1.7582,-1.7582,-1.7582,-1.7582,-1.7582,-1.7582,-1.7582,-1.7582,-1.7582,-1.7582,-1.7582,-1.7582,-1.7582,-1.7582,-1.7582,-1.7582,-1.7747,-1.8016,-1.8272,-1.8593,-1.8817,-1.8534,-1.8422,-1.822,-1.6796,-1.6324,-1.6105,-1.525,-1.5202,-1.5261,-1.4713,-1.4218,-1.3948,-1.4132,-1.3797,-1.357,-1.4083,-1.4196,-1.4245,-1.4504,-1.4713,-1.4606,-1.357,-1.3403,-1.3034,-1.1873,-1.0962,-1.028,-1.0134,-0.9178,-0.8512,-0.8512,-0.8396,-0.8288,-0.8306,-0.8309,-0.8246,-0.8071,-0.8375,-0.854,-0.852,-0.8662,-0.8714,-0.8499,-0.7968,-0.7668,-0.7711,-0.7783,-0.801,-0.8219,-0.8434,-0.8657,-1.1808,-1.091,-1.0477,-1.0647,-1.0692,-1.0692,-1.0692,-1.0692,-1.0692,-1.0692,-1.0692,-1.0692,-1.0692,-1.1122,-1.1446,-1.1446,-1.2417,-1.3166,-1.3166,-1.3706,-1.4298,-1.4835,-1.5482,-1.6074,-1.6611,-1.7206,-1.7582,-1.7582,-1.7582,-1.7582,-1.7582,-1.7582,-1.7582,-1.7582,-1.7582,-1.7582,-1.7582,-1.7582,-1.7582,-1.7582,-1.7582,-1.7582,-1.7582,-1.7582,-1.7582,-1.7582,-1.7582,-1.7582,-1.7582,-1.7582,-1.7582,-1.7582,-1.7582,-1.7582,-1.7582,-1.7582,-1.7747,-1.8016,-1.8325,-1.8593,-1.8817,-1.8534,-1.8422,-1.816,-1.6895,-1.6424,-1.6164,-1.5624,-1.5363,-1.5148,-1.4874,-1.4272,-1.3678,-1.3532,-1.3521,-1.3403,-1.2876,-1.3748,-1.4504,-1.3948,-1.3943,-1.3678,-1.254,-1.2377,-1.1978,-1.0873,-1.0283,-0.9801,-0.9208,-0.8704,-0.8399,-0.8399,-0.8399,-0.8399,-0.8399,-0.8399,-0.8362,-0.8304,-0.8422,-0.8479,-0.8495,-0.8678,-0.8715,-0.8671,-0.8314,-0.795,-0.7701,-0.7884,-0.8046,-0.8193,-0.8467,-0.8736,-1.0919,-1.0398,-1.0347,-1.057,-1.0514,-1.0471,-1.0625,-1.0582,-1.0527,-1.0692,-1.0692,-1.0692,-1.0692,-1.0692,-1.0692,-1.0692,-1.1391,-1.1987,-1.1987,-1.2684,-1.3329,-1.3652,-1.446,-1.5215,-1.5861,-1.6664,-1.7312,-1.7582,-1.7582,-1.7582,-1.7582,-1.7582,-1.7582,-1.7582,-1.7582,-1.7582,-1.7582,-1.7582,-1.7582,-1.7582,-1.7582,-1.7582,-1.7582,-1.7582,-1.7582,-1.7582,-1.7582,-1.7582,-1.7582,-1.7582,-1.7582,-1.7582,-1.7582,-1.7582,-1.7582,-1.7424,-1.7477,-1.7694,-1.7845,-1.8055,-1.8279,-1.7957,-1.7898,-1.7786,-1.6783,-1.6371,-1.6164,-1.5945,-1.5357,-1.4767,-1.4708,-1.3835,-1.2856,-1.2654,-1.2758,-1.2748,-1.2159,-1.3192,-1.4002,-1.3127,-1.3019,-1.2694,-1.1559,-1.1384,-1.1074,-0.9976,-0.9825,-0.9532,-0.8733,-0.8548,-0.8526,-0.8526,-0.8526,-0.8526,-0.8526,-0.8526,-0.8541,-0.846,-0.8576,-0.8635,-0.8651,-0.8775,-0.8825,-0.8871,-0.8666,-0.8409,-0.7987,-0.8096,-0.8263,-0.8355,-0.8568,-0.8759,-1.1594,-1.0661,-0.9998,-1.0306,-1.0011,-0.9777,-1.0542,-1.0253,-1.0033,-1.0582,-1.0692,-1.0692,-1.0692,-1.0692,-1.0692,-1.0692,-1.0747,-1.0798,-1.0798,-1.0852,-1.1286,-1.2363,-1.2521,-1.3437,-1.5695,-1.5968,-1.6452,-1.7529,-1.7582,-1.7582,-1.7582,-1.7582,-1.7582,-1.7582,-1.7582,-1.7582,-1.7582,-1.7582,-1.7582,-1.7582,-1.7582,-1.7582,-1.7582,-1.7582,-1.7582,-1.7582,-1.7582,-1.7582,-1.7582,-1.7582,-1.7582,-1.7582,-1.7582,-1.7582,-1.7529,-1.6942,-1.6783,-1.673,-1.6511,-1.6564,-1.6789,-1.6483,-1.6583,-1.6677,-1.6099,-1.5945,-1.5945,-1.5891,-1.5083,-1.4164,-1.3835,-1.2309,-1.1004,-1.1564,-1.1227,-1.1269,-1.2856,-1.2635,-1.2146,-1.2091,-1.2254,-1.2091,-1.0945,-1.0873,-1.0542,-0.9433,-0.9267,-0.921,-0.9164,-0.8989,-0.885,-0.885,-0.885,-0.885,-0.885,-0.885,-0.8798,-0.8704,-0.8994,-0.9064,-0.8865,-0.9162,-0.922,-0.8881,-0.9009,-0.9017,-0.8845,-0.852,-0.8564,-0.8842,-0.8626,-0.866,-1.158,-1.069,-0.9945,-1.0197,-0.9861,-0.9578,-0.9854,-0.9567,-0.9368,-0.9761,-0.9871,-1.0036,-1.0582,-1.0692,-1.0692,-1.0692,-1.0692,-1.0692,-1.0692,-1.0692,-1.0857,-1.1286,-1.1932,-1.3009,-1.4567,-1.5429,-1.6399,-1.7529,-1.7582,-1.7582,-1.7582,-1.7582,-1.7582,-1.7582,-1.7582,-1.7582,-1.7582,-1.7582,-1.7582,-1.7582,-1.7582,-1.7582,-1.7582,-1.7582,-1.7582,-1.7582,-1.7582,-1.7582,-1.7582,-1.7582,-1.7582,-1.7582,-1.7582,-1.7582,-1.7529,-1.6942,-1.6677,-1.6677,-1.6405,-1.6458,-1.6677,-1.6377,-1.6477,-1.6624,-1.6045,-1.5891,-1.5891,-1.5891,-1.4917,-1.3835,-1.3727,-1.2041,-1.0464,-1.0899,-1.0245,-0.9915,-1.1328,-1.1982,-1.2037,-1.1328,-1.1214,-1.0945,-0.9754,-0.9584,-0.9545,-0.9253,-0.921,-0.9245,-0.9344,-0.9256,-0.9184,-0.9086,-0.9076,-0.9039,-0.8892,-0.8885,-0.8905,-0.8847,-0.8959,-0.9026,-0.9114,-0.9235,-0.9283,-0.9204,-0.9257,-0.9117,-0.8723,-0.8711,-0.8841,-0.9042,-0.8852,-0.8884,-1.1934,-1.1034,-1.0289,-1.0125,-0.9739,-0.9429,-0.9754,-0.9432,-0.9246,-0.975,-0.9816,-1.0036,-1.0692,-1.0857,-1.0857,-1.0966,-1.0911,-1.0857,-1.0857,-1.0747,-1.0692,-1.0692,-1.1391,-1.2254,-1.3437,-1.4245,-1.5375,-1.6935,-1.7041,-1.7206,-1.7582,-1.7582,-1.7582,-1.7582,-1.7582,-1.7582,-1.7582,-1.7582,-1.7582,-1.7582,-1.7582,-1.7582,-1.7582,-1.7582,-1.7582,-1.7582,-1.7582,-1.7582,-1.7582,-1.7582,-1.7582,-1.7582,-1.7582,-1.7582,-1.7529,-1.673,-1.6418,-1.6365,-1.5773,-1.5832,-1.6099,-1.5897,-1.6105,-1.6365,-1.5891,-1.5571,-1.5298,-1.5185,-1.3992,-1.2689,-1.2689,-1.1227,-0.9812,-1.0025,-0.9482,-0.9099,-0.9915,-1.0676,-1.1004,-1.0241,-1.0076,-0.986,-0.9047,-0.8977,-0.9042,-0.9193,-0.9255,-0.9323,-0.9367,-0.9381,-0.9344,-0.9299,-0.9286,-0.9171,-0.9022,-0.9011,-0.9011,-0.9011,-0.8908,-0.9001,-0.9204,-0.9163,-0.913,-0.9232,-0.9279,-0.9177,-0.8805,-0.8959,-0.9015,-0.915,-0.8954,-0.895,0.0,0.0,0.0,-1.018,-0.9474,-0.9263,-1.0179,-0.9885,-0.9715,-1.0483,-1.0633,-1.0747,-1.1021,-1.1072,-1.1181,-1.1514,-1.1295,-1.1072,-1.1072,-1.0857,-1.0692,-1.0692,-1.0692,-1.1122,-1.2309,-1.2417,-1.3388,-1.5695,-1.5861,-1.6399,-1.7477,-1.7582,-1.7582,-1.7582,-1.7582,-1.7582,-1.7582,-1.7582,-1.7582,-1.7582,-1.7582,-1.7582,-1.7582,-1.7582,-1.7582,-1.7582,-1.7582,-1.7582,-1.7582,-1.7582,-1.7582,-1.7582,-1.7582,-1.7582,-1.7477,-1.6311,-1.5945,-1.5731,-1.4617,-1.4563,-1.4987,-1.4987,-1.541,-1.5785,-1.5529,-1.4826,-1.4056,-1.3727,-1.2254,-1.0672,-1.0672,-0.9754,-0.8885,-0.8885,-0.8885,-0.8885,-0.8885,-0.8885,-0.8885,-0.8885,-0.8885,-0.8885,-0.8885,-0.9055,-0.9204,-0.921,-0.934,-0.9384,-0.9388,-0.9391,-0.9391,-0.9388,-0.9388,-0.9327,-0.9228,-0.921,-0.921,-0.921,-0.9018,-0.9001,-0.9197,-0.9018,-0.8892,-0.8892,-0.9086,-0.9214,-0.921,-0.9214,-0.9217,-0.9214,-0.9011,-0.8888,-1.3806,0.0,0.0,0.0,0.0,0.0,-0.9499,-0.9131,-0.9043,-0.946,-0.9676,-0.9981,-1.0692,-1.0802,-1.0966,-1.1514,-1.1295,-1.1072,-1.1072,-1.0857,-1.0692,-1.0692,-1.0692,-1.1122,-1.2309,-1.2417,-1.3004,0.0,-1.5429,-1.6021,-1.6346,-1.7147,-1.7582,-1.7582,-1.7582,-1.7582,-1.7582,-1.7582,-1.7582,-1.7582,-1.7582,-1.7582,-1.7582,-1.7582,-1.7582,-1.7582,-1.7582,-1.7582,-1.7582,-1.7582,-1.7582,-1.7582,-1.7582,-1.7582,-1.7529,-1.6736,-1.6365,-1.6111,-1.5357,-1.5256,-1.5374,-1.5374,-1.5041,-1.4654,-1.4606,-1.3781,-1.2906,-1.2797,-1.176,-1.0511,-0.9644,-0.9154,-0.8885,-0.8885,-0.8885,-0.8885,-0.8885,-0.8885,-0.8885,-0.8885,-0.8885,-0.8885,-0.8885,-0.8971,-0.9032,-0.9193,-0.934,-0.9422,-0.9534,-0.9635,-0.9659,-0.9557,-0.9547,-0.9486,-0.933,-0.9272,-0.921,-0.921,-0.9018,-0.8902,-0.8994,-0.9059,-0.9093,-0.9093,-0.9242,-0.932,-0.921,-0.932,-0.9317,-0.9313,-0.9164,-0.9039,0.0,0.0,0.0,-1.2096,0.0,0.0,-1.0314,-1.0052,-0.9926,-0.9803,-0.9855,-1.0147,-1.0747,-1.0857,-1.1021,-1.1514,-1.1295,-1.1072,-1.1072,-1.0857,-1.0692,-1.0692,-1.0692,-1.0962,-1.161,-1.1719,-1.2146,-1.3329,-1.403,-1.4894,-1.5861,-1.6988,-1.7582,-1.7582,-1.7582,-1.7582,-1.7582,-1.7582,-1.7582,-1.7582,-1.7582,-1.7582,-1.7582,-1.7582,-1.7582,-1.7582,-1.7582,-1.7582,-1.7582,-1.7582,-1.7582,-1.7582,-1.7582,-1.7582,-1.7529,-1.6789,-1.6424,-1.6164,-1.5405,-1.5303,-1.5428,-1.4767,-1.4385,-1.4116,-1.3457,-1.2526,-1.1655,-1.1496,-1.0731,-0.9805,-0.9103,-0.8885,-0.8885,-0.8885,-0.8885,-0.8885,-0.8885,-0.8885,-0.8885,-0.8885,-0.8885,-0.8885,-0.8885,-0.8885,-0.8967,-0.9052,-0.9191,-0.934,-0.9496,-0.9642,-0.9724,-0.97,-0.9696,-0.9639,-0.949,-0.9395,-0.9344,-0.9344,-0.9205,-0.9154,-0.9215,-0.9239,-0.9306,-0.9306,-0.9337,-0.9306,-0.921,-0.9299,-0.9256,-0.9195,-0.9106,-0.9018,0.0,0.0,0.0,0.0,-1.2829,0.0,-1.1907,-1.1812,-1.1619,-1.0912,-1.0782,-1.0849,-1.0958,-1.1013,-1.1122,-1.1394,-1.1197,-1.1051,-1.1072,-1.0857,-1.0692,-1.0692,-1.0692,-1.0692,-1.0692,-1.0692,-1.1126,-1.2146,-1.2472,-1.3545,-1.5802,-1.6988,-1.7582,-1.7582,-1.7582,-1.7582,-1.7582,-1.7582,-1.7582,-1.7582,-1.7582,-1.7582,-1.7582,-1.7582,-1.7582,-1.7582,-1.7582,-1.7582,-1.7582,-1.7582,-1.7582,-1.7582,-1.7582,-1.7582,-1.7477,-1.6696,-1.6377,-1.6211,-1.5137,-1.4987,-1.5148,-1.3781,-1.3565,-1.3565,-1.2254,-1.1219,-1.0457,-1.0139,-0.9485,-0.8885,-0.8885,-0.8885,-0.8885,-0.8885,-0.8885,-0.8885,-0.8885,-0.8885,-0.8885,-0.8885,-0.8885,-0.8885,-0.8885,-0.8885,-0.8885,-0.8885,-0.9059,-0.9258,-0.934,-0.949,-0.9639,-0.9781,-0.9798,-0.9751,-0.9642,-0.9618,-0.9608,-0.9608,-0.9466,-0.9442,-0.9578,-0.9469,-0.9405,-0.9405,-0.9391,-0.9323,-0.9262,-0.9224,-0.9086,-0.8905,-0.8905,-0.8905,0.0,0.0,0.0,0.0,-1.3511,0.0,-1.241,-1.2477,-1.2435,-1.1453,-1.1399,-1.1255,-1.0525,-1.0371,-1.0424,-1.0476,-1.0494,-1.0696,-1.1055,-1.0857,-1.0692,-1.0692,-1.0692,-1.0692,-1.0692,-1.0692,-1.0798,-1.1017,-1.2738,-1.4406,-1.5808,-1.6988,-1.7582,-1.7582,-1.7582,-1.7582,-1.7582,-1.7582,-1.7582,-1.7582,-1.7582,-1.7582,-1.7582,-1.7582,-1.7582,-1.7582,-1.7582,-1.7582,-1.7582,-1.7582,-1.7582,-1.7582,-1.7582,-1.7582,-1.7529,-1.7173,-1.6849,-1.6524,-1.5885,-1.5137,-1.4385,-1.3781,-1.2635,-1.1328,-1.1055,-1.0131,-0.9265,-0.9154,-0.9047,-0.8885,-0.8885,-0.8885,-0.8885,-0.8885,-0.8885,-0.8885,-0.8885,-0.8885,-0.8885,-0.8885,-0.8885,-0.8885,-0.8885,-0.8885,-0.8885,-0.8885,-0.9059,-0.9221,-0.9251,-0.933,-0.9483,-0.9635,-0.9649,-0.9686,-0.9771,-0.9676,-0.9608,-0.9608,-0.9466,-0.9395,-0.9425,-0.9513,-0.9564,-0.9564,-0.9445,-0.9425,-0.952,-0.933,-0.9193,-0.9169,-0.9169,-0.9169,0.0,0.0,0.0,-1.4627,-1.449,0.0,0.0,-1.3353,-1.3319,-1.2324,-1.2337,-1.2164,-1.114,-1.0936,-1.0781,-1.0264,-1.0314,-1.0432,-1.0642,-1.0687,-1.0692,-1.0692,-1.0692,-1.0692,-1.0692,-1.0692,-1.0692,-1.0692,-1.2309,-1.376,-1.4942,-1.6127,-1.6988,-1.7582,-1.7582,-1.7582,-1.7582,-1.7582,-1.7582,-1.7582,-1.7582,-1.7582,-1.7582,-1.7582,-1.7582,-1.7582,-1.7582,-1.7582,-1.7582,-1.7582,-1.7582,-1.7582,-1.7582,-1.7424,-1.7107,-1.7008,-1.6683,-1.6258,-1.5844,-1.5035,-1.4056,-1.3127,-1.1873,-1.0562,-0.997,-0.9372,-0.8885,-0.8885,-0.8885,-0.8885,-0.8885,-0.8885,-0.8885,-0.8885,-0.8885,-0.8885,-0.8885,-0.8885,-0.8885,-0.8885,-0.8885,-0.8885,-0.8885,-0.8885,-0.8885,-0.8885,-0.8998,-0.9072,-0.92,-0.9275,-0.9354,-0.9585,-0.954,-0.9554,-0.9703,-0.9581,-0.9496,-0.9496,-0.9422,-0.9381,-0.9381,-0.9456,-0.9496,-0.9496,-0.9418,-0.9418,-0.9496,-0.9418,-0.934,-0.9323,-0.9323,-0.9323,0.0,0.0,0.0,0.0,0.0,-1.5127,0.0,0.0,0.0,-1.326,-1.3201,-1.3049,-1.2094,-1.1838,-1.1587,-1.0823,-1.078,-1.08,-1.0487,-1.0703,-1.0804,-1.0645,-1.0651,-1.068,-1.0643,-1.0643,-1.0655,-1.0688,-1.1738,-1.2749,-1.3701,-1.5108,-1.6346,-1.7259,-1.7477,-1.7582,-1.7582,-1.7582,-1.7582,-1.7582,-1.7582,-1.7582,-1.7582,-1.7582,-1.7582,-1.7582,-1.7582,-1.7582,-1.7582,-1.7582,-1.7582,-1.7582,-1.7477,-1.716,-1.673,-1.6352,-1.6092,-1.5891,-1.5089,-1.4385,-1.3619,-1.2146,-1.1055,-1.0186,-0.921,-0.8885,-0.8885,-0.8885,-0.8885,-0.8885,-0.8885,-0.8885,-0.8885,-0.8885,-0.8885,-0.8885,-0.8885,-0.8885,-0.8885,-0.8885,-0.8885,-0.8885,-0.8885,-0.8885,-0.8885,-0.8885,-0.8885,-0.8981,-0.9096,-0.9169,-0.9218,-0.9493,-0.9439,-0.9442,-0.9598,-0.952,-0.9466,-0.9466,-0.9466,-0.9466,-0.9466,-0.9466,-0.9452,-0.9425,-0.9398,-0.9395,-0.9425,-0.952,-0.9517,-0.9425,-0.9425,-0.9425,0.0,0.0,0.0,0.0,-1.621,0.0,-1.4863,0.0,-1.4792,-1.3936,0.0,-1.3299,-1.2715,0.0,0.0,-1.2422,-1.2571,-1.236,-1.1378,-1.1475,-1.1259,-1.0378,-1.0501,-1.0631,-1.0427,-1.0411,-1.0526,-1.068,-1.167,-1.2335,-1.2566,-1.4674,-1.5968,-1.6074,-1.7094,-1.7582,-1.7582,-1.7582,-1.7582,-1.7582,-1.7582,-1.7582,-1.7582,-1.7582,-1.7582,-1.7582,-1.7582,-1.7582,-1.7582,-1.7582,-1.7582,-1.7529,-1.6995,-1.6948,-1.6908,-1.5114,-1.5232,-1.5891,-1.3285,-1.2472,-1.2363,-1.0899,-0.9812,-0.9103,-0.8937,-0.8885,-0.8885,-0.8885,-0.8885,-0.8885,-0.8885,-0.8885,-0.8885,-0.8885,-0.8885,-0.8885,-0.8885,-0.8885,-0.8885,-0.8885,-0.8885,-0.8885,-0.8885,-0.8885,-0.8885,-0.8885,-0.8885,-0.8888,-0.8905,-0.8908,-0.9025,-0.9245,-0.931,-0.9442,-0.9598,-0.9707,-0.9771,-0.9771,-0.9771,-0.9771,-0.9771,-0.9771,-0.971,-0.9588,-0.9449,-0.9449,-0.9585,-0.9466,-0.9466,-0.9585,-0.9585,-0.9585,0.0,0.0,0.0,0.0,0.0,0.0,-1.5879,0.0,-1.5866,0.0,0.0,0.0,0.0,0.0,0.0,0.0,-1.2641,-1.2597,-1.221,-1.1899,-1.1347,-1.0316,-1.0347,-1.04,-1.0379,-1.0526,-1.0615,-1.0684,-1.1109,-1.1634,-1.2358,-1.3976,-1.5156,-1.5861,-1.6988,-1.7582,-1.7582,-1.7582,-1.7582,-1.7582,-1.7582,-1.7582,-1.7582,-1.7582,-1.7582,-1.7582,-1.7582,-1.7206,-1.6664,-1.7312,-1.6988,-1.608,-1.6199,-1.6424,-1.6483,-1.5007,-1.4583,-1.4535,-1.2852,-1.1873,-1.1219,-0.9868,-0.9213,-0.8885,-0.8885,-0.8885,-0.8885,-0.8885,-0.8885,-0.8885,-0.8885,-0.8885,-0.8885,-0.8885,-0.8885,-0.8885,-0.8885,-0.8885,-0.8885,-0.8885,-0.8885,-0.8885,-0.8885,-0.8885,-0.8885,-0.8885,-0.8885,-0.8885,-0.8885,-0.8885,-0.8994,-0.9193,-0.9137,-0.9218,-0.9456,-0.9449,-0.9473,-0.9561,-0.9564,-0.9564,-0.9564,-0.9564,-0.9537,-0.9479,-0.95,-0.9544,-0.9608,-0.9629,-0.9669,-0.973,-0.9287,-0.9291,-2.1309,0.0,0.0,0.0,0.0,0.0,0.0,0.0,0.0,0.0,-1.5724,0.0,0.0,0.0,0.0,0.0,0.0,-1.3232,-1.305,-1.2587,-1.1841,-1.0621,-1.0261,-1.016,-1.0343,-1.0473,-1.0566,-1.0619,-1.0623,-1.1017,-1.1873,-1.3329,-1.4513,-1.5375,-1.6823,-1.7582,-1.7582,-1.7582,-1.7582,-1.7582,-1.7582,-1.7582,-1.7582,-1.7582,-1.7582,-1.7582,-1.7582,-1.6935,-1.5968,-1.6776,-1.6293,-1.5066,-1.5399,-1.5618,-1.5559,-1.4261,-1.3609,-1.3181,-1.1873,-1.0836,-0.9962,-0.8985,-0.866,-0.866,-0.8771,-0.8771,-0.8826,-0.8881,-0.8826,-0.8826,-0.8881,-0.8826,-0.8771,-0.8771,-0.8826,-0.8881,-0.8826,-0.8826,-0.8885,-0.8885,-0.8885,-0.8885,-0.8885,-0.8885,-0.8885,-0.8885,-0.8885,-0.8885,-0.8885,-0.8885,-0.8977,-0.9083,-0.9035,-0.9083,-0.93,-0.9313,-0.932,-0.9374,-0.9381,-0.9381,-0.9381,-0.9422,-0.9422,-0.9381,-0.9534,-0.9608,-0.9608,-0.9713,-0.9781,-0.9754,-0.9071,-0.9001,0.0,0.0,0.0,-1.952,0.0,0.0,0.0,0.0,-1.7662,0.0,0.0,0.0,0.0,0.0,0.0,0.0,0.0,0.0,0.0,-1.3823,-1.3147,-1.1389,-1.043,-0.9965,-1.0204,-1.0228,-1.0253,0.0,-1.0391,-1.0513,-1.0735,-1.2901,-1.4137,-1.4186,-1.6393,-1.7582,-1.7582,-1.7582,-1.7582,-1.7582,-1.7582,-1.7582,-1.7582,-1.7582,-1.7582,-1.7582,-1.7582,-1.6935,-1.5914,-1.5914,-1.5595,-1.4959,-1.4761,-1.4482,-1.4035,-1.2323,-1.1991,-1.2091,-0.9809,-0.8823,-0.8484,-0.8156,-0.8045,-0.81,-0.8429,-0.854,-0.8543,-0.8826,-0.8712,-0.8598,-0.8826,-0.8712,-0.854,-0.854,-0.8712,-0.8826,-0.8543,-0.8712,-0.8885,-0.8885,-0.8885,-0.8885,-0.8885,-0.8885,-0.8885,-0.8885,-0.8885,-0.8885,-0.8885,-0.8885,-0.8885,-0.8892,-0.9066,-0.9207,-0.9217,-0.935,-0.9374,-0.9381,-0.9381,-0.9381,-0.9381,-0.9523,-0.9534,-0.9384,-0.9534,-0.9608,-0.9608,-0.9615,-0.9686,-0.9754,-0.9071,-0.8709,0.0,0.0,-2.2828,-2.2126,0.0,0.0,0.0,0.0,0.0,0.0,0.0,0.0,0.0,0.0,0.0,0.0,0.0,0.0,0.0,-1.425,-1.3463,-1.2339,-1.1409,-1.0665,-1.0071,0.0,0.0,-1.0379,-1.0542,-1.0954,-1.1769,-1.3275,-1.446,-1.5269,-1.677,-1.7582,-1.7582,-1.7582,-1.7582,-1.7582,-1.7582,-1.7582,-1.7582,-1.7582,-1.7582,-1.7582,-1.6823,-1.624,-1.5861,-1.5049,-1.425,-1.3609,-1.3511,-1.2694,-1.1605,-1.1769,-1.1605,-1.1,-0.9254,-0.8598,-0.8429,-0.81,-0.7989,-0.8045,-0.8156,-0.8156,-0.8211,-0.8269,-0.8211,-0.8211,-0.8269,-0.8211,-0.8156,-0.8156,-0.8211,-0.8269,-0.8211,-0.8266,-0.838,-0.8598,-0.8654,-0.8712,-0.8881,-0.8885,-0.8885,-0.8885,-0.8885,-0.8885,-0.8885,-0.8885,-0.8885,-0.8885,-0.8981,-0.9049,-0.92,-0.935,-0.9381,-0.9381,-0.9381,-0.9381,-0.9381,-0.9432,-0.9435,-0.9384,-0.9432,-0.9459,-0.9459,-0.9459,-0.9483,-0.9527,-0.8797,-0.854,-2.3937,-2.367,0.0,-2.3075,-2.2497,0.0,-2.0617,0.0,-1.9958,0.0,0.0,0.0,0.0,0.0,0.0,0.0,0.0,0.0,0.0,-1.4688,-1.4142,-1.3216,-1.2376,-1.1656,-1.113,-1.1227,-1.1234,-1.1056,-1.1123,-1.1376,-1.1764,-1.2901,-1.3868,-1.462,-1.618,-1.6988,-1.6988,-1.7417,-1.7582,-1.7582,-1.7582,-1.7582,-1.7582,-1.7206,-1.6988,-1.6935,-1.5749,-1.5055,-1.462,-1.3814,-1.3117,-1.2536,-1.2318,-1.1555,-1.0578,-1.1173,-1.0789,-0.9911,-0.8702,-0.8322,-0.8266,-0.782,-0.7712,-0.7712,-0.7826,-0.7881,-0.7881,-0.7989,-0.7934,-0.7881,-0.7989,-0.7934,-0.7881,-0.7881,-0.7934,-0.7989,-0.7881,-0.7934,-0.8045,-0.8263,-0.8322,-0.8377,-0.8549,-0.8605,-0.866,-0.8881,-0.8885,-0.8885,-0.8885,-0.8885,-0.8885,-0.8885,-0.8885,-0.8977,-0.9069,-0.9167,-0.9225,-0.9225,-0.9225,-0.9225,-0.9225,-0.9387,-0.9439,-0.9381,-0.961,-0.9637,-0.9462,-0.9525,-0.9497,-0.9378,-0.8657,-0.8402]},{"header":{"parameterUnit":"m.s-1","parameterCategory":1,"la1":30.6,"la2":29.2853,"lo1":-89.7004,"lo2":-87.6739,"dy":0.0162,"dx":0.0183,"nx":112,"ny":82,"refTime":"2023-05-09T00:00:00:Z","depth":0,"parameterNumber":3,"parameterNumberName":"V-component_of_WINDS"},"data":[0.0,0.0,0.0,0.0,0.0,0.0,0.0,0.0,0.0,0.0,0.0,0.0,0.0,0.0,0.0,0.0,0.0,0.0,0.0,0.0,0.0,0.0,0.0,0.0,0.0,0.0,0.0,0.0,0.0,0.0,0.0,0.0,0.0,0.0,0.0,0.0,0.0,0.0,0.0,0.0,0.0,0.0,0.0,0.0,0.0,0.0,0.0,0.0,0.0,0.0,0.0,0.0,0.0,0.0,0.0,0.0,0.0,0.0,0.0,0.0,0.0,0.0,0.0,0.0,0.0,0.0,0.0,0.0,0.0,0.0,0.0,0.0,0.0,0.0,0.0,0.0,0.0,0.0,0.0,0.0,0.0,0.0,0.0,0.0,0.0,0.0,0.0,0.0,0.0,0.0,1.2094,1.016,0.8498,0.7522,0.7488,0.7498,0.7326,0.6927,0.0,0.0,0.0,0.0,0.0,0.0,0.0,0.0,0.0,0.0,0.0,0.0,0.0,0.0,0.0,0.0,0.0,0.0,0.0,0.0,0.0,0.0,0.0,0.0,0.0,0.0,0.0,0.0,0.0,0.0,0.0,0.0,0.0,0.0,0.0,0.0,0.0,0.0,0.0,0.0,0.0,0.0,0.0,0.0,0.0,0.0,0.0,0.0,0.0,0.0,0.0,0.0,0.0,0.0,0.0,0.0,0.0,0.0,0.0,0.0,0.0,0.0,0.0,0.0,0.0,0.0,0.0,0.0,0.0,0.0,0.0,0.0,0.0,0.0,0.0,0.0,0.0,0.0,0.0,0.0,0.0,0.0,0.0,0.0,0.0,0.0,0.0,0.0,0.0,0.0,0.0,0.0,0.0,0.0,0.0,0.0,0.0,0.0,0.0,0.0,0.0,0.0,0.0,0.0,1.2288,1.073,0.889,0.7679,0.75,0.7506,0.7326,0.6927,0.0,0.0,0.0,0.0,0.0,0.0,0.0,0.0,0.0,0.0,0.0,0.0,0.0,0.0,0.0,0.0,0.0,0.0,0.0,0.0,0.0,0.0,0.0,0.0,0.0,0.0,0.0,0.0,0.0,0.0,0.0,0.0,0.0,0.0,0.0,0.0,0.0,0.0,0.0,0.0,0.0,0.0,0.0,0.0,0.0,0.0,0.0,0.0,0.0,0.0,0.0,0.0,0.0,0.0,0.0,0.0,0.0,0.0,0.0,0.0,0.0,0.0,0.0,0.0,0.0,0.0,0.0,0.0,0.0,0.0,0.0,0.0,0.0,0.0,0.0,0.0,0.0,0.0,0.0,0.0,0.0,0.0,0.0,0.0,0.0,0.0,0.0,0.0,0.0,0.0,0.0,0.0,0.0,0.0,0.0,0.0,0.0,0.0,0.0,0.0,0.0,0.0,0.0,1.2565,1.1493,1.1055,0.9202,0.7915,0.7819,0.7934,0.7806,0.74,0.7398,0.0,0.0,0.0,0.0,0.0,0.0,0.0,0.0,0.0,0.0,0.0,0.0,0.0,0.0,0.0,0.0,0.0,0.0,0.0,0.0,0.0,0.0,0.0,0.0,0.0,0.0,0.0,0.0,0.0,0.0,0.0,0.0,0.0,0.0,0.0,0.0,0.0,0.0,0.0,0.0,0.0,0.0,0.0,0.0,0.0,0.0,0.0,0.0,0.0,0.0,0.0,0.0,0.0,0.0,0.0,0.0,0.0,0.0,0.0,0.0,0.0,0.0,0.0,0.0,0.0,0.0,0.0,0.0,0.0,0.0,0.0,0.0,0.0,0.0,0.0,0.0,0.0,0.0,0.0,0.0,0.0,0.0,0.0,0.0,0.0,0.0,0.0,0.0,0.0,0.0,0.0,0.0,0.0,0.0,0.0,0.0,0.0,0.0,0.0,0.0,0.0,0.0,1.2581,1.1378,1.1413,0.9712,0.8439,0.8143,0.8236,0.8182,0.7806,0.7757,0.0,0.0,0.0,0.0,0.0,0.0,0.0,0.0,0.0,0.0,0.0,0.0,0.0,0.0,0.0,0.0,0.0,0.0,0.0,0.0,0.0,0.0,0.0,0.0,0.0,0.0,0.0,0.0,0.0,0.0,0.0,0.0,0.0,0.0,0.0,0.0,0.0,0.0,0.0,0.0,0.0,0.0,0.0,0.0,0.0,0.0,0.0,0.0,0.0,0.0,0.0,0.0,0.0,0.0,0.0,0.0,0.0,0.0,0.0,0.0,0.0,0.0,0.0,0.0,0.0,0.0,0.0,0.0,0.0,0.0,0.0,0.0,0.0,0.0,0.0,0.0,0.0,0.0,0.0,0.0,0.0,0.0,0.0,0.0,0.0,0.0,0.0,0.0,0.0,0.0,0.0,0.0,0.0,0.0,0.0,0.0,0.0,0.0,0.0,0.0,0.0,0.0,1.3928,1.3105,1.1903,1.0695,0.9456,0.8194,0.813,0.8047,0.7815,0.7619,0.0,0.0,0.0,0.0,0.0,0.0,0.0,0.0,0.0,0.0,0.0,0.0,0.0,0.0,0.0,0.0,0.0,0.0,0.0,0.0,0.0,0.0,0.0,0.0,0.0,0.0,0.0,0.0,0.0,0.0,0.0,0.0,0.0,0.0,0.0,0.0,0.0,0.0,0.0,0.0,0.0,0.0,0.0,0.0,0.0,0.0,0.0,0.0,0.0,0.0,0.0,0.0,0.0,0.0,0.0,0.0,0.0,0.0,0.0,0.0,0.0,0.0,0.0,0.0,0.0,0.0,0.0,0.0,0.0,0.0,0.0,0.0,0.0,0.0,0.0,0.0,0.0,0.0,0.0,0.0,0.0,0.0,0.0,0.0,0.0,0.0,0.0,0.0,0.0,0.0,0.0,0.0,0.0,0.0,0.0,0.0,0.0,0.0,0.0,0.0,0.0,0.0,1.3829,1.3327,1.3146,1.2081,1.0915,0.9681,0.969,0.9339,0.8407,0.0,0.0,0.0,0.0,0.0,0.0,0.0,0.0,0.0,0.0,0.0,0.0,0.0,0.0,0.0,0.0,0.0,0.0,0.0,0.0,0.0,0.0,0.0,0.0,0.0,0.0,0.0,0.0,0.0,0.0,0.0,0.0,0.0,0.0,0.0,0.0,0.0,0.0,0.0,0.0,0.0,0.0,0.0,0.0,0.0,0.0,0.0,0.0,0.0,0.0,0.0,0.0,0.0,0.0,0.0,0.0,0.0,0.0,0.0,0.0,0.0,0.0,0.0,0.0,0.0,0.0,0.0,0.0,0.0,0.0,0.0,0.0,0.0,0.0,0.0,0.0,0.0,0.0,0.0,0.0,0.0,0.0,0.0,0.0,0.0,0.0,0.0,0.0,0.0,0.0,0.0,0.0,0.0,0.0,0.0,0.0,0.0,0.0,0.0,0.0,0.0,0.0,1.4816,1.4243,1.3967,1.3901,1.3206,1.2283,1.1143,1.1111,1.0722,0.9717,0.0,0.0,0.0,0.0,0.0,0.0,0.0,0.0,0.0,0.0,0.0,0.0,0.0,0.0,0.0,0.0,0.0,0.0,0.0,0.0,0.0,0.0,0.0,0.0,0.0,0.0,0.0,0.0,0.0,0.0,0.0,0.0,0.0,0.0,0.0,0.0,0.0,0.0,0.0,0.0,0.0,0.0,0.0,0.0,0.0,0.0,0.0,0.0,0.0,0.0,0.0,0.0,0.0,0.0,0.0,0.0,0.0,0.0,0.0,0.0,0.0,0.0,0.0,0.0,0.0,0.0,0.0,0.0,0.0,0.0,0.0,0.0,0.0,0.0,0.0,0.0,0.0,0.0,0.0,0.0,0.0,0.0,0.0,0.0,0.0,0.0,0.0,0.0,0.0,0.0,0.0,0.0,0.0,0.0,0.0,0.0,0.0,0.0,0.0,0.0,0.0,0.0,1.5638,1.5572,1.5165,1.4035,1.3931,1.3456,1.2321,1.2221,1.2081,0.0,0.0,0.0,0.0,0.0,0.0,0.0,0.0,0.0,0.0,0.0,0.0,0.0,0.0,0.0,0.0,0.0,0.0,0.0,0.0,0.0,0.0,0.0,0.0,0.0,0.0,0.0,0.0,0.0,0.0,0.0,0.0,0.0,0.0,0.0,0.0,0.0,0.0,0.0,0.0,0.0,0.0,0.0,0.0,0.0,0.0,0.0,0.0,0.0,0.0,0.0,0.0,0.0,0.0,0.0,0.0,0.0,0.0,0.0,0.0,0.0,0.0,0.0,0.0,0.0,0.0,0.0,0.0,0.0,0.0,0.0,0.0,0.0,0.0,0.0,0.0,0.0,0.0,0.0,0.0,0.0,0.0,0.0,0.0,0.0,0.0,0.0,0.0,0.0,0.0,0.0,0.0,0.0,0.0,0.0,0.0,0.0,0.0,0.0,0.0,0.0,0.0,0.0,1.563,1.6193,1.6328,1.5142,1.4859,1.4297,1.3142,1.3128,1.2747,1.1761,0.0,0.0,0.0,0.0,0.0,0.0,0.0,0.0,0.0,0.0,0.0,0.0,0.0,0.0,0.0,0.0,0.0,0.0,0.0,0.0,0.0,0.0,0.0,0.0,0.0,0.0,0.0,0.0,0.0,0.0,0.0,0.0,0.0,0.0,0.0,0.0,0.0,0.0,0.0,0.0,0.0,0.0,0.0,0.0,0.0,0.0,0.0,0.0,0.0,0.0,0.0,0.0,0.0,0.0,0.0,0.0,0.0,0.0,0.0,0.0,0.0,0.0,0.0,0.0,0.0,0.0,0.0,0.0,0.0,0.0,0.0,0.0,0.0,0.0,0.0,0.0,0.0,0.0,0.0,0.0,0.0,0.0,0.0,0.0,0.0,0.0,0.0,0.0,0.0,0.0,0.0,0.0,0.0,0.0,0.0,0.0,0.0,0.0,0.0,0.0,0.0,0.0,1.6892,1.7533,1.7649,1.635,1.6073,1.5466,1.4201,1.4181,1.3837,1.2908,0.0,0.0,0.0,0.0,0.0,0.0,0.0,0.0,0.0,0.0,0.0,0.0,0.0,0.0,0.0,0.0,0.0,0.0,0.0,0.0,0.0,0.0,0.0,0.0,0.0,0.0,0.0,0.0,0.0,0.0,0.0,0.0,0.0,0.0,0.0,0.0,0.0,0.0,0.0,0.0,0.0,0.0,0.0,0.0,0.0,0.0,0.0,0.0,0.0,0.0,0.0,0.0,0.0,0.0,0.0,0.0,0.0,0.0,0.0,0.0,0.0,0.0,0.0,0.0,0.0,0.0,0.0,0.0,0.0,0.0,0.0,0.0,0.0,0.0,0.0,0.0,0.0,0.0,0.0,0.0,0.0,0.0,0.0,0.0,0.0,0.0,0.0,0.0,0.0,0.0,0.0,0.0,0.0,0.0,0.0,0.0,0.0,0.0,0.0,0.0,0.0,0.0,1.8818,1.9244,1.9013,1.7622,1.7432,1.6929,1.5642,1.5545,1.5323,1.4832,0.0,0.0,0.0,0.0,0.0,0.0,0.0,0.0,0.0,0.0,0.0,0.0,0.0,0.0,0.0,0.0,0.0,0.0,0.0,0.0,0.0,0.0,0.0,0.0,0.0,0.0,0.0,0.0,0.0,0.0,0.0,0.0,0.0,0.0,0.0,0.0,0.0,0.0,0.0,0.0,0.0,0.0,0.0,0.0,0.0,0.0,0.0,0.0,0.0,0.0,0.0,0.0,0.0,0.0,0.0,0.0,0.0,0.0,0.0,0.0,2.7062,2.6636,0.0,0.0,0.0,0.0,0.0,0.0,0.0,0.0,0.0,0.0,0.0,0.0,0.0,0.0,0.0,0.0,0.0,0.0,0.0,0.0,0.0,0.0,0.0,0.0,0.0,0.0,0.0,0.0,0.0,0.0,0.0,0.0,0.0,0.0,0.0,0.0,0.0,0.0,0.0,0.0,1.8967,1.9834,2.0112,1.8851,1.8575,1.8346,1.8043,1.8026,1.7524,1.6344,1.5657,0.0,0.0,0.0,0.0,0.0,0.0,0.0,0.0,0.0,0.0,0.0,0.0,0.0,0.0,0.0,0.0,0.0,0.0,0.0,0.0,0.0,0.0,0.0,0.0,0.0,0.0,0.0,0.0,0.0,0.0,0.0,0.0,0.0,0.0,0.0,0.0,0.0,0.0,0.0,0.0,0.0,0.0,0.0,0.0,0.0,0.0,0.0,0.0,0.0,0.0,0.0,0.0,0.0,0.0,0.0,0.0,0.0,0.0,0.0,2.7816,2.7163,0.0,0.0,0.0,0.0,0.0,0.0,0.0,0.0,0.0,0.0,0.0,0.0,0.0,0.0,0.0,0.0,0.0,0.0,0.0,0.0,0.0,0.0,0.0,0.0,0.0,0.0,0.0,0.0,0.0,0.0,0.0,0.0,0.0,0.0,0.0,0.0,0.0,0.0,0.0,0.0,1.9954,2.0963,2.1302,2.0096,1.9862,1.9553,1.8864,1.8718,1.833,1.7597,1.7081,0.0,0.0,0.0,0.0,0.0,0.0,0.0,0.0,0.0,0.0,0.0,0.0,0.0,0.0,0.0,0.0,0.0,0.0,0.0,0.0,0.0,0.0,0.0,0.0,0.0,0.0,0.0,0.0,0.0,0.0,0.0,0.0,0.0,0.0,0.0,0.0,0.0,0.0,0.0,0.0,0.0,0.0,0.0,0.0,0.0,0.0,0.0,0.0,0.0,0.0,0.0,0.0,0.0,3.0263,3.0387,3.0725,3.0608,3.0761,3.1025,2.9183,2.8499,2.8637,2.7544,0.0,0.0,0.0,0.0,0.0,0.0,0.0,0.0,0.0,0.0,0.0,0.0,0.0,0.0,0.0,0.0,0.0,0.0,0.0,0.0,0.0,0.0,0.0,0.0,2.752,2.7057,2.5576,0.0,0.0,0.0,0.0,0.0,0.0,0.0,0.0,0.0,0.0,0.0,2.1358,2.2262,2.2504,2.1376,2.126,2.0763,1.9573,1.9296,1.9083,1.8832,1.8363,1.7993,0.0,0.0,0.0,0.0,0.0,0.0,0.0,0.0,0.0,0.0,0.0,0.0,0.0,0.0,0.0,0.0,0.0,0.0,0.0,0.0,0.0,0.0,0.0,0.0,0.0,0.0,0.0,0.0,0.0,0.0,0.0,0.0,3.1518,3.0871,0.0,0.0,0.0,0.0,0.0,0.0,0.0,0.0,0.0,0.0,0.0,0.0,0.0,2.9643,3.0029,3.1179,3.1853,3.2078,3.2535,3.2765,3.28,3.228,3.2058,3.2126,3.1995,0.0,3.0368,3.0007,0.0,0.0,0.0,0.0,0.0,0.0,0.0,0.0,0.0,0.0,0.0,0.0,0.0,0.0,0.0,0.0,0.0,0.0,0.0,0.0,0.0,0.0,2.873,2.8702,2.8597,2.8461,0.0,2.6667,2.5154,2.4995,2.4874,0.0,0.0,0.0,0.0,0.0,0.0,0.0,2.2639,2.3282,2.3497,2.2792,2.2706,2.2573,2.2211,2.2014,2.135,2.0123,1.9821,1.9217,1.8184,1.7671,0.0,0.0,0.0,0.0,0.0,0.0,0.0,0.0,0.0,0.0,0.0,0.0,0.0,0.0,0.0,0.0,0.0,0.0,0.0,0.0,0.0,0.0,0.0,0.0,0.0,0.0,0.0,0.0,0.0,3.2147,3.1905,3.0928,3.0913,3.0665,0.0,0.0,0.0,0.0,0.0,0.0,0.0,0.0,0.0,3.2138,3.1956,3.2269,3.3125,3.348,3.3853,3.4327,3.4633,3.4761,3.4761,3.4626,3.4554,3.454,3.4661,3.4221,3.3325,3.1705,3.0524,2.9749,0.0,0.0,0.0,0.0,2.9159,2.9321,3.0808,3.1439,3.1519,3.1249,0.0,0.0,0.0,0.0,0.0,0.0,0.0,0.0,0.0,0.0,2.9495,3.0199,3.0043,2.9737,2.9785,2.8654,2.7373,0.0,2.5691,2.4893,2.3873,0.0,0.0,0.0,0.0,2.4249,2.3896,2.4425,2.4696,2.4445,2.4516,2.4373,2.3888,2.3632,2.3091,2.2046,2.145,2.088,2.0382,1.9519,1.9155,0.0,0.0,0.0,0.0,0.0,0.0,0.0,0.0,0.0,0.0,0.0,0.0,0.0,0.0,0.0,0.0,0.0,0.0,0.0,0.0,0.0,0.0,0.0,0.0,0.0,0.0,0.0,0.0,3.2616,3.269,3.1401,3.1924,3.1871,0.0,0.0,0.0,0.0,0.0,0.0,3.2765,3.2772,3.3297,3.4436,3.4207,3.4583,3.5616,3.5289,3.5411,3.6007,3.605,3.6086,3.6086,3.6301,3.6387,3.6387,3.6408,3.6237,3.5731,3.3443,3.2194,3.1654,3.1082,3.0467,2.9994,3.0508,3.0644,3.0753,3.2266,3.2933,3.3121,3.2978,3.2838,3.2443,3.1048,0.0,0.0,0.0,0.0,2.8871,3.0032,3.0192,3.0322,3.1376,3.1219,3.0837,3.0837,3.0169,2.9212,0.0,2.7,2.6096,2.5427,0.0,0.0,0.0,0.0,2.5652,2.5197,2.5532,2.5742,2.5591,2.5707,2.5545,2.4874,2.4684,2.4337,2.3717,2.3031,2.2675,2.2675,2.1845,2.1336,2.1233,0.0,0.0,0.0,0.0,0.0,0.0,0.0,0.0,0.0,0.0,0.0,0.0,0.0,0.0,0.0,0.0,0.0,0.0,0.0,0.0,0.0,0.0,0.0,0.0,0.0,0.0,0.0,0.0,0.0,3.2979,3.3767,0.0,0.0,0.0,0.0,3.3198,3.322,3.3412,3.3782,3.3815,3.4217,3.5119,3.5303,3.5609,3.5964,3.5935,3.6165,3.6579,3.6387,3.6265,3.6301,3.6493,3.6579,3.6599,3.6726,3.6766,3.6643,3.5636,3.4077,3.2312,3.2114,3.1213,3.0228,3.1185,3.1661,3.2,3.3279,3.3748,3.3716,3.3649,3.2964,3.2119,3.203,3.1514,0.0,0.0,3.1796,3.1539,3.255,3.2349,3.1894,3.1953,3.1855,3.1727,3.1727,3.0672,2.9637,0.0,2.9244,2.8754,2.7717,0.0,2.713,2.6647,2.6602,2.6628,2.6595,2.6616,2.6424,2.5859,2.5777,2.5638,2.5228,2.5157,2.5016,2.466,2.4601,2.4554,2.4554,2.4398,2.4159,2.3815,2.3603,0.0,0.0,0.0,0.0,0.0,0.0,0.0,0.0,0.0,0.0,0.0,0.0,0.0,0.0,0.0,0.0,0.0,0.0,0.0,0.0,0.0,0.0,0.0,0.0,0.0,0.0,0.0,0.0,3.4729,3.5492,0.0,3.5169,3.5705,3.5914,3.5398,3.6079,3.6589,3.6796,3.6554,3.6773,3.7616,3.6872,3.6761,3.7409,3.7033,3.7106,3.7645,3.7571,3.752,3.7535,3.7608,3.7645,3.7645,3.7667,3.7543,3.722,3.6894,3.616,3.5183,3.4879,3.437,3.3853,3.4047,3.4074,3.4103,3.4681,3.4883,3.4872,3.4881,3.4592,3.4284,3.4284,3.387,3.3469,3.3725,3.3366,3.2976,3.3261,3.3156,3.287,3.2536,3.2416,3.2311,3.1974,3.153,3.1168,3.1101,2.9997,2.8949,2.8665,2.8947,2.8996,2.8388,2.8419,2.8434,2.826,2.8072,2.7796,2.7438,2.7504,2.7338,2.6739,2.6671,2.6352,2.565,2.5204,2.4919,2.484,2.4321,2.3986,2.3853,2.459,2.4161,0.0,0.0,0.0,0.0,0.0,0.0,0.0,0.0,0.0,0.0,0.0,0.0,0.0,0.0,0.0,0.0,0.0,0.0,0.0,0.0,0.0,0.0,0.0,0.0,0.0,3.6438,3.71,3.647,3.7466,3.7894,3.7187,3.7888,3.8167,3.7671,3.8394,3.8812,3.8777,3.8525,3.8648,3.926,3.8455,3.8325,3.8848,3.8521,3.8557,3.903,3.903,3.9052,3.9109,3.9052,3.903,3.903,3.8957,3.8771,3.8478,3.8478,3.8296,3.7908,3.6763,3.6168,3.5849,3.557,3.5292,3.5118,3.5246,3.5392,3.5537,3.5733,3.5797,3.5797,3.5797,3.5575,3.5212,3.4911,3.4431,3.3968,3.386,3.3664,3.341,3.3051,3.2976,3.2885,3.2581,3.2367,3.2258,3.233,3.0997,2.9842,2.9813,3.0175,3.0218,2.9419,2.9565,2.9617,2.9215,2.9181,2.9103,2.8994,2.8931,2.8675,2.8163,2.7696,2.7275,2.6799,2.6176,2.5861,2.5975,2.5256,2.4845,2.4845,2.5884,2.5685,2.4169,0.0,0.0,0.0,0.0,0.0,0.0,0.0,0.0,0.0,0.0,0.0,0.0,0.0,0.0,0.0,0.0,0.0,0.0,0.0,0.0,0.0,0.0,0.0,3.7066,3.7737,3.8273,3.8289,3.9615,4.0286,3.9667,4.0173,4.041,3.9999,3.998,3.9861,3.9592,3.9551,3.9672,3.9879,4.0039,4.0109,4.0109,4.0297,4.0485,4.069,4.069,4.0761,4.0899,4.0761,4.069,4.069,4.0485,4.0382,4.0382,4.0382,4.0382,4.0155,3.7649,3.6423,3.5952,3.5609,3.5253,3.4949,3.4968,3.5213,3.5651,3.6227,3.643,3.643,3.643,3.643,3.6305,3.5701,3.5075,3.4596,3.4596,3.4116,3.3606,3.3591,3.3606,3.3576,3.3591,3.3156,3.2837,3.3043,3.2455,3.1757,3.1291,3.1131,3.072,2.9726,2.9998,0.0,2.9447,2.9907,3.0312,3.0253,2.9813,2.9428,2.93,2.8179,2.765,2.8137,2.7611,2.7557,2.8151,2.7423,2.7008,2.7008,2.7637,2.7951,2.7951,0.0,0.0,0.0,0.0,0.0,0.0,0.0,0.0,0.0,0.0,0.0,0.0,0.0,0.0,0.0,0.0,0.0,0.0,0.0,0.0,0.0,3.8123,3.8798,3.8618,3.9314,4.0078,4.0612,4.1047,4.1403,4.1727,4.189,4.1898,4.1517,4.1726,4.1725,4.1411,4.1095,4.1062,4.1229,4.0641,4.0382,4.0535,4.0466,4.0416,4.0485,4.0485,4.0504,4.0538,4.0519,4.0485,4.0485,4.0416,4.0382,4.0382,4.0382,4.0382,4.0305,3.9241,3.8527,3.8004,3.7485,3.6899,3.6351,3.6333,3.6477,3.6692,3.686,3.7011,3.7131,3.7131,3.7131,3.7101,3.692,3.6719,3.6609,3.6609,3.6469,3.6233,3.5835,3.5754,3.5642,3.5254,3.5042,3.4944,3.4888,3.434,3.3523,3.2272,3.2048,3.1875,3.1496,3.1274,0.0,3.0734,3.0542,3.023,2.9649,2.9429,2.934,2.9294,2.8974,2.9009,2.9586,2.9459,2.9397,2.9456,2.9271,2.9142,2.9142,2.8892,2.8773,0.0,0.0,0.0,0.0,0.0,0.0,0.0,0.0,0.0,0.0,0.0,0.0,0.0,0.0,0.0,0.0,0.0,0.0,0.0,0.0,0.0,0.0,4.025,4.0798,4.0826,4.0929,4.1209,4.1921,4.2019,4.218,4.2554,4.2602,4.2539,4.2302,4.2492,4.2492,4.2302,4.2093,4.1997,4.2142,4.1591,4.1393,4.1475,4.1393,4.1344,4.1459,4.1459,4.1477,4.1526,4.1477,4.1459,4.1444,4.136,4.1311,4.1311,4.1311,4.1311,0.0,0.0,0.0,0.0,0.0,3.7981,3.7352,3.7344,3.7201,3.7071,3.7399,3.7621,3.7693,3.778,3.778,3.7706,3.7488,3.7399,3.7399,3.7399,3.7399,3.7288,3.6906,3.6811,3.673,3.6403,3.6186,3.6035,3.6019,3.5545,0.0,3.3979,3.3166,3.2476,3.1922,3.1825,3.1647,3.1247,3.1214,3.1026,3.0555,3.0352,3.0221,3.0221,2.974,0.0,0.0,0.0,2.9896,2.9746,2.9746,0.0,0.0,0.0,2.9726,2.9988,3.0153,0.0,0.0,3.0236,3.047,0.0,0.0,0.0,0.0,0.0,0.0,0.0,0.0,0.0,0.0,0.0,0.0,0.0,0.0,0.0,0.0,4.2696,4.3106,4.321,4.2435,4.2044,4.2522,4.2602,4.2602,4.2602,4.2602,4.2602,4.2602,4.2602,4.2602,4.2602,4.2602,0.0,0.0,0.0,4.2602,4.2602,4.2602,4.2696,4.2868,4.2868,4.2914,4.3052,4.2914,4.2868,4.2868,4.2665,4.2602,4.2602,4.2602,4.2602,4.246,4.1078,4.0251,3.9847,3.9419,3.8795,3.8169,3.8184,0.0,0.0,3.7927,3.8173,3.8185,3.8339,3.8379,3.8266,3.7751,3.7605,3.7605,3.7605,3.7605,3.7576,3.7399,3.7354,3.7324,3.7324,3.6983,3.6743,3.6853,3.6426,3.6043,3.6006,3.4451,3.2909,3.2041,3.2244,3.2259,3.1612,3.2041,3.232,3.2127,0.0,0.0,3.1461,3.0422,3.0046,3.0675,3.0192,2.9827,2.9697,2.9697,2.9595,2.9434,3.0171,3.0808,3.1333,3.2216,3.3063,3.3805,3.1428,3.1529,0.0,0.0,0.0,0.0,0.0,0.0,0.0,0.0,0.0,0.0,0.0,0.0,0.0,0.0,0.0,4.2711,4.3322,4.3747,4.3968,4.3723,4.3248,4.2523,4.2539,4.2602,4.2602,4.2602,4.2602,4.2602,4.2602,4.2602,4.2602,4.2602,4.2602,4.2602,4.2602,4.2602,4.2602,4.2602,4.2634,4.2665,0.0,0.0,4.2696,4.2665,4.2665,4.2665,4.2634,4.2602,4.2602,4.2602,4.2602,4.2523,4.1624,4.1233,4.1077,4.0448,3.9739,3.914,3.9179,3.8801,3.829,3.846,3.8572,3.8678,3.8816,3.8871,0.0,3.8914,3.8942,3.8942,3.8942,3.8942,3.8914,3.8887,3.8871,3.8816,3.8678,3.8564,3.8493,3.8521,3.8075,3.756,3.7313,3.5737,3.4623,3.4922,3.4616,3.4179,3.3603,3.3646,3.3127,3.1542,3.1299,3.1271,3.1271,3.1025,3.1222,3.1975,3.1814,3.1641,3.1501,3.1501,3.1486,3.1443,3.1794,3.205,3.2173,3.2715,3.3658,3.4908,3.4369,3.467,0.0,0.0,0.0,0.0,0.0,0.0,0.0,0.0,0.0,0.0,0.0,4.1271,4.2261,0.0,4.3361,4.4316,4.4572,4.4635,4.4468,4.4384,4.4071,4.3292,4.3262,4.3292,4.3292,4.3353,4.3396,4.3396,4.3185,4.3033,4.3033,4.2758,4.2602,4.2602,4.2602,4.2602,4.2602,4.2602,4.2602,4.2602,4.2602,4.2602,4.2602,4.2602,4.2602,4.2602,4.2602,4.2602,4.2602,4.2602,4.2602,4.2571,4.219,4.2045,4.1997,4.1662,4.1117,4.0459,4.0192,3.967,3.9105,3.8814,3.8766,3.8805,3.8887,3.8914,3.8942,3.9094,3.9148,3.9175,3.9272,3.9245,3.9148,3.9148,3.9094,3.904,3.8996,3.8996,3.8996,3.8996,3.8761,3.8481,3.8248,3.7251,3.6333,3.5849,3.5534,3.513,3.4546,3.4736,3.4465,3.3148,3.3294,3.3509,3.3509,3.3184,3.3011,3.3049,3.2996,3.2915,3.285,3.285,3.2915,3.2991,3.3135,3.3277,3.3391,3.4069,3.4939,3.6018,3.6438,3.6876,0.0,0.0,0.0,0.0,0.0,0.0,0.0,4.0689,4.1015,4.2381,4.2968,4.3502,4.4421,4.474,4.5074,4.5708,4.5684,4.5406,4.4944,4.4845,4.4697,4.4316,4.4117,4.4001,4.4001,4.41,4.414,4.414,4.3835,4.363,4.363,4.3185,4.2943,4.2943,4.2943,4.2943,4.2943,4.2943,4.2943,4.2943,4.2943,4.2943,4.2943,4.2943,4.2881,4.2758,4.2758,4.2758,4.2789,4.2912,4.2943,4.2943,4.2943,4.2943,4.2912,4.268,4.218,4.1498,4.0889,4.0219,3.9565,3.8967,3.875,3.875,3.8805,3.8805,3.8832,3.8969,3.8996,3.9067,3.9245,3.9175,3.9067,3.8996,3.8914,3.886,3.8942,3.8969,3.8969,3.8996,3.8996,3.8969,3.886,3.8539,3.7854,3.662,3.6345,3.6066,3.5423,3.5819,3.5792,3.4915,3.5396,3.577,3.5653,3.5171,3.4535,3.3854,3.3806,3.3781,3.3739,3.3739,3.3825,3.3995,3.4045,3.4178,3.4406,3.5276,3.6092,3.6825,3.7757,3.8302,3.9275,4.0059,4.1214,4.1587,4.212,4.2849,0.0,4.4044,4.4237,4.5163,4.543,4.5482,4.5613,4.5545,4.558,4.577,4.5607,4.545,4.5485,4.5406,4.53,4.5247,4.4502,4.4001,4.4001,4.4013,4.403,4.403,4.4083,4.4112,4.4112,4.418,4.4209,4.4209,4.4209,4.4209,4.4209,4.4209,4.4209,4.4209,4.4209,4.4209,4.4209,4.4209,4.3922,4.3393,4.3393,4.3393,4.3423,4.398,4.4209,4.4209,4.4209,4.4209,4.4066,4.3005,4.218,4.1498,4.0769,4.0073,3.9421,3.8832,3.8616,3.8644,3.875,3.8805,3.8832,3.8969,3.8996,3.9067,3.9245,3.9272,3.9202,3.905,3.8996,3.8942,3.886,3.8832,3.886,3.8969,3.8996,3.8996,3.8969,3.8942,3.8849,3.8657,3.829,3.7836,3.7362,3.7356,3.674,3.499,3.5396,3.5632,3.5208,3.5121,3.479,3.4185,3.4137,3.4046,3.3889,3.3889,3.3889,3.3897,3.4194,3.4358,3.4406,3.5325,3.6133,3.6832,3.7986,3.8744,4.1629,4.2154,4.2741,4.3081,4.3349,4.3726,4.4513,4.4539,4.4621,4.5511,4.5761,4.5787,4.5693,4.5693,4.5744,4.5897,4.5761,4.5667,4.5821,4.5641,4.5528,4.5528,4.5096,4.4807,4.4807,4.4889,4.4944,4.4944,4.4718,4.4591,4.4591,4.4311,4.4186,4.4186,4.4186,4.4197,4.4266,4.4266,4.4322,4.4406,4.4406,4.4406,4.4406,4.4406,4.4249,4.4021,4.4021,4.4021,4.4049,4.4294,4.4406,4.4406,4.4406,4.4406,4.435,4.3835,4.3477,4.3082,4.2125,4.1329,4.0616,3.9924,3.9424,3.9115,3.9489,3.962,3.9568,3.9401,3.9365,3.9312,3.9158,3.9029,3.9002,3.9415,3.9372,3.9312,3.9662,3.9723,3.9662,3.9418,3.9365,3.9259,3.8942,3.8942,3.8969,3.8887,3.8871,3.8689,3.8157,3.8579,3.8482,3.7301,3.745,3.716,3.6114,3.6039,3.5747,3.5055,3.5005,3.4965,3.4901,3.4901,3.4955,3.5117,3.5266,3.538,3.5515,3.6378,3.7117,3.7742,3.8696,3.9466,4.2993,4.3393,4.367,4.401,4.4233,4.4457,4.4818,4.4775,4.4828,4.5407,4.5632,4.5667,4.5607,4.5667,4.5795,4.5922,4.5871,4.5821,4.5922,4.577,4.5658,4.5658,4.5528,4.545,4.545,4.5502,4.5537,4.5537,4.5266,4.5089,4.5089,4.4718,4.4513,4.4513,4.4513,4.4552,4.4635,4.4674,4.4756,4.4848,4.4875,4.4903,4.4903,4.4722,4.4657,4.4657,4.4657,4.4657,4.4657,4.4821,4.4903,4.4903,4.4903,4.4903,4.4903,4.4903,4.4684,4.4277,4.3244,4.2423,4.1707,4.0993,4.0256,3.974,4.0103,4.0186,4.0153,3.9902,3.9825,3.9749,3.9506,3.9286,3.9302,3.9841,3.9799,3.974,4.0228,4.0375,4.0302,3.9952,3.9876,3.9749,3.9295,3.9206,3.9142,3.9034,3.9228,3.9179,3.87,3.9166,3.9421,3.9151,3.8796,3.8145,3.7134,3.6909,3.6514,3.5834,3.5783,3.5783,3.5783,3.5783,3.5871,3.6084,3.6067,3.6152,3.6301,3.7073,3.776,3.8363,3.9215,3.9995,4.2585,4.3156,4.37,4.418,4.4915,4.552,4.5389,4.5468,4.552,4.5423,4.5397,4.545,4.5581,4.5589,4.5641,4.577,4.5795,4.5795,4.5812,4.5795,4.5795,4.5795,4.5684,4.5589,4.5589,4.5476,4.5397,4.5397,4.5528,4.5563,4.5563,4.5693,4.5744,4.5744,4.5744,4.5744,4.5744,4.5871,4.5947,4.5947,4.6073,4.6147,4.6122,4.5546,4.5276,4.5276,4.5276,4.5276,4.5303,4.5912,4.6147,4.6147,4.6147,4.6147,4.6147,4.6147,4.5416,4.4288,4.3616,4.2935,4.2268,4.1605,4.0932,4.0351,4.0245,4.0195,4.022,4.0326,4.0375,4.04,4.0504,4.0552,4.0497,4.0245,4.017,4.017,4.0195,4.0319,4.0424,4.0552,4.0577,4.0504,4.0375,3.9927,3.9584,3.9584,3.953,3.9432,3.9292,3.8904,3.8916,3.9586,3.8497,3.7793,3.7939,3.7416,3.6845,3.631,3.628,3.628,3.628,3.628,3.628,3.6301,3.6301,3.6301,3.6301,3.6981,3.7626,3.823,3.9359,4.021,4.4196,4.4904,4.5565,4.5911,4.6265,4.6363,4.6013,4.598,4.5879,4.5476,4.5088,4.4819,4.4853,4.4929,4.5055,4.5179,4.5616,4.5972,4.6048,4.5998,4.5922,4.5922,4.5821,4.5718,4.5718,4.5528,4.5397,4.5397,4.545,4.5476,4.5476,4.5502,4.5528,4.5528,4.5528,4.5581,4.5684,4.5693,4.5821,4.5998,4.6048,4.6023,4.5922,4.5727,4.5684,4.576,4.576,4.5811,4.5912,4.6122,4.6196,4.6196,4.6196,4.6196,4.6196,4.6196,4.5938,4.5511,4.4896,4.3863,4.2816,4.255,4.1648,4.0754,4.1146,4.1277,4.1192,4.0896,4.0814,4.0797,4.0546,4.0407,4.0407,4.0778,4.0731,4.0683,4.1053,4.1146,4.1123,4.0913,4.0866,4.0754,4.0449,4.0252,4.0228,4.048,4.0351,4.0269,4.0417,4.0381,4.0236,3.9995,3.9289,3.8489,3.7621,3.7341,3.6972,3.6331,3.6301,3.6301,3.6301,3.6301,3.6301,3.6301,3.6557,3.6698,3.6698,3.7183,3.8033,3.9217,3.9501,4.0309,4.5381,4.6013,4.6488,4.6825,4.6908,4.6817,4.6531,4.6459,4.6339,4.6013,4.5383,4.4938,4.4986,4.4907,4.4795,4.4676,4.5145,4.5571,4.5653,4.5628,4.5708,4.5963,4.5922,4.5846,4.5795,4.5607,4.5476,4.5476,4.5476,4.545,4.5397,4.5397,4.5397,4.5397,4.5397,4.545,4.5528,4.5581,4.5693,4.5922,4.5922,4.5871,4.5795,4.5795,4.5846,4.5922,4.5922,4.5972,4.6048,4.6097,4.6122,4.6122,4.6172,4.6196,4.6196,4.6196,4.6196,4.6147,4.5768,4.4858,4.3812,4.3437,4.2523,4.1563,4.1697,4.1736,4.167,4.1368,4.1311,4.1288,4.1036,4.0873,4.0879,4.1323,4.1255,4.1169,4.1538,4.1648,4.1604,4.134,4.1295,4.1209,4.0943,4.0849,4.0873,4.099,4.1094,4.1168,4.1162,4.1248,4.1136,4.0647,4.0145,3.9373,3.8196,3.7874,3.7471,3.6753,3.6739,3.6739,3.6739,3.6739,3.6739,3.6739,3.6978,3.7113,3.7095,3.7359,3.8233,3.9645,3.9706,4.056,4.6136,4.647,4.6566,4.6892,4.6976,4.6976,4.6954,4.6931,4.6913,4.6855,4.619,4.5664,4.5756,4.5372,4.4859,4.4274,4.4523,4.4766,4.4766,4.4872,4.5201,4.591,4.5998,4.5947,4.5821,4.5693,4.5632,4.5632,4.5607,4.5528,4.5397,4.5397,4.5397,4.5397,4.5423,4.5423,4.5397,4.5528,4.5641,4.577,4.5787,4.5787,4.577,4.577,4.577,4.5795,4.5795,4.5795,4.5795,4.5922,4.5998,4.5998,4.6122,4.6172,4.6196,4.6196,4.6196,4.6196,4.6196,4.5802,4.5141,4.4249,4.3481,4.274,4.1907,4.1639,4.1626,4.1758,4.178,4.1841,4.1945,4.1902,4.1801,4.1801,4.1692,4.1604,4.1604,4.1692,4.178,4.178,4.178,4.178,4.178,4.1692,4.152,4.1128,4.1717,4.2074,4.1609,4.1525,4.1525,4.1525,4.0997,4.0341,3.9628,3.9006,3.8339,3.7594,3.7523,3.7505,3.7505,3.7505,3.7505,3.7505,3.7523,3.7542,3.7542,3.756,3.8252,3.9587,4.0033,4.0933,4.6834,4.7363,4.7837,4.7921,4.7935,4.7836,4.7506,4.7421,4.7155,4.6208,4.5374,4.4624,4.4053,4.4139,4.4219,4.4089,4.4883,4.5525,4.5525,4.555,4.5645,4.5829,4.5947,4.5972,4.5947,4.5998,4.5998,4.5897,4.5632,4.5423,4.5397,4.5502,4.5554,4.5554,4.5658,4.5641,4.5554,4.5563,4.5581,4.5502,4.5589,4.5607,4.5502,4.5502,4.5554,4.5641,4.5641,4.5693,4.5795,4.5821,4.5846,4.5846,4.5897,4.5972,4.6048,4.6048,4.6122,4.6196,4.6196,4.573,4.511,4.4852,4.391,4.2768,4.2552,4.2078,4.1604,4.1648,4.1714,4.1819,4.1841,4.1841,4.1801,4.1801,4.1692,4.1604,4.1604,4.1626,4.1648,4.1648,4.1648,4.1648,4.1648,4.1909,4.2082,4.198,4.2396,4.2537,4.2095,4.2032,4.2032,4.2032,4.1562,4.101,4.0376,3.9684,3.9004,3.8357,3.779,3.7505,3.7505,3.7505,3.7505,3.7505,3.7791,3.7948,3.7948,3.8252,3.9137,4.0544,4.0616,4.1452,4.7516,4.7957,4.8306,4.8306,4.8306,4.8137,4.7538,4.7387,4.707,4.6011,4.5156,4.4449,4.3998,4.425,4.4337,4.3784,4.4689,4.5374,4.5164,4.5189,4.5336,4.5684,4.5821,4.5897,4.5821,4.5897,4.5897,4.5821,4.5718,4.5607,4.5502,4.5554,4.5563,4.5528,4.5581,4.5632,4.5607,4.5554,4.5502,4.5502,4.5502,4.5476,4.5397,4.5397,4.545,4.5502,4.5502,4.5537,4.5632,4.5693,4.5693,4.5718,4.5787,4.5846,4.5897,4.5897,4.5947,4.6023,4.6097,4.5842,4.5439,4.5196,4.4518,4.3693,4.3026,4.2482,4.2061,4.171,4.1648,4.1714,4.178,4.1758,4.1714,4.1797,4.1692,4.1604,4.1604,4.1604,4.1604,4.1604,4.1604,4.1604,4.1604,4.1995,4.2308,4.2308,4.265,4.2788,4.2537,4.2498,4.2498,4.2498,4.2279,4.1856,4.1207,4.08,4.0124,3.9103,3.8653,3.8256,3.7896,3.7912,3.7947,3.7947,3.8218,3.8368,3.8368,3.8878,3.9733,4.0857,4.1155,4.1905,4.8122,4.8306,4.8306,4.8306,4.8306,4.8104,4.7278,4.7094,4.6837,4.5938,4.5186,4.4654,4.4562,4.4908,4.4877,4.3856,4.4531,4.5075,4.4887,4.481,4.5018,4.565,4.5866,4.584,4.5607,4.5632,4.5632,4.5632,4.5846,4.5897,4.5658,4.5641,4.5607,4.5476,4.545,4.5476,4.5607,4.5476,4.545,4.5581,4.545,4.5397,4.5397,4.5397,4.5397,4.5397,4.5397,4.5397,4.5397,4.5528,4.5563,4.5581,4.5693,4.5744,4.577,4.577,4.577,4.5838,4.5922,4.5972,4.5893,4.5418,4.5185,4.4852,4.3518,4.3044,4.2798,4.2096,4.192,4.1925,4.2053,4.1991,4.1925,4.2036,4.2009,4.192,4.192,4.1832,4.1727,4.1622,4.1604,4.1604,4.1648,4.2016,4.2308,4.2328,4.267,4.2901,4.2901,4.2901,4.2901,4.2901,4.2901,4.2648,4.2087,4.196,4.1323,3.9989,3.9714,3.9294,3.8599,3.8517,3.8494,3.8494,3.8593,3.8713,3.8808,3.9388,4.011,4.0955,4.1595,4.225,4.8269,4.8306,4.8306,4.8306,4.8306,4.8104,4.7278,4.7094,4.6672,4.5223,4.48,4.4507,4.3828,4.4526,4.5357,4.5784,4.593,4.6407,4.7594,4.6882,4.6278,4.6416,4.6523,4.6343,4.5658,4.5693,4.5787,4.5787,4.5897,4.5922,4.577,4.5871,4.5922,4.5897,4.5667,4.5581,4.5607,4.5476,4.5397,4.5423,4.5397,4.5397,4.5397,4.5397,4.5397,4.5397,4.5397,0.0,4.5397,4.5423,4.5423,4.5423,4.545,4.5528,4.5615,4.5615,4.5693,4.5795,4.5821,4.5821,4.5854,4.5982,4.5607,4.5045,4.4782,4.4237,4.3676,4.3535,4.35,4.35,4.3523,4.3523,4.35,4.3523,4.3523,4.35,4.35,4.3026,4.2412,4.1727,4.1604,4.1648,4.1827,4.2103,4.2348,4.253,4.2747,4.2901,4.2901,4.2901,4.2901,4.2901,4.2901,4.2847,4.2739,4.2232,4.1778,4.1505,4.0301,3.9531,3.9404,3.8745,3.8415,3.8415,3.843,3.8777,3.9453,3.9564,4.0336,4.1705,4.1832,4.225,4.8306,4.8306,4.8306,4.8306,4.8306,4.7994,4.6764,4.6489,4.603,4.4415,4.4085,4.4085,4.4121,4.4913,4.5745,4.6307,4.6802,4.7307,4.7817,4.7464,4.7182,4.7182,4.6892,4.6539,4.6159,4.5797,4.5632,4.5693,4.5761,4.577,4.5693,4.5693,4.5693,4.5693,4.5632,4.5615,4.5693,4.5658,4.5641,4.5693,4.5581,4.5502,4.5502,4.5423,4.5397,4.5397,4.5397,4.5397,4.5397,4.5397,4.5397,4.5397,4.5397,4.545,4.5502,4.5502,4.5528,4.5607,4.5667,4.571,4.5718,4.5922,4.5803,4.5485,4.5124,4.4786,4.4431,4.4009,4.3904,4.3904,4.3904,4.3904,4.3904,4.3904,4.3904,4.3904,4.3904,4.3623,4.3149,4.2377,4.2219,4.2163,4.1941,4.2124,4.2369,4.257,4.2767,4.2901,4.2901,4.2901,4.2901,4.2901,4.2901,4.2901,4.2901,4.2612,4.225,4.1814,4.1089,4.0507,4.0089,3.9758,3.9592,3.9592,3.9624,3.9841,4.0242,4.061,4.1195,4.1905,4.225,4.2594,4.8251,4.8306,4.8306,4.8306,4.8306,4.7884,4.6269,4.5902,4.5443,4.3845,4.3515,4.3736,4.4562,4.5369,4.6084,4.6704,4.7421,4.7932,4.7957,4.791,4.7862,4.7924,4.7286,4.6786,4.6631,4.5862,4.545,4.5554,4.5554,4.5581,4.5658,4.5528,4.545,4.545,4.5528,4.5607,4.5718,4.5718,4.5787,4.5871,4.5684,4.5563,4.5537,4.5476,4.545,4.545,4.5397,4.5423,4.545,4.5397,4.5397,4.5397,4.5397,4.5397,4.5397,4.5397,4.5397,4.5423,4.5528,4.5554,4.5563,4.5667,4.5821,4.5843,4.5274,4.5173,4.5131,4.4523,4.4348,4.4348,4.4395,4.4395,4.4395,4.4395,4.4395,4.4343,4.4185,4.415,4.3939,4.3184,4.2926,4.2722,4.231,4.2294,4.243,4.2631,4.2805,4.2901,4.2901,4.2901,4.2901,4.2901,4.2901,4.2901,4.2901,4.2901,4.2629,4.1994,4.1795,4.1452,4.0906,4.0812,4.0789,4.0874,4.0923,4.0998,4.1096,4.1684,4.2013,4.2123,4.2648,4.2939,4.8104,4.8306,4.8306,4.8306,4.8306,4.7884,4.6269,4.5902,4.5443,4.3845,4.3515,4.3736,4.4562,4.5369,4.6379,4.7882,4.7854,4.8221,4.9882,4.9094,4.8416,4.8659,4.8034,4.7355,4.6665,4.5862,4.5397,4.5423,4.5423,4.5528,4.577,4.5641,4.5581,4.5581,4.5476,4.5423,4.5423,4.5423,4.545,4.545,4.5537,4.5528,4.5423,4.5528,4.5581,4.5563,4.545,4.5476,0.0,4.545,4.5397,4.5397,4.5397,4.5397,4.5397,4.5397,4.5397,4.5397,4.5423,4.5423,4.5423,4.5423,4.5607,4.5821,4.5751,4.5734,4.5767,4.578,4.5813,4.5838,4.5961,4.5986,4.5986,4.5986,4.5986,4.581,4.5133,4.4992,4.4746,4.3939,4.3419,4.3111,4.3234,4.2895,4.2631,4.2825,4.2882,4.2901,4.2901,4.2901,4.2901,4.2901,4.2901,4.2901,4.2901,4.2901,4.2883,4.2792,4.2103,4.1796,4.2034,4.1352,4.1125,4.1431,4.1427,4.165,4.2067,4.2141,4.2391,4.281,4.2883,4.3069,4.8067,4.8306,4.8306,4.8306,4.7938,4.7278,4.6159,4.5535,4.4856,4.3718,4.3515,4.3883,4.5186,4.5681,4.6434,4.8049,4.8277,4.8518,4.9275,4.9507,4.9645,4.9757,4.908,4.8371,4.7797,4.6881,4.6193,4.5905,4.5589,4.545,4.5537,4.5502,4.5476,4.5476,4.5502,4.5528,4.5528,4.5607,4.5658,4.5658,4.5615,4.5581,4.5528,4.5502,4.5528,4.5607,4.5537,4.5607,0.0,4.5581,4.5581,4.5615,4.5476,4.545,4.5502,4.5423,4.5397,4.5397,4.5397,4.5397,4.5397,4.5397,4.5476,4.5563,4.5658,4.5736,4.5795,4.5871,4.5947,4.5998,4.5972,4.6023,4.6073,4.6073,4.6147,4.6126,4.5828,4.5886,4.5758,4.4964,4.4764,4.4492,4.3754,4.3465,4.3246,4.2936,4.2901,4.2958,4.3178,4.3195,4.3284,4.3473,4.3142,4.2901,4.2901,4.305,4.3142,4.3142,4.2992,4.2965,4.3098,4.3328,4.3534,4.3661,4.4169,4.4546,4.4716,4.4716,4.4816,4.4995,4.4995,4.5081,4.7737,4.8122,4.8306,4.8306,4.77,4.6892,4.6085,4.5278,4.447,4.3663,4.3515,4.392,4.5296,4.5736,4.6342,4.7718,4.8306,4.8623,4.8692,4.9392,4.9943,5.0024,4.9329,4.8816,4.8738,4.782,4.6973,4.6253,4.5854,4.5563,4.5397,4.5397,4.5397,4.5397,4.5502,4.5554,4.5554,4.5615,4.5667,4.5667,4.5632,4.5581,4.5554,4.5476,4.5502,4.5607,4.5607,4.5641,0.0,4.5658,4.5632,4.5684,4.5528,4.5528,4.5589,4.5554,4.5502,4.545,4.545,4.5423,4.5397,4.5397,4.5528,4.5667,4.5744,4.5829,4.5922,4.5972,4.6055,4.6122,4.5871,4.5871,4.5998,4.6161,4.6284,4.6405,4.6584,4.6794,4.6793,4.627,4.6184,4.589,4.495,4.4483,4.407,4.3634,4.3359,4.3266,4.3507,4.354,4.364,4.3881,4.3491,4.3287,4.356,4.3975,4.4209,4.4192,4.4125,4.4147,4.4228,4.4623,4.4888,4.4982,4.5581,4.5845,4.5751,4.5751,4.5704,4.5591,4.5591,4.5802,4.6892,4.7681,4.8306,4.8306,4.77,4.6892,4.6085,4.5278,4.447,4.3663,4.3515,4.3736,4.4562,4.5369,4.6177,4.6984,4.7773,4.8387,4.8662,4.8724,4.8834,4.9174,4.8503,4.8306,4.9121,4.852,4.7565,4.6288,4.6186,4.5955,4.5423,4.5397,4.5397,4.5397,4.5397,4.5397,4.5397,4.5397,4.5397,4.5397,4.5528,4.5528,4.5397,4.5554,4.5607,4.5607,4.5607,4.5607,0.0,4.5607,4.5528,4.5423,4.5554,4.5607,4.5632,4.5761,4.5693,4.5607,4.5607,4.5502,4.5397,4.5397,4.5752,4.6186,4.6186,4.6186,4.6211,4.6374,4.6495,4.6471,4.5947,4.5795,4.5955,4.656,4.6683,4.6873,4.7536,4.7681,4.7745,4.7947,4.7499,4.7095,4.7147,4.6062,4.5191,4.5172,4.4451,4.3896,4.3896,4.3896,4.3896,4.3896,4.3896,4.4231,4.5098,4.5913,4.6327,4.6263,4.5523,4.5194,4.5465,4.4659,4.4374,4.4699,4.4717,4.4546,4.421,4.421,4.4045,4.3732,4.3732,4.4398,4.6067,4.6471,4.6654,4.6654,4.6049,4.5388,4.5149,4.4452,4.3809,4.3551,4.3515,4.3736,4.4562,4.5369,4.6159,4.6966,4.7773,4.8321,4.8422,4.9407,5.017,5.0296,4.976,4.9386,4.9474,4.8137,4.7249,4.716,4.656,4.6112,4.5955,4.5589,4.5397,4.5397,4.5397,4.5397,4.5397,4.5397,4.5397,4.5397,4.545,4.545,4.5397,4.545,4.5528,4.5607,4.5607,4.5641,4.5718,4.5658,4.5846,4.6204,4.608,4.6242,4.6578,4.6211,4.6055,4.5955,4.5589,4.5423,4.5397,4.5397,4.5752,4.6211,4.6211,4.6411,4.6719,4.6835,4.6835,4.6719,4.6308,4.6453,4.6649,4.6531,4.6812,4.7218,4.7569,4.7738,4.7902,4.8101,4.8182,4.8031,4.7492,4.7094,4.6455,4.5358,4.4968,4.4656,4.4288,4.4242,4.4327,4.4557,4.5111,4.5153,4.4386,4.527,4.5817,4.5761,4.6195,4.6487,4.6525,4.6302,4.6238,4.6341,4.6396,4.635,4.6248,4.6248,4.6473,4.6915,4.6915,4.7458,4.5241,4.5663,4.5902,4.5902,4.5296,4.4691,4.4691,4.4085,4.3515,4.3515,4.3515,4.3662,4.4158,4.5149,4.6067,4.6562,4.759,4.8416,4.8746,4.9682,5.0343,5.0343,5.0047,4.9638,4.9149,4.8374,4.7828,4.7609,4.7071,4.6654,4.6483,4.6144,4.5988,4.5988,4.5615,4.5397,4.5397,4.5397,4.5397,4.5397,4.5397,4.5397,4.5397,4.5397,4.545,4.5528,4.5581,4.5632,0.0,4.5846,4.613,4.6471,4.6525,4.6765,4.7062,4.6742,4.6578,4.6459,4.5938,4.5854,4.5938,4.5752,4.6168,4.6753,4.6936,4.7071,4.7182,4.7266,4.7244,4.7071,4.6695,4.6812,4.7017,4.6931,4.7218,4.7606,4.8038,4.8233,4.8403,4.8675,4.8903,4.8891,4.8399,4.8093,4.7564,4.6554,4.5911,4.5419,4.5076,4.4778,4.4681,4.487,4.5388,4.5324,4.4355,4.55,4.6252,4.6171,4.6774,4.7104,4.7037,4.7051,4.7047,4.7047,4.6784,4.6643,4.6643,4.6341,4.6591,4.7401,4.773,4.8367,0.0,4.5168,4.5736,4.5736,4.5168,4.4617,4.4617,4.403,0.0,4.3515,4.3515,4.3515,4.3515,4.4819,4.5902,4.5902,4.726,4.86,4.9482,4.9647,4.9665,4.961,4.961,4.9262,4.8379,4.9022,4.8994,4.7728,4.7611,4.7421,4.6959,4.6908,4.6908,4.6908,4.5995,4.5485,4.545,4.545,4.545,4.5397,4.5397,4.5397,4.5397,4.545,4.545,0.0,4.5615,4.5589,4.5528,4.6161,4.6381,4.6363,4.6926,4.7151,4.7196,4.7302,4.724,4.7062,4.6596,4.6649,4.684,4.6435,4.689,4.7674,4.8152,4.7995,4.7653,4.7653,4.7653,4.7548,4.7071,4.6959,4.7115,4.765,4.7813,4.8037,4.8837,4.8991,4.911,4.9514,4.9608,4.9623,4.9678,4.9032,4.8471,4.8395,4.7181,4.6233,4.6119,4.5452,4.4959,4.4902,4.4902,4.4902,4.4902,4.6392,4.7295,4.7222,4.7205,4.7193,4.7203,4.7074,4.703,4.7087,4.6223,4.5791,4.5791,4.4984,4.5003,4.581,4.6629,4.7466,4.3718,0.0,4.4048,4.4048,4.392,4.3773,0.0,4.3626,4.3515,4.3515,4.3515,4.3515,4.3515,4.4819,4.5902,4.5902,4.726,4.86,4.9482,5.0123,5.0288,4.9665,4.961,4.9262,4.8379,4.8489,4.8469,4.817,4.7795,4.7548,4.7442,4.7111,4.6908,4.6908,4.6678,4.6387,4.603,4.6013,4.5803,4.5397,4.5397,4.5397,4.5423,4.5829,4.5778,4.5432,4.6242,4.6387,4.6038,4.6578,4.6976,4.7291,4.7421,4.7713,4.7975,4.765,4.7506,4.7421,4.6954,4.684,4.6954,4.7204,4.7421,4.7674,4.8152,4.821,4.8132,4.8132,4.8132,4.8015,4.7548,4.7713,4.7915,4.7713,4.7935,4.8307,4.882,4.8907,4.9046,4.9459,4.9563,4.9608,4.9623,4.9512,4.9164,4.8504,4.8103,4.7418,4.6172,4.5865,4.55,4.4807,4.4751,4.4751,4.4751,4.5811,4.6443,4.6384,4.6944,4.7499,4.7993,4.74,4.7333,4.7913,4.7105,4.6692,4.6692,4.5848,4.5866,4.6692,4.6237,4.6815,4.3515,4.3515,4.3515,4.3515,4.3515,4.3515,4.3515,4.3515,4.3515,4.3515,4.3515,4.3515,4.3515,4.5112,4.6342,4.5957,4.7902,4.9609,5.0068,5.0196,5.0106,4.9647,4.9262,4.882,4.8361,4.8306,4.8306,4.8306,4.8055,4.7917,4.7917,4.7692,4.7545,4.7545,4.7545,4.7204,4.6531,4.6531,4.6387,4.6094,4.6094,4.6094,4.6094,4.6387,4.6363,4.6119,4.6654,4.6747,4.6578,4.7026,4.7378,4.7611,4.7836,4.8093,4.8267,4.8015,4.7917,4.7856,4.7378,4.7226,4.7291,4.7775,4.7917,4.7975,4.821,4.8306,4.8306,4.8306,4.8306,4.823,4.7995,4.8113,4.8248,4.7975,4.8173,4.8514,4.882,4.8978,4.9131,4.9443,4.9536,4.9548,4.9548,4.9578,4.9457,4.8972,4.8587,4.8032,4.7165,4.6434,4.5825,4.5353,4.4938,4.4712,4.4712,4.5192,4.5514,4.5457,4.6191,4.6778,4.7127,4.7084,4.7243,4.7631,4.6824,4.6599,4.7012,4.6129,4.6336,4.7537,4.6692,4.6974,4.3515,4.3589,4.3662,4.3533,4.3515,4.3515,4.3515,4.3515,4.3515,4.3515,4.3515,4.3551,4.3644,4.5461,4.6727,4.6177,4.8746,5.0802,5.0802,5.0196,4.9702,4.9445,4.8746,4.8251,4.8141,4.8233,4.8306,4.8306,4.8306,4.8306,4.8306,4.8306,4.8306,4.8306,4.8306,4.7915,4.7133,4.7026,4.6976,4.6908,4.6908,4.6908,4.6908,4.6959,4.6976,4.6908,4.7066,0.0,4.7026,4.7506,4.7713,4.7754,4.8152,4.8306,4.8306,4.8306,4.8306,4.823,4.7836,4.7713,4.7775,4.8172,4.8306,4.8306,4.8306,4.8306,4.8306,4.8306,4.8306,4.8306,4.8306,4.8306,4.8306,4.8306,4.8439,4.866,4.8874,4.9062,4.9262,4.9459,4.9509,4.9509,4.9509,4.9509,4.9509,4.9509,4.8931,4.8449,4.8299,4.7151,4.6232,4.5986,4.5275,4.4804,4.4672,4.4672,4.4672,4.4672,4.5286,4.5692,4.5791,4.6571,4.7012,4.7012,4.6279,4.6261,4.7012,4.6129,4.643,4.78,4.6993,4.7049,4.3515,4.3993,4.436,4.3663,4.3515,4.3515,4.3515,4.3515,4.3515,4.3515,4.3515,4.3699,4.4397,4.5388,4.6269,4.6819,4.9114,5.0802,5.0802,5.0692,5.0086,4.8673,4.8379,4.8031,4.7351,4.7901,4.8306,4.8306,4.8306,4.8306,4.8306,4.8306,4.8306,4.8306,4.8306,4.823,4.8093,4.7692,4.7291,4.6908,4.6908,4.6908,4.6908,4.7313,4.727,4.6954,0.0,4.7856,4.7527,4.7995,4.8191,4.8191,4.8267,4.8306,4.8306,4.8306,4.8306,4.8287,4.8229,4.8191,4.8191,4.8287,4.8306,4.8306,4.8306,4.8306,4.8306,4.8306,4.8306,4.8306,4.8306,4.8306,4.8306,4.8306,4.8439,4.866,4.8874,4.9062,4.9262,4.9459,4.9509,4.9509,4.9509,4.9509,4.9509,4.9509,4.9393,4.9055,4.8303,4.7999,4.7319,4.5909,4.5632,4.5275,4.4599,4.4542,4.4542,4.4542,4.4745,4.5149,4.5772,4.6571,4.7012,4.7012,4.688,4.688,4.7012,4.6129,4.5829,4.6054,4.5266,4.5308,4.3515,4.3754,4.4066,4.4121,4.447,4.48,4.48,4.48,4.4672,4.4232,4.4158,4.4268,4.4635,4.6085,4.7755,4.9481,4.9976,5.0141,5.0141,4.9756,4.9169,4.8398,4.8306,4.8159,4.7773,4.8067,4.8306,4.8306,4.8306,4.8306,4.8306,4.8306,4.8306,4.8306,4.8306,4.8306,4.8306,4.8093,4.7856,4.765,4.765,4.765,4.7671,4.7877,4.7856,4.7671,0.0,4.8172,4.7995,4.821,4.8306,4.8306,4.8306,4.8306,4.8306,4.8306,4.8306,4.8306,4.8306,4.8306,4.8306,4.8306,4.8306,4.8306,4.8306,4.8306,4.8306,4.8306,4.8306,4.8306,4.8306,4.8306,4.8306,4.8306,4.855,4.8785,4.8891,4.9148,4.9377,4.9474,4.9509,4.9509,4.9509,4.9509,4.9509,4.9509,4.9509,4.9358,4.8945,4.8495,4.7894,4.7124,4.6655,4.6054,4.5228,4.5153,4.4951,4.4519,4.457,4.4748,4.5082,4.5449,4.5848,4.6298,4.5885,4.6077,4.7012,4.6129,4.5941,4.6392,4.5547,4.5359,4.3515,4.3626,4.392,4.4562,4.5021,4.5443,4.581,4.5755,4.5498,4.5076,4.4984,4.4984,4.4984,4.6654,4.871,5.0784,5.0271,4.9665,4.9867,4.9132,4.86,4.86,4.8416,4.8306,4.8306,4.8306,4.8306,4.8306,4.8306,4.8306,4.8306,4.8306,4.8306,4.8306,4.8306,4.8306,4.8306,4.8306,4.8306,4.8306,4.8306,4.8306,4.8306,4.8306,4.8306,4.8306,4.8306,4.8306,4.8306,4.8306,4.8306,4.8306,4.8306,4.8306,4.8306,4.8306,4.8306,4.8306,4.8306,4.8306,4.8306,4.8306,4.8306,4.8306,4.8306,4.8306,4.8306,4.8306,4.8306,4.8306,4.8306,4.8306,4.8306,4.8363,4.8642,4.8926,4.896,4.9246,4.9509,4.9509,4.9509,4.9509,4.9509,4.9509,4.9509,4.9509,4.9509,4.9509,4.9509,4.8927,4.842,4.8213,4.765,4.6843,4.5791,4.5697,4.5359,4.4538,4.4501,4.4501,4.4501,4.4501,4.4782,4.5416,4.4801,4.512,4.6396,4.5735,4.5772,4.6411,4.5735,4.5416,4.3515,4.4048,4.4635,4.469,4.4176,4.4048,4.5553,4.5333,4.4984,4.5663,4.581,4.581,4.581,4.6562,4.748,4.8416,4.915,4.9867,5.0618,5.0013,4.9519,4.9519,4.8783,4.8306,4.8306,4.8306,4.8306,4.8306,4.8306,4.8306,4.8306,4.8306,4.8306,4.8306,4.8306,4.8306,4.8306,4.8306,4.8306,4.8306,4.8306,4.8306,4.8306,4.8306,4.8306,4.8306,4.8306,4.8306,4.8306,4.8306,4.8306,4.8306,4.8306,4.8306,4.8306,4.8306,4.8306,4.8306,4.8306,4.8306,4.8306,4.8306,4.8306,4.8306,4.8306,4.8306,4.8306,4.8306,4.8306,4.8306,4.8306,4.8306,4.8344,4.8532,4.875,4.896,4.9129,4.9345,4.9509,4.9509,4.9509,4.9509,4.9509,4.9509,4.9509,4.9509,4.9509,4.9509,4.9509,4.9452,4.9096,4.8288,4.8138,4.7462,4.5848,4.5697,4.5359,4.4538,4.4501,4.4501,4.4501,4.4501,4.4519,4.4576,4.4519,4.4557,4.467,4.4613,4.4613,4.467,4.4613,4.4576,4.3515,4.4085,4.4691,4.4691,4.447,4.4672,4.6287,4.6397,4.614,4.5938,4.6305,4.6636,4.6636,4.7755,4.8581,4.8343,4.9022,4.9537,4.9279,4.8985,4.8783,4.8783,4.8508,4.8306,4.8306,4.8306,4.8306,4.8306,4.8306,4.8306,4.8306,4.8306,4.8306,4.8306,4.8306,4.8306,4.8306,4.8306,4.8306,4.8306,4.8306,4.8306,4.8306,4.8306,4.8306,4.8306,4.8306,4.8306,4.8306,4.8306,4.8306,4.8306,4.8306,4.8306,4.8306,4.8306,4.8306,4.8306,4.8306,4.8306,4.8306,4.8306,4.8306,4.8325,4.8439,4.8495,4.8514,4.8642,4.8678,4.8624,4.8363,4.8306,4.8344,4.855,4.875,4.896,4.9164,4.9361,4.9509,4.9509,4.9509,4.9509,4.9509,4.9509,4.9509,4.9509,4.9509,4.9509,4.9509,4.9509,4.9377,4.9039,4.8514,4.7932,4.7312,4.6805,4.6148,4.5303,4.4782,4.4501,4.4501,4.4501,4.4501,4.4501,4.4473,4.4444,4.4444,4.4444,4.4444,4.4426,4.4487,4.4501,4.3883,4.4287,4.4746,4.5021,4.4892,4.5113,4.6727,4.6892,4.6709,4.6673,4.6874,4.7094,4.7094,4.8049,4.8618,4.8031,4.8636,4.8967,4.8379,4.8306,4.8306,4.8306,4.8306,4.8306,4.8306,4.8306,4.8306,4.8306,4.8306,4.8306,4.8306,4.8306,4.8306,4.8306,4.8306,4.8306,4.8306,4.8306,4.8306,4.8306,4.8306,4.8306,4.8306,4.8306,4.8306,4.8306,4.8306,4.8306,4.8306,4.8306,4.8306,4.8306,4.8306,4.8306,4.8306,4.8306,4.8306,4.8306,4.8306,4.8306,4.8306,4.8306,4.8306,4.8344,4.8532,4.8605,4.8641,4.8838,4.8909,4.8839,4.8569,4.8439,4.8458,4.8732,4.8838,4.8978,4.923,4.9393,4.9509,4.9509,4.9509,4.9509,4.9509,4.9509,4.9509,4.9509,4.9509,4.9509,4.9509,4.9509,4.9509,4.9509,4.8964,4.8495,4.8213,4.7706,4.703,4.6167,4.5589,4.5045,4.4519,4.4501,4.4501,4.4501,4.4426,4.4397,4.4397,4.4368,4.4373,4.4368,4.4416,4.4444,4.4691,4.4691,4.4893,4.5681,4.5296,4.5131,4.6727,4.6489,4.6379,4.7976,4.7663,4.7094,4.7094,4.7113,4.7113,4.7094,4.7773,4.8306,4.8306,4.8306,4.8306,4.8306,4.8306,4.8306,4.8306,4.8306,4.8306,4.8306,4.8306,4.8306,4.8306,4.8306,4.8306,4.8306,4.8306,4.8306,4.8306,4.8306,4.8306,4.8306,4.8306,4.8306,4.8306,4.8306,4.8306,4.8306,4.8306,4.8306,4.8306,4.8306,4.8306,4.8306,4.8306,4.8306,4.8306,4.8306,4.8306,4.8306,4.8306,4.8306,4.8306,4.8306,4.8306,4.8344,4.8532,4.8605,4.866,4.8838,4.8909,4.8909,4.8909,4.8767,4.8714,4.9113,4.9046,4.9012,4.9412,4.9509,4.9509,4.9509,4.9509,4.9509,4.9509,4.9509,4.9509,4.9509,4.9509,4.9509,4.9509,4.9509,4.9509,4.949,4.949,4.9152,4.8285,4.8228,4.7871,4.7068,4.703,4.6261,4.4576,4.4519,4.4519,4.4501,4.4444,4.4416,4.4416,4.4362,4.4318,4.4318,4.4318,4.4333,4.3864,4.4672,4.548,4.5149,4.5718,4.6562,4.7292,4.7076,4.7039,4.8086,4.7663,4.7094,4.7094,4.7553,4.7755,4.7186,4.7773,4.8306,4.8306,4.8306,4.8306,4.8306,4.8306,4.8306,4.8306,4.8306,4.8306,4.8306,4.8306,4.8306,4.8306,4.8306,4.8306,4.8306,4.8306,4.8306,4.8306,4.8306,4.8306,4.8306,4.8306,4.8306,4.8306,4.8306,4.8306,4.8306,4.8306,4.8306,4.8306,4.8306,4.8363,4.8438,4.8343,4.8363,4.8438,4.8325,4.8306,4.8306,4.8306,4.8306,4.8306,4.8306,4.8306,4.8363,4.8714,4.8803,4.8873,4.9232,4.9313,4.9313,4.9313,4.9181,4.9062,4.9162,4.9146,4.9181,4.9443,4.9509,4.9509,4.9509,4.9509,4.9509,4.9509,4.9509,4.9509,4.9509,4.9509,4.9509,4.9509,4.9509,4.9544,4.9707,4.9717,4.9687,4.9619,4.9613,4.9175,4.8199,4.8129,4.7296,4.5416,4.5941,4.5979,4.5359,4.5888,4.6113,4.6015,4.6233,4.629,4.6196,4.6484,4.6297,4.4764,4.5513,4.6134,4.63,4.6922,4.7632,4.8164,4.8124,4.8065,4.8421,4.8108,4.7721,4.7609,4.7957,4.8141,4.7663,4.7994,4.8306,4.8306,4.8306,4.8306,4.8306,4.8306,4.8306,4.8306,4.8306,4.8306,4.8306,4.8306,4.8306,4.8306,4.8306,4.8306,4.8306,4.8306,4.8306,4.8306,4.8306,4.8306,4.8306,4.8306,4.8306,4.8306,4.8306,4.8306,4.8306,4.8306,4.8306,4.8306,4.8306,4.8363,4.8401,4.8325,4.8363,4.8401,4.8325,4.8306,4.8306,4.8306,4.8267,4.8267,4.8287,4.8267,4.8343,4.8767,4.8909,4.8978,4.9396,4.9509,4.9509,4.9509,4.9412,4.9329,4.9329,4.9262,4.9262,4.9459,4.9509,4.9509,4.9509,4.9509,4.9509,4.9509,4.9509,4.9509,4.9509,4.9509,4.9509,4.9509,4.9559,4.9683,4.979,4.991,5.0152,5.0672,5.0715,5.0579,5.026,5.0228,4.9371,4.7447,4.7231,4.6896,4.6401,4.6895,4.7127,4.7024,4.7189,4.721,4.7124,4.7365,4.7198,4.6526,4.6721,4.688,4.8367,4.848,4.8442,4.9194,4.936,4.9302,4.8917,4.885,4.8746,4.8439,4.8364,4.8344,4.8344,4.8325,4.8306,4.8306,4.8306,4.8306,4.8306,4.8306,4.8306,4.8306,4.8306,4.8306,4.8306,4.8306,4.8306,4.8306,4.8306,4.8306,4.8306,4.8306,4.8306,4.8306,4.8306,4.8306,4.8306,4.8306,4.8306,4.8306,4.8306,4.8306,4.8306,4.8306,4.8306,4.8306,4.8306,4.8306,4.8306,4.8306,4.8306,4.8306,4.8306,4.8287,4.8287,4.8287,4.8247,4.8187,4.8248,4.8228,4.8285,4.8732,4.8873,4.8978,4.9377,4.949,4.9474,4.9509,4.949,4.9474,4.9509,4.9361,4.9279,4.9459,4.9509,4.9509,4.9509,4.9509,4.9509,4.9509,4.9509,4.9509,4.9509,4.9577,4.9649,4.9649,4.9892,5.0066,5.0092,5.0309,5.0788,5.1618,5.1676,5.1982,5.2686,5.2743,5.1966,5.0233,4.8688,4.7789,4.7631,4.7834,4.7922,4.7853,4.7729,4.7642,4.7561,4.7605,4.7567,4.544,4.6461,4.7487,4.8097,4.8851,4.9475,4.9664,4.9903,4.9929,4.9317,4.9193,4.9177,4.9097,4.8866,4.8676,4.8676,4.8458,4.8306,4.8306,4.8306,4.8306,4.8306,4.8306,4.8306,4.8306,4.8306,4.8306,4.8306,4.8306,4.8306,4.8306,4.8306,4.8306,4.8306,4.8306,4.8306,4.8306,4.8306,4.8306,4.8306,4.8306,4.8306,4.8306,4.8306,4.8306,4.8306,4.8306,4.8306,4.8306,4.8306,4.8363,4.8438,4.8343,4.8363,4.8438,4.8343,4.8267,4.8226,4.8226,4.813,4.805,4.8052,4.8052,4.8131,4.8605,4.8748,4.8854,4.9361,4.9424,4.9374,4.9474,4.9424,4.9374,4.9474,4.9459,4.9443,4.949,4.9509,4.9509,4.9509,4.9509,4.9509,4.9509,4.9509,4.9509,4.9509,5.022,5.0757,5.0757,5.1541,5.216,5.2363,5.2447,5.2636,5.3048,5.3077,5.3051,5.3027,5.3016,5.2746,5.2131,5.1756,5.0875,4.9383,5.0214,5.0603,5.0474,4.9992,4.972,4.9664,4.9865,4.9602,4.5997,4.69,4.7761,4.8883,4.9606,5.0038,5.0038,5.0169,5.0212,4.9844,4.966,4.9498,4.9314,4.9161,4.9031,4.9031,4.8764,4.855,4.855,4.8402,4.8306,4.8306,4.8306,4.8306,4.8306,4.8306,4.8306,4.8306,4.8306,4.8306,4.8306,4.8306,4.8306,4.8306,4.8306,4.8306,4.8306,4.8306,4.8306,4.8306,4.8306,4.8306,4.8306,4.8306,4.8306,4.8306,4.8306,4.8306,4.8306,4.8306,4.8343,4.84,4.8343,4.8325,4.84,4.8343,4.8267,4.8187,4.8187,4.8088,4.7968,4.7992,4.797,4.803,4.8514,4.8677,4.8783,4.923,4.9327,4.9324,4.9374,4.9327,4.9276,4.9459,4.9509,4.9509,4.9509,4.9509,4.9509,4.9509,4.9509,4.9509,4.9509,4.9509,4.9683,5.0187,5.0738,5.1288,5.1795,5.2482,5.2963,5.3087,5.3205,5.351,5.4069,5.4116,5.4237,5.4467,5.4496,5.4197,5.3544,5.4007,5.3377,5.1484,5.2099,5.2191,5.1668,5.1365,5.0961,5.0488,5.0625,5.0462,4.6706,4.7475,4.8118,4.9854,5.0302,5.0302,5.0302,5.0302,5.0302,5.0302,5.0076,4.9784,4.9527,4.9439,4.9394,4.9394,4.9097,4.8883,4.8883,4.8658,4.8439,4.8402,4.8383,4.8364,4.8306,4.8306,4.8306,4.8306,4.8306,4.8306,4.8306,4.8306,4.8306,4.8306,4.8306,4.8306,4.8306,4.8306,4.8306,4.8306,4.8306,4.8306,4.8306,4.8306,4.8306,4.8306,4.8306,4.8306,4.8306,4.8306,4.8306,4.8306,4.8306,4.8306,4.8306,4.8306,4.8267,4.8187,4.8168,4.8046,4.7922,4.797,4.7968,4.8006,4.8495,4.8678,4.8766,4.9113,4.9228,4.9276,4.9273,4.9276,4.9292,4.9459,4.9505,4.9502,4.949,4.9509,4.949,4.9474,4.9459,4.9459,4.9502,4.9517,4.983,5.0784,5.1087,5.151,5.2401,5.2878,5.3147,5.3147,5.3347,5.3771,5.4506,5.4555,5.4912,5.5724,5.5763,5.5421,5.4707,5.5527,5.5218,5.3619,5.3672,5.3346,5.2569,5.2256,5.169,5.0942,5.0779,5.0693,4.5787,4.7377,4.9102,5.0061,5.0302,5.0302,5.0302,5.0302,5.0302,5.0302,5.0259,5.0224,5.0169,4.9929,4.973,4.973,4.9453,4.9221,4.9221,4.919,4.9064,4.8764,4.8729,4.8623,4.8344,4.8306,4.8306,4.8306,4.8306,4.8306,4.8306,4.8306,4.8306,4.8306,4.8306,4.8306,4.8306,4.8306,4.8306,4.8306,4.8306,4.8306,4.8306,4.8306,4.8306,4.8306,4.8306,4.8306,4.8306,4.8306,4.8306,4.8306,4.8306,4.8306,4.8306,4.8306,4.8267,4.8187,4.807,4.7968,4.7922,4.797,4.7992,4.809,4.8606,4.8787,4.8839,4.9113,4.9148,4.915,4.9276,4.938,4.9457,4.9487,4.954,4.9562,4.9521,4.9509,4.9474,4.9358,4.9276,4.9308,4.9562,4.9588,4.9726,5.0177,5.1023,5.1683,5.1831,5.2723,5.3368,5.3368,5.3387,5.3463,5.3579,5.3598,5.3963,5.4819,5.4813,5.5084,5.5759,5.5875,5.5808,5.5624,5.4953,5.4561,5.4437,5.2868,5.2043,5.1892,5.1086,5.0712,4.6493,4.7974,4.9289,5.0092,5.0302,5.0302,5.0302,5.0302,5.0302,5.0302,5.0302,5.0302,5.0302,5.0169,5.0076,5.0076,4.9803,4.957,4.957,4.9424,4.9256,4.9097,4.8917,4.8746,4.8586,4.842,4.8306,4.8306,4.8306,4.8306,4.8306,4.8306,4.8306,4.8306,4.8306,4.8306,4.8306,4.8306,4.8306,4.8306,4.8306,4.8306,4.8306,4.8306,4.8306,4.8306,4.8306,4.8306,4.8306,4.8306,4.8306,4.8306,4.8306,4.8306,4.8306,4.8306,4.8267,4.8187,4.805,4.7968,4.7922,4.797,4.7992,4.8092,4.855,4.8732,4.884,4.8995,4.9098,4.9164,4.9228,4.9365,4.9533,4.9634,4.9596,4.9588,4.9788,4.9574,4.9358,4.9457,4.9439,4.9533,4.9833,4.9874,5.0132,5.0882,5.1403,5.1935,5.2559,5.308,5.3406,5.3406,5.3406,5.3406,5.3406,5.3406,5.355,5.3954,5.3936,5.4303,5.519,5.5181,5.5413,5.5933,5.5632,5.5251,5.4793,5.3958,5.3045,5.2094,5.1634,5.1174,4.683,4.7888,4.8678,4.9729,5.0,5.0069,5.0256,5.0325,5.0337,5.0302,5.0302,5.0302,5.0302,5.0302,5.0302,5.0302,5.0088,4.9929,4.9929,4.9716,4.9527,4.9439,4.9209,4.9001,4.8816,4.8568,4.8383,4.8306,4.8306,4.8306,4.8306,4.8306,4.8306,4.8306,4.8306,4.8306,4.8306,4.8306,4.8306,4.8306,4.8306,4.8306,4.8306,4.8306,4.8306,4.8306,4.8306,4.8306,4.8306,4.8306,4.8306,4.8306,4.8306,4.8306,4.8306,4.8363,4.8344,4.8286,4.8209,4.8131,4.8088,4.8189,4.819,4.821,4.8569,4.875,4.884,4.8891,4.9079,4.926,4.9257,4.9469,4.9712,4.9824,4.9778,4.974,4.9927,4.9665,4.9442,4.9641,4.967,4.9754,5.007,5.031,5.0739,5.1623,5.1751,5.2064,5.2897,5.2848,5.2713,5.2713,5.2713,5.2713,5.2713,5.2713,5.281,5.304,5.3022,5.3388,5.4236,5.4256,5.4564,5.5229,5.5499,5.544,5.5088,5.4578,5.3684,5.2385,5.1895,5.1308,4.5862,4.6408,4.7035,4.8747,4.9207,4.9433,5.0134,5.0393,5.0438,5.0325,5.0302,5.0302,5.0302,5.0302,5.0302,5.0302,5.029,5.0259,5.0259,5.0248,5.0132,4.9817,4.9757,4.9498,4.8849,4.8781,4.8641,4.8325,4.8306,4.8306,4.8306,4.8306,4.8306,4.8306,4.8306,4.8306,4.8306,4.8306,4.8306,4.8306,4.8306,4.8306,4.8306,4.8306,4.8306,4.8306,4.8306,4.8306,4.8306,4.8306,4.8306,4.8306,4.8306,4.8306,4.8325,4.8514,4.8569,4.8587,4.8641,4.8623,4.8587,4.8733,4.8678,4.8605,4.882,4.8891,4.8891,4.8909,4.9144,4.9396,4.9469,4.983,5.0155,5.0089,5.0125,5.0056,4.9712,4.9749,4.987,4.9884,4.9844,4.9884,5.0147,5.0882,5.153,5.1844,5.1894,5.1904,5.1972,5.1308,5.0837,5.0837,5.0837,5.0837,5.0837,5.0837,5.1203,5.2011,5.2001,5.2405,5.3331,5.332,5.331,5.3427,5.4198,5.4988,5.5847,5.4178,5.332,5.3196,5.1549,5.0731,4.5805,4.6302,4.6787,4.7971,4.8739,4.9273,4.9537,5.0091,5.0545,5.0511,5.0489,5.0457,5.0325,5.0302,5.0302,5.0302,5.0302,5.0302,5.0302,5.0302,5.0267,5.0132,4.9942,4.9632,4.9177,4.8934,4.8658,4.8325,4.8306,4.8306,4.8306,4.8306,4.8306,4.8306,4.8306,4.8306,4.8306,4.8306,4.8306,4.8306,4.8306,4.8306,4.8306,4.8306,4.8306,4.8306,4.8306,4.8306,4.8306,4.8306,4.8306,4.8306,4.8306,4.8306,4.8325,4.8514,4.8605,4.8605,4.8677,4.8659,4.8605,4.8769,4.8715,4.8623,4.8838,4.8909,4.8909,4.8909,4.9174,4.9469,4.9499,4.9916,5.031,5.0197,5.0355,5.0421,5.0062,4.991,4.9897,5.0062,5.0068,5.0147,5.0472,5.0783,5.1188,5.1817,5.1904,5.2096,5.2654,5.2491,5.2087,5.1529,5.1471,5.126,5.075,5.0712,5.0827,5.1154,5.1135,5.152,5.2357,5.2375,5.2645,5.3214,5.3522,5.412,5.5075,5.4998,5.4661,5.4034,5.2897,5.204,4.533,4.5739,4.6172,4.7128,4.7867,4.8506,4.9039,4.9679,5.0191,5.0453,5.05,5.0457,5.0302,5.0267,5.0267,5.0243,5.0255,5.0267,5.0267,5.029,5.0302,5.0302,5.0088,4.9844,4.9498,4.9271,4.8951,4.8495,4.8458,4.842,4.8306,4.8306,4.8306,4.8306,4.8306,4.8306,4.8306,4.8306,4.8306,4.8306,4.8306,4.8306,4.8306,4.8306,4.8306,4.8306,4.8306,4.8306,4.8306,4.8306,4.8306,4.8306,4.8306,4.8306,4.8325,4.8587,4.8714,4.8732,4.8906,4.8907,4.882,4.8927,4.8839,4.8732,4.8909,4.9012,4.9077,4.9092,4.9404,4.9735,4.9735,5.0125,5.0481,5.0399,5.0544,5.0634,5.0421,5.0225,5.0155,5.0336,5.0369,5.0432,5.0663,5.0914,5.1279,5.1808,5.2154,5.2538,5.3126,5.3203,5.2991,5.2404,5.2327,5.201,5.1164,5.1106,5.1106,5.1106,5.0846,5.1048,5.1865,5.1635,5.1779,5.2356,5.2626,5.306,5.3697,5.4265,5.4236,5.3599,5.2801,5.2088,0.0,0.0,0.0,4.6156,4.6565,4.7106,4.8673,4.9133,4.9405,5.0126,5.0294,5.029,5.0231,5.02,5.0175,5.012,5.017,5.02,5.02,5.0267,5.0302,5.0302,5.0302,5.0169,4.983,4.9803,4.9531,4.8849,4.8816,4.8658,4.8344,4.8306,4.8306,4.8306,4.8306,4.8306,4.8306,4.8306,4.8306,4.8306,4.8306,4.8306,4.8306,4.8306,4.8306,4.8306,4.8306,4.8306,4.8306,4.8306,4.8306,4.8306,4.8306,4.8306,4.8344,4.875,4.8891,4.896,4.9345,4.9361,4.9214,4.9214,4.9062,4.8943,4.9066,4.9262,4.9427,4.9499,4.9844,5.0206,5.0206,5.0472,5.0712,5.0712,5.0712,5.0712,5.0712,5.0712,5.0712,5.0712,5.0712,5.0712,5.0712,5.1356,5.1865,5.1904,5.2635,5.3222,5.3241,5.326,5.326,5.3241,5.3241,5.2895,5.2,5.1904,5.1904,5.1904,5.1144,5.1048,5.1827,5.1144,5.075,5.075,5.1529,5.1923,5.1904,5.1923,5.1942,5.1923,5.1106,5.0731,4.4121,0.0,0.0,0.0,0.0,0.0,4.7218,4.8384,4.9394,4.9534,5.007,5.0468,5.0302,5.0278,5.0243,5.012,5.017,5.02,5.02,5.0267,5.0302,5.0302,5.0302,5.0169,4.983,4.9803,4.9613,0.0,4.8934,4.8764,4.8676,4.8421,4.8306,4.8306,4.8306,4.8306,4.8306,4.8306,4.8306,4.8306,4.8306,4.8306,4.8306,4.8306,4.8306,4.8306,4.8306,4.8306,4.8306,4.8306,4.8306,4.8306,4.8306,4.8306,4.8325,4.8605,4.8732,4.8857,4.9079,4.9131,4.9135,4.9135,4.9197,4.9273,4.9308,4.9484,4.9679,4.9707,4.9943,5.026,5.0493,5.0624,5.0712,5.0712,5.0712,5.0712,5.0712,5.0712,5.0712,5.0712,5.0712,5.0712,5.0712,5.0875,5.1221,5.1808,5.2635,5.3433,5.4068,5.4645,5.478,5.4203,5.4145,5.3799,5.2914,5.225,5.1904,5.1904,5.1144,5.0808,5.101,5.1375,5.1568,5.1568,5.2414,5.2519,5.1904,5.2519,5.2837,5.2818,5.1972,5.126,0.0,0.0,0.0,4.4559,0.0,0.0,4.6767,4.7802,4.8786,4.9567,5.0114,5.0435,5.029,5.0267,5.0231,5.012,5.017,5.02,5.02,5.0267,5.0302,5.0302,5.0302,5.0224,5.0038,5.0012,4.987,4.9527,4.9333,4.9099,4.8816,4.8477,4.8306,4.8306,4.8306,4.8306,4.8306,4.8306,4.8306,4.8306,4.8306,4.8306,4.8306,4.8306,4.8306,4.8306,4.8306,4.8306,4.8306,4.8306,4.8306,4.8306,4.8306,4.8306,4.8325,4.8587,4.8732,4.884,4.9044,4.9096,4.9118,4.926,4.9352,4.943,4.9573,4.9776,4.9987,5.0044,5.0214,5.0442,5.0653,5.0712,5.0712,5.0712,5.0712,5.0712,5.0712,5.0712,5.0712,5.0712,5.0712,5.0712,5.0712,5.0712,5.0856,5.1337,5.2125,5.2972,5.3857,5.4684,5.5145,5.5011,5.4991,5.4664,5.3818,5.328,5.2991,5.2991,5.2202,5.1914,5.226,5.2395,5.2442,5.2442,5.2953,5.2779,5.1904,5.2404,5.2491,5.2145,5.1645,5.1144,0.0,0.0,0.0,0.0,4.4374,0.0,4.6669,4.7156,4.7707,4.9475,4.9923,4.9968,4.9945,4.9933,4.9909,4.9847,4.9992,5.0104,5.02,5.0267,5.0302,5.0302,5.0302,5.0302,5.0302,5.0302,5.0188,4.987,4.979,4.9468,4.8815,4.8477,4.8306,4.8306,4.8306,4.8306,4.8306,4.8306,4.8306,4.8306,4.8306,4.8306,4.8306,4.8306,4.8306,4.8306,4.8306,4.8306,4.8306,4.8306,4.8306,4.8306,4.8306,4.8306,4.8344,4.8661,4.8769,4.8804,4.9127,4.9214,4.9164,4.9484,4.9544,4.9544,4.9844,5.0087,5.0272,5.0396,5.0563,5.0712,5.0712,5.0712,5.0712,5.0712,5.0712,5.0712,5.0712,5.0712,5.0712,5.0712,5.0712,5.0712,5.0712,5.0712,5.0712,5.0712,5.1375,5.2173,5.2972,5.3818,5.4664,5.5472,5.5568,5.5299,5.4684,5.4549,5.4491,5.4491,5.3683,5.3549,5.4318,5.3703,5.3337,5.3337,5.326,5.2876,5.2192,5.1981,5.1529,5.0827,5.0827,5.0827,0.0,0.0,0.0,0.0,4.4192,0.0,4.4939,4.5569,4.6207,4.6803,4.7479,4.8035,4.822,4.8273,4.8262,4.8251,4.8846,4.9522,5.0123,5.0267,5.0302,5.0302,5.0302,5.0302,5.0302,5.0302,5.0259,5.0212,4.9702,4.9224,4.8833,4.8477,4.8306,4.8306,4.8306,4.8306,4.8306,4.8306,4.8306,4.8306,4.8306,4.8306,4.8306,4.8306,4.8306,4.8306,4.8306,4.8306,4.8306,4.8306,4.8306,4.8306,4.8306,4.8306,4.8325,4.8494,4.8587,4.8678,4.889,4.9127,4.9352,4.9484,4.9749,5.0062,5.0123,5.0358,5.0604,5.0624,5.0663,5.0712,5.0712,5.0712,5.0712,5.0712,5.0712,5.0712,5.0712,5.0712,5.0712,5.0712,5.0712,5.0712,5.0712,5.0712,5.0712,5.0712,5.1375,5.1962,5.2135,5.2914,5.378,5.4645,5.4722,5.4934,5.5415,5.4876,5.4491,5.4491,5.3683,5.328,5.3453,5.3953,5.4241,5.4241,5.3568,5.3453,5.3991,5.2577,5.1808,5.1673,5.1673,5.1673,0.0,0.0,0.0,4.3876,4.3942,0.0,0.0,4.5259,4.5696,4.6399,4.686,4.7248,4.754,4.7608,4.7643,4.7777,4.8525,4.9079,4.9014,4.9744,5.0302,5.0302,5.0302,5.0302,5.0302,5.0302,5.0302,5.0302,4.983,4.9409,4.9064,4.8729,4.8477,4.8306,4.8306,4.8306,4.8306,4.8306,4.8306,4.8306,4.8306,4.8306,4.8306,4.8306,4.8306,4.8306,4.8306,4.8306,4.8306,4.8306,4.8306,4.8306,4.8306,4.8363,4.8476,4.8532,4.8624,4.8767,4.8945,4.9179,4.9427,4.9641,4.9936,5.023,5.041,5.0565,5.0712,5.0712,5.0712,5.0712,5.0712,5.0712,5.0712,5.0712,5.0712,5.0712,5.0712,5.0712,5.0712,5.0712,5.0712,5.0712,5.0712,5.0712,5.0712,5.0712,5.1029,5.1452,5.1846,5.2269,5.3049,5.4357,5.4107,5.4184,5.503,5.4337,5.3857,5.3857,5.3433,5.3203,5.3203,5.3626,5.3857,5.3857,5.3414,5.3414,5.3857,5.3414,5.2972,5.2538,5.2538,5.2538,0.0,0.0,0.0,0.0,0.0,4.3933,0.0,0.0,0.0,4.6242,4.6421,4.6464,4.6762,4.6827,4.691,4.7113,4.7883,4.8219,4.7549,4.8781,4.9759,4.9813,5.0111,5.0245,5.0073,5.0073,5.013,5.0283,4.9848,4.9518,4.9405,4.9034,4.8676,4.8402,4.8344,4.8306,4.8306,4.8306,4.8306,4.8306,4.8306,4.8306,4.8306,4.8306,4.8306,4.8306,4.8306,4.8306,4.8306,4.8306,4.8306,4.8306,4.8344,4.8458,4.8587,4.8695,4.8802,4.8909,4.9162,4.9352,4.9529,4.987,5.0123,5.0347,5.0614,5.0712,5.0712,5.0712,5.0712,5.0712,5.0712,5.0712,5.0712,5.0712,5.0712,5.0712,5.0712,5.0712,5.0712,5.0712,5.0712,5.0712,5.0712,5.0712,5.0712,5.0712,5.0712,5.0933,5.1587,5.1673,5.2279,5.3837,5.353,5.3549,5.4434,5.3991,5.3683,5.3683,5.3683,5.3683,5.3683,5.3683,5.3606,5.3453,5.3299,5.328,5.3453,5.3991,5.3972,5.3453,5.3453,5.3453,0.0,0.0,0.0,0.0,4.3212,0.0,4.3941,0.0,4.4047,4.4367,0.0,4.4541,4.4711,0.0,0.0,4.4794,4.5523,4.6127,4.6278,4.7119,4.7813,4.8052,4.9404,5.0015,4.932,4.9243,4.9519,5.0245,4.9322,4.9019,4.9706,4.9145,4.8781,4.8746,4.8439,4.8306,4.8306,4.8306,4.8306,4.8306,4.8306,4.8306,4.8306,4.8306,4.8306,4.8306,4.8306,4.8306,4.8306,4.8306,4.8306,4.8325,4.8495,4.8532,4.8587,4.9052,4.9057,4.8909,4.9579,4.979,4.9817,5.0197,5.0481,5.0653,5.0683,5.0712,5.0712,5.0712,5.0712,5.0712,5.0712,5.0712,5.0712,5.0712,5.0712,5.0712,5.0712,5.0712,5.0712,5.0712,5.0712,5.0712,5.0712,5.0712,5.0712,5.0712,5.0712,5.0731,5.0827,5.0846,5.1183,5.2096,5.2799,5.3549,5.4434,5.5049,5.5415,5.5415,5.5415,5.5415,5.5415,5.5415,5.5068,5.4376,5.3587,5.3587,5.4357,5.3683,5.3683,5.4357,5.4357,5.4357,0.0,0.0,0.0,0.0,0.0,0.0,4.348,0.0,4.3443,0.0,0.0,0.0,0.0,0.0,0.0,0.0,4.5199,4.5617,4.5176,4.6429,4.7491,4.7766,4.8418,4.8926,4.9091,4.9519,4.9939,5.0264,4.9851,4.9651,4.9798,4.9348,4.8999,4.8816,4.8477,4.8306,4.8306,4.8306,4.8306,4.8306,4.8306,4.8306,4.8306,4.8306,4.8306,4.8306,4.8306,4.842,4.8568,4.8383,4.8477,4.8765,4.8767,4.8732,4.8733,4.9085,4.9233,4.9268,4.9693,4.9936,5.0087,5.047,5.0633,5.0712,5.0712,5.0712,5.0712,5.0712,5.0712,5.0712,5.0712,5.0712,5.0712,5.0712,5.0712,5.0712,5.0712,5.0712,5.0712,5.0712,5.0712,5.0712,5.0712,5.0712,5.0712,5.0712,5.0712,5.0712,5.0712,5.0712,5.101,5.1808,5.1818,5.2279,5.3626,5.3587,5.3722,5.4222,5.4241,5.4241,5.4241,5.4241,5.4087,5.376,5.3876,5.4126,5.4491,5.4607,5.4838,5.5184,5.4765,5.4784,4.1708,0.0,0.0,0.0,0.0,0.0,0.0,0.0,0.0,0.0,4.3495,0.0,0.0,0.0,0.0,0.0,0.0,4.503,4.4411,4.5579,4.6625,4.6938,4.7258,4.7799,4.8659,4.927,4.971,4.9958,4.9977,4.9952,4.9936,4.9527,4.9193,4.8951,4.8513,4.8306,4.8306,4.8306,4.8306,4.8306,4.8306,4.8306,4.8306,4.8306,4.8306,4.8306,4.8306,4.8495,4.8781,4.855,4.8694,4.9087,4.9025,4.8976,4.8974,4.9327,4.9491,4.9627,4.9936,5.0171,5.0372,5.0635,5.0731,5.0731,5.0712,5.0712,5.0702,5.0693,5.0702,5.0702,5.0693,5.0702,5.0712,5.0712,5.0702,5.0693,5.0702,5.0702,5.0712,5.0712,5.0712,5.0712,5.0712,5.0712,5.0712,5.0712,5.0712,5.0712,5.0712,5.0712,5.0914,5.151,5.1241,5.151,5.2741,5.2481,5.2519,5.3164,5.3203,5.3203,5.3203,5.3433,5.3433,5.3203,5.4068,5.4491,5.4491,5.5088,5.5472,5.5675,5.494,5.4892,0.0,0.0,0.0,4.2101,0.0,0.0,0.0,0.0,4.2639,0.0,0.0,0.0,0.0,0.0,0.0,0.0,0.0,0.0,0.0,4.4177,4.4383,4.4846,4.586,4.6882,4.775,4.7865,4.8239,0.0,4.9148,4.9461,5.0233,4.966,4.9302,4.9268,4.864,4.8306,4.8306,4.8306,4.8306,4.8306,4.8306,4.8306,4.8306,4.8306,4.8306,4.8306,4.8306,4.8495,4.8799,4.8799,4.8902,4.912,4.9241,4.9283,4.9352,4.9887,4.9948,4.9884,5.0462,5.0683,5.0701,5.0775,5.0793,5.0784,5.071,5.0692,5.0711,5.0702,5.0702,5.0702,5.0702,5.0702,5.0692,5.0692,5.0702,5.0702,5.0711,5.0702,5.0712,5.0712,5.0712,5.0712,5.0712,5.0712,5.0712,5.0712,5.0712,5.0712,5.0712,5.0712,5.0712,5.075,5.1414,5.1885,5.1942,5.2692,5.3164,5.3203,5.3203,5.3203,5.3203,5.401,5.4068,5.3222,5.4068,5.4491,5.4491,5.453,5.4934,5.5675,5.494,5.4603,0.0,0.0,4.3274,4.1944,0.0,0.0,0.0,0.0,0.0,0.0,0.0,0.0,0.0,0.0,0.0,0.0,0.0,0.0,0.0,4.402,4.4206,4.4493,4.5546,4.6427,4.6879,0.0,0.0,4.9091,4.9595,4.9926,4.9981,4.9541,4.9209,4.8984,4.8532,4.8306,4.8306,4.8306,4.8306,4.8306,4.8306,4.8306,4.8306,4.8306,4.8306,4.8306,4.8513,4.8712,4.8816,4.9031,4.929,4.9491,4.9558,4.9754,5.0019,4.9981,5.0019,5.0135,5.0546,5.0702,5.071,5.0784,5.0801,5.0793,5.0775,5.0775,5.0766,5.0776,5.0766,5.0766,5.0776,5.0766,5.0775,5.0775,5.0766,5.0776,5.0766,5.0757,5.0758,5.0702,5.0692,5.0702,5.0693,5.0712,5.0712,5.0712,5.0712,5.0712,5.0712,5.0712,5.0712,5.0712,5.0933,5.1318,5.1846,5.2692,5.3203,5.3203,5.3203,5.3203,5.3203,5.3491,5.351,5.3222,5.3491,5.3645,5.3645,5.3645,5.378,5.403,5.3282,5.3542,4.3184,4.3709,0.0,4.2499,4.2874,0.0,4.2271,0.0,4.2198,0.0,0.0,0.0,0.0,0.0,0.0,0.0,0.0,0.0,0.0,4.3897,4.4014,4.426,4.5009,4.5685,4.6137,4.7219,4.818,4.8862,4.9408,4.9771,4.9962,4.966,4.9378,4.9161,4.8711,4.8477,4.8477,4.8345,4.8306,4.8306,4.8306,4.8306,4.8306,4.842,4.8477,4.8495,4.8832,4.905,4.9161,4.9394,4.9603,4.9814,4.9868,5.0051,5.0306,5.0137,5.0221,5.0402,5.0644,5.0748,5.0757,5.0808,5.0844,5.0844,5.0846,5.0838,5.0838,5.0801,5.081,5.0838,5.0801,5.081,5.0838,5.0838,5.081,5.0801,5.0838,5.081,5.0793,5.0738,5.0748,5.0739,5.075,5.074,5.0731,5.0693,5.0712,5.0712,5.0712,5.0712,5.0712,5.0712,5.0712,5.0914,5.1433,5.1991,5.2318,5.2318,5.2318,5.2318,5.2318,5.2567,5.2855,5.3203,5.3142,5.3296,5.3664,5.3336,5.3182,5.3183,5.2435,5.2674]}]]